     2              OBSERVATION DATA    GPS                 RINEX VERSION / TYPE
TRRINEXO-V2.3.1-LH UCLA/SCEC 26-FEB-1994                    PGM / RUN BY / DATE
                                                            COMMENT
Original Marker Name: 0705                                  COMMENT
Campaign Name: Northridge 1994                              COMMENT
4-Character Station Name: 0705                              COMMENT
6-Character Antenna Code: TRMSST                            COMMENT
Vertical Measurement Point: BGP                             COMMENT
Vertical Offset to Rinex Ref. Point: 0.0597                 COMMENT
Radial Measurement Point: NGP                               COMMENT
Radial Offset to Rinex Ref. Point: 0.2334                   COMMENT
Antenna Height from Field Measurement: 1.7880 m             COMMENT
Original XYZ: -2451920.4488 -4657318.1290 3592189.4608      COMMENT
New XYZ position is based on association with SCEC monument COMMENT
E1F2B4Q8+0011. Position of that monument is believed to be  COMMENT
valid to within 1 m horizontally; vertical accuracy         COMMENT
should be no worse than 3-times this value.                 COMMENT
                                                            COMMENT
Revised Rinex header created by UCSD GPS archive for        COMMENT
GSAC on 19-Apr-1999 (1999:109) 05:01:23 GMT                 COMMENT
For assistance contact dagnew@ucsd.edu or hjohnson@ucsd.edu COMMENT
                                                            COMMENT
HPGN CALIF STA 0705 1991                                    MARKER NAME
. CALIF DEPT TRANSPORTATION DISTRICT 7                      OBSERVER / AGENCY
1509 TRIMBLE 4000 SSE 5.66                                  REC # / TYPE / VERS
64324 TR 4000SST L1/L2 GEO                                  ANT # / TYPE
 -2451918.0000 -4657354.0000  3592210.0000                  APPROX POSITION XYZ
        1.7130        0.0000        0.0000                  ANTENNA: DELTA H/E/N
     1     2     0                                          WAVELENGTH FACT L1/2
     3    C1    L1    L2                                    # / TYPES OF OBSERV
    30                                                      INTERVAL
  1994     2    14    16    59   30.000000                  TIME OF FIRST OBS
  1994     2    14    22    59   60.000000                  TIME OF LAST OBS
     0                                                      # OF SATELLITES
                                                            END OF HEADER
 94  2 14 16 59 30.0000000  0  5 14 15 22 25 29
  21665991.469     -483140.27517   -299305.76919
  21405338.680      261171.19817    152538.75119
  23722789.820     -593304.76915   -347121.84815
  21124835.141      225573.57818    139333.44319
  23064654.289     -402912.16115   -235900.72616
 94  2 14 17  0  0.0000000  0  5 14 15 22 25 29
  21650634.813     -563840.011 7   -362188.669 9
  21413931.078      306324.947 7    187723.459 9
  23703828.813     -692950.116 5   -424767.405 5
  21132227.781      264425.053 8    169607.296 9
  23051800.766     -470461.937 5   -288536.869 6
 94  2 14 17  0 30.0000000  0  5 14 15 22 25 29
  21635312.672     -644359.610 7   -424931.199 9
  21422614.531      351956.628 7    223280.593 9
  23684876.086     -792547.578 5   -502375.648 6
  21139700.797      303693.037 8    200205.716 9
  23038960.180     -537935.787 5   -341113.837 6
 94  2 14 17  1  0.0000000  0  5 14 15 22 25 29
  21620042.031     -724606.169 7   -487460.987 9
  21431402.836      398139.777 7    259267.428 9
  23665944.688     -892035.167 5   -579898.314 6
  21147268.234      343461.088 8    231193.788 9
  23026148.039     -605265.014 5   -393578.126 6
 94  2 14 17  1 30.0000000  0  5 14 15 22 25 29
  21604803.672     -804686.007 7   -549860.855 9
  21440275.141      444760.361 7    295595.115 9
  23647011.641     -991529.914 5   -657426.554 6
  21154909.547      383614.559 8    262482.188 9
  23013342.164     -672562.085 5   -446017.371 6
 94  2 14 17  2  0.0000000  0  5 14 15 22 25 29
  21589584.805     -884659.932 7   -612178.197 9
  21449220.406      491768.314 7    332224.651 9
  23628068.352    -1091073.801 5   -734993.120 6
  21162612.109      424093.577 8    294024.254 9
  23000531.898     -739878.575 5   -498471.749 6
 94  2 14 17  2 30.0000000  0  5 14 15 22 25 29
  21574388.031     -964520.630 7   -674407.297 9
  21458239.977      539168.991 7    369160.203 9
  23609120.422    -1190644.408 5   -812580.477 6
  21170374.852      464886.745 8    325811.117 9
  22987719.703     -807206.246 5   -550934.841 6
 94  2 14 17  3  0.0000000  0  5 14 15 22 25 29
  21559208.563    -1044289.331 7   -736564.721 9
  21467329.664      586936.133 7    406381.315 9
  23590161.797    -1290270.005 5   -890210.761 5
  21178190.203      505957.520 8    357814.289 9
  22974902.797     -874563.604 6   -603421.076 6
 94  2 14 17  3 30.0000000  0  5 14 15 22 25 29
  21544050.453    -1123946.590 7   -798635.311 9
  21476495.328      635101.994 7    443913.101 9
  23571206.023    -1389882.051 5   -967830.463 5
  21186065.203      547341.044 8    390061.154 9
  22962086.352     -941911.031 6   -655899.599 6
 94  2 14 17  4  0.0000000  0  5 14 15 22 25 29
  21528913.711    -1203491.637 7   -860618.465 9
  21485734.773      683655.897 7    481747.262 9
  23552255.016    -1489472.894 5  -1045433.639 6
  21193997.430      589023.794 8    422541.186 9
  22949270.602    -1009260.220 6   -708379.460 6
 94  2 14 17  4 30.0000000  0  5 14 15 22 25 29
  21513799.680    -1282915.899 7   -922507.498 9
  21495047.547      732593.098 7    519880.101 9
  23533307.094    -1589041.617 5  -1123019.602 6
  21201987.930      631013.424 8    455260.342 9
  22936455.461    -1076602.381 6   -760853.865 6
 94  2 14 17  5  0.0000000  0  5 14 15 22 25 29
  21498707.750    -1362224.917 7   -984306.735 9
  21504432.617      781910.534 7    558309.217 9
  23514363.086    -1688596.125 5  -1200594.516 6
  21210036.250      673307.174 8    488216.476 9
  22923642.750    -1143935.639 6   -813321.313 6
 94  2 14 17  5 30.0000000  0  5 14 15 22 25 29
  21483641.969    -1441396.729 7  -1045999.061 9
  21513895.148      831633.252 7    597054.141 9
  23495426.250    -1788107.975 5  -1278136.153 6
  21218145.156      715919.719 8    521421.019 9
  22910833.164    -1211252.742 6   -865776.195 6
 94  2 14 17  6  0.0000000  0  5 14 15 22 25 29
  21468607.055    -1520404.897 7  -1107563.872 9
  21523435.094      881767.874 7    636120.031 9
  23476496.453    -1887589.277 6  -1355654.009 6
  21226314.953      758851.135 8    554874.030 9
  22898025.805    -1278556.635 6   -918220.802 6
 94  2 14 17  6 30.0000000  0  5 14 15 22 25 29
  21453606.836    -1599231.778 7  -1168987.423 9
  21533056.164      932326.230 7    675516.095 9
  23457572.250    -1987033.768 5  -1433143.202 6
  21234548.828      802119.531 8    588589.625 9
  22885222.000    -1345839.297 6   -970648.861 6
 94  2 14 17  7  0.0000000  0  5 14 15 22 25 29
  21438644.578    -1677858.233 7  -1230254.808 9
  21542758.539      983312.308 7    715245.452 9
  23438658.648    -2086430.717 6  -1510595.351 6
  21242846.852      845726.392 8    622568.952 9
  22872419.438    -1413114.628 6  -1023071.207 6
 94  2 14 17  7 30.0000000  0  5 14 15 22 25 29
  21423725.914    -1756256.559 7  -1291344.412 9
  21552542.039     1034725.411 7    755307.564 9
  23419754.758    -2185767.474 5  -1588000.603 6
  21251211.234      889681.760 8    656819.848 9
  22859619.117    -1480380.622 6  -1075486.268 7
 94  2 14 17  8  0.0000000  0  5 14 15 22 25 29
  21408852.078    -1834419.277 7  -1352250.443 9
  21562406.859     1086564.696 7    795701.739 9
  23400863.094    -2285039.879 5  -1665355.695 6
  21259646.242      934008.874 8    691360.406 9
  22846826.352    -1547610.037 6  -1127872.842 7
 94  2 14 17  8 30.0000000  0  5 14 15 22 25 29
  21394022.398    -1912349.680 7  -1412975.452 9
  21572354.656     1138840.710 7    836436.238 9
  23381987.711    -2384236.050 6  -1742651.408 6
  21268156.359      978728.996 8    726207.210 9
  22834046.727    -1614768.404 6  -1180204.063 7
 94  2 14 17  9  0.0000000  0  5 14 15 22 25 29
  21379234.305    -1990062.815 7  -1473531.155 9
  21582384.164     1191546.713 7    877505.784 9
  23363126.984    -2483348.087 5  -1819881.549 6
  21276737.875     1023824.398 8    761346.434 9
  22821283.055    -1681842.469 6  -1232469.581 7
 94  2 14 17  9 30.0000000  0  5 14 15 22 25 29
  21364483.219    -2067579.465 7  -1533933.753 9
  21592494.914     1244678.100 7    918906.796 9
  23344280.945    -2582375.779 5  -1897045.980 6
  21285389.156     1069285.474 8    796770.602 9
  22808539.625    -1748808.359 6  -1284650.800 7
 94  2 14 17 10  0.0000000  0  5 14 15 22 25 29
  21349767.016    -2144913.791 7  -1594194.281 9
  21602687.961     1298241.982 7    960644.820 9
  23325455.070    -2681304.410 5  -1974133.183 6
  21294109.188     1115109.752 8    832477.778 9
  22795820.266    -1815649.711 6  -1336734.993 7
 94  2 14 17 10 30.0000000  0  5 14 15 22 25 29
  21335083.602    -2222075.948 7  -1654320.649 9
  21612960.156     1352223.731 7   1002708.439 9
  23306648.930    -2780135.007 5  -2051143.997 6
  21302891.063     1161259.520 8    868438.584 9
  22783118.641    -1882397.949 7  -1388746.622 7
 94  2 14 17 11  0.0000000  0  5 14 15 22 25 29
  21320437.188    -2299043.266 7  -1714295.198 9
  21623312.023     1406622.614 7   1045097.110 9
  23287864.141    -2878848.472 5  -2128063.583 6
  21311734.383     1207731.113 8    904650.164 9
  22770433.180    -1949059.297 7  -1440690.554 7
 94  2 14 17 11 30.0000000  0  5 14 15 22 25 29
  21305830.477    -2375800.501 7  -1774106.047 9
  21633743.227     1461438.102 7   1087810.394 9
  23269100.805    -2977454.316 5  -2204899.261 6
  21320641.555     1254539.578 8    941124.236 9
  22757763.672    -2015639.932 7  -1492571.581 7
 94  2 14 17 12  0.0000000  0  5 14 15 22 25 29
  21291266.047    -2452337.408 7  -1833745.214 9
  21644252.469     1516664.412 7   1130843.805 9
  23250356.906    -3075959.431 6  -2281656.460 6
  21329613.664     1301687.051 8    977862.467 9
  22745104.836    -2082162.763 7  -1544407.586 7
 94  2 14 17 12 30.0000000  0  5 14 15 22 25 29
  21276746.336    -2528639.591 7  -1893201.478 9
  21654839.539     1572300.403 7   1174196.457 9
  23231630.742    -3174366.261 6  -2358337.052 6
  21338652.844     1349188.723 8   1014876.701 9
  22732453.648    -2148641.423 6  -1596209.160 8
 94  2 14 17 13  0.0000000  0  5 14 15 22 25 29
  21262268.977    -2604718.774 7  -1952483.966 9
  21665501.727     1628327.350 7   1217853.733 9
  23212918.211    -3272698.791 6  -2434959.725 6
  21347757.930     1397036.211 8   1052160.398 9
  22719809.156    -2215088.414 6  -1647986.052 8
 94  2 14 17 13 30.0000000  0  5 14 15 22 25 29
  21247833.961    -2680575.496 7  -2011593.113 9
  21676238.984     1684750.281 7   1261819.580 9
  23194222.570    -3370950.450 6  -2511519.387 6
  21356929.445     1445231.842 8   1089715.379 9
  22707170.789    -2281503.981 6  -1699738.454 7
 94  2 14 17 14  0.0000000  0  5 14 15 22 25 29
  21233442.937    -2756201.483 7  -2070522.467 9
  21687051.531     1741572.955 7   1306096.913 9
  23175546.141    -3469093.676 6  -2587994.579 6
  21366166.805     1493774.558 8   1127540.816 9
  22694540.258    -2347879.767 6  -1751459.877 8
 94  2 14 17 14 30.0000000  0  5 14 15 22 25 29
  21219093.844    -2831606.617 7  -2129279.732 9
  21697937.500     1798777.045 7   1350671.447 9
  23156891.070    -3567126.044 6  -2664383.370 6
  21375465.914     1542640.239 8   1165617.910 9
  22681916.305    -2414220.895 6  -1803154.286 8
 94  2 14 17 15  0.0000000  0  5 14 15 22 25 29
  21204791.484    -2906766.235 7  -2187845.693 9
  21708898.180     1856376.103 7   1395553.760 9
  23138263.617    -3665017.127 6  -2740662.102 6
  21384826.406     1591829.480 8   1203947.133 9
  22669302.961    -2480503.409 6  -1854803.019 8
 94  2 14 17 15 30.0000000  0  5 14 15 22 25 29
  21190531.836    -2981702.326 7  -2246237.477 9
  21719930.484     1914351.566 7   1440729.364 9
  23119661.258    -3762768.566 6  -2816832.014 6
  21394244.391     1641321.010 8   1242511.901 9
  22656698.727    -2546739.765 6  -1906415.782 8
 94  2 14 17 16  0.0000000  0  5 14 15 22 25 29
  21176315.031    -3056412.767 7  -2304453.422 9
  21731033.242     1972698.086 7   1486194.108 9
  23101087.484    -3860372.649 6  -2892887.084 6
  21403718.172     1691105.095 8   1281304.635 9
  22644102.727    -2612931.017 6  -1957993.390 7
 94  2 14 17 16 30.0000000  0  5 14 15 22 25 29
  21162139.273    -3130905.225 7  -2362499.507 9
  21742206.852     2031415.620 7   1531947.941 9
  23082541.195    -3957834.119 6  -2968831.023 6
  21413246.805     1741178.655 8   1320322.932 9
  22631514.766    -2679084.349 6  -2009541.452 7
 94  2 14 17 17  0.0000000  0  5 14 15 22 25 29
  21148002.930    -3205191.800 7  -2420385.159 9
  21753450.758     2090500.625 7   1577988.127 9
  23064019.813    -4055165.392 6  -3044673.541 6
  21422829.984     1791538.677 8   1359564.452 9
  22618932.844    -2745200.323 6  -2061060.412 7
 94  2 14 17 17 30.0000000  0  5 14 15 22 25 29
  21133901.008    -3279298.245 7  -2478130.457 9
  21764760.273     2149936.430 7   1624301.668 9
  23045520.594    -4152377.823 6  -3120423.430 6
  21432465.234     1842171.809 8   1399018.784 9
  22606359.047    -2811275.403 6  -2112547.496 7
 94  2 14 17 18  0.0000000  0  5 14 15 22 25 29
  21119841.086    -3353183.358 7  -2535703.291 9
  21776142.000     2209743.975 7   1670904.869 9
  23027048.789    -4249449.610 6  -3196063.772 6
  21442157.789     1893107.758 8   1438709.078 9
  22593798.508    -2877279.496 6  -2163979.263 7
 94  2 14 17 18 30.0000000  0  5 14 15 22 25 29
  21105821.852    -3426856.868 7  -2593111.238 9
  21787589.391     2269901.171 7   1717780.522 8
  23008595.734    -4346418.549 6  -3271623.970 6
  21451906.180     1944336.486 8   1478627.517 9
  22581250.031    -2943224.804 6  -2215365.227 7
 94  2 14 17 19  0.0000000  0  5 14 15 22 25 29
  21091846.125    -3500299.528 7  -2650339.310 9
  21799102.477     2330401.938 7   1764923.879 8
  22990164.055    -4443278.258 6  -3347099.026 6
  21461711.023     1995859.118 8   1518774.972 9
  22568713.227    -3009108.254 6  -2266703.004 7
 94  2 14 17 19 30.0000000  0  5 14 15 22 25 29
  21077917.852    -3573493.108 7  -2707373.286 9
  21810680.836     2391245.211 7   1812334.131 8
  22971754.313    -4540022.987 6  -3422484.526 6
  21471572.281     2047679.918 8   1559154.765 9
  22556184.766    -3074942.852 6  -2318002.714 7
 94  2 14 17 20  0.0000000  0  5 14 15 22 25 29
  21064041.484    -3646414.313 7  -2764195.023 9
  21822325.266     2452434.514 7   1860014.005 9
  22953364.688    -4636661.645 6  -3497787.358 6
  21481491.500     2099805.780 8   1599772.258 9
  22543661.414    -3140754.525 6  -2369284.566 7
 94  2 14 17 20 30.0000000  0  5 14 15 22 25 29
  21050217.531    -3719058.930 7  -2820801.236 9
  21834035.570     2513974.156 7   1907966.880 9
  22934998.578    -4733174.986 6  -3572992.563 6
  21491467.844     2152230.982 8   1640623.009 9
  22531140.492    -3206553.388 6  -2420556.425 7
 94  2 14 17 21  0.0000000  0  5 14 15 22 25 29
  21036446.578    -3791426.005 7  -2877191.176 9
  21845812.531     2575862.333 7   1956191.341 9
  22916661.578    -4829535.431 6  -3648078.612 6
  21501500.125     2204950.063 8   1681702.761 9
  22518619.586    -3272351.911 6  -2471828.029 7
 94  2 14 17 21 30.0000000  0  5 14 15 22 25 29
  21022724.852    -3863533.882 7  -2933379.152 9
  21857653.070     2638084.499 7   2004676.048 9
  22898351.500    -4925755.852 6  -3723055.575 6
  21511585.719     2257949.237 8   1723000.759 9
  22506097.523    -3338155.592 6  -2523103.664 7
 94  2 14 17 22  0.0000000  0  5 14 15 22 25 29
  21009051.422    -3935389.005 7  -2989370.178 9
  21869556.711     2700639.230 7   2053419.901 8
  22880070.625    -5021824.339 6  -3797914.187 6
  21521724.070     2311226.264 8   1764515.269 9
  22493577.984    -3403947.177 6  -2574369.865 7
 94  2 14 17 22 30.0000000  0  5 14 15 22 25 29
  20995424.820    -4006997.106 7  -3045168.717 9
  21881523.453     2763523.829 7   2102420.793 8
  22861822.039    -5117722.482 6  -3872640.026 6
  21531915.734     2364785.178 8   1806249.434 9
  22481064.898    -3469705.005 6  -2625609.774 7
 94  2 14 17 23  0.0000000  0  5 14 15 22 25 29
  20981840.227    -4078386.114 7  -3100796.532 9
  21893548.289     2826714.206 7   2151659.960 8
  22843600.555    -5213476.220 6  -3947253.386 6
  21542157.625     2418607.076 8   1848188.519 9
  22468555.438    -3535439.493 6  -2676831.481 7
 94  2 14 17 23 30.0000000  0  5 14 15 22 25 29
  20968299.336    -4149543.020 7  -3156243.480 9
  21905633.180     2890220.943 7   2201145.633 8
  22825409.016    -5309071.163 6  -4021743.020 6
  21552449.977     2472693.501 8   1890333.733 9
  22456055.727    -3601126.090 6  -2728015.866 7
 94  2 14 17 24  0.0000000  0  5 14 15 22 25 29
  20954803.508    -4220465.559 7  -3211507.806 9
  21917777.563     2954037.199 7   2250872.488 9
  22807249.641    -5404501.909 6  -4096104.644 7
  21562789.672     2527027.828 8   1932672.109 9
  22443563.031    -3666775.870 6  -2779171.573 7
 94  2 14 17 24 30.0000000  0  5 14 15 22 25 29
  20941354.789    -4291138.824 7  -3266577.894 9
  21929981.492     3018168.985 7   2300845.207 9
  22789124.367    -5499751.505 6  -4170325.201 6
  21573175.008     2581603.982 8   1975198.914 9
  22431076.727    -3732390.609 6  -2830299.973 7
 94  2 14 17 25  0.0000000  0  5 14 15 22 25 29
  20927952.688    -4361567.431 8  -3321457.337 9
  21942244.445     3082610.198 7   2351059.043 9
  22771033.617    -5594821.644 6  -4244405.883 7
  21583603.336     2636404.381 8   2017900.459 9
  22418596.758    -3797976.815 6  -2881406.134 7
 94  2 14 17 25 30.0000000  0  5 14 15 22 25 29
  20914596.609    -4431754.014 8  -3376148.189 9
  21954565.141     3147355.549 7   2401509.853 8
  22752975.938    -5689715.782 6  -4318349.405 7
  21594075.328     2691434.865 8   2060781.285 9
  22406121.555    -3863533.275 6  -2932489.109 8
 94  2 14 17 26  0.0000000  0  5 14 15 22 25 29
  20901286.422    -4501698.950 8  -3430650.746 9
  21966943.219     3212401.234 7   2452194.693 8
  22734949.680    -5784441.044 6  -4392161.339 7
  21604592.922     2746703.364 8   2103847.578 9
  22393650.602    -3929067.866 6  -2983555.038 8
 94  2 14 17 26 30.0000000  0  5 14 15 22 25 29
  20888024.438    -4571392.214 8  -3484957.193 9
  21979377.266     3277745.393 7   2503112.124 8
  22716956.055    -5879001.981 6  -4465845.217 7
  21615158.672     2802227.378 8   2147112.970 9
  22381186.070    -3994573.232 6  -3034598.186 8
 94  2 14 17 27  0.0000000  0  5 14 15 22 25 29
  20874812.820    -4640819.242 7  -3539056.187 9
  21991868.648     3343386.283 7   2554260.760 8
  22698990.852    -5973408.926 6  -4539409.094 7
  21625775.656     2858021.070 8   2190588.499 9
  22368727.570    -4060042.013 7  -3085612.827 8
 94  2 14 17 27 30.0000000  0  5 14 15 22 25 29
  20861654.563    -4709967.025 7  -3592937.583 9
  22004415.563     3409320.887 7   2605638.267 8
  22681055.648    -6067659.257 6  -4612850.914 7
  21636444.023     2914082.312 8   2234272.503 9
  22356276.617    -4125469.892 6  -3136595.608 8
 94  2 14 17 28  0.0000000  0  5 14 15 22 25 29
  20848552.930    -4778815.920 7  -3646586.082 9
  22017019.586     3475555.646 7   2657249.657 8
  22663151.406    -6161740.507 6  -4686160.957 7
  21647162.664     2970409.378 8   2278163.640 9
  22343835.844    -4190844.171 6  -3187536.620 8
 94  2 14 17 28 30.0000000  0  5 14 15 22 25 29
  20835507.422    -4847370.160 7  -3700004.987 9
  22029680.188     3542087.933 7   2709092.901 8
  22645284.016    -6255640.133 6  -4759329.529 7
  21657930.766     3026995.229 8   2322256.423 9
  22331405.086    -4256167.536 6  -3238437.954 8
 94  2 14 17 29  0.0000000  0  5 14 15 22 25 29
  20822515.570    -4915643.232 8  -3753204.805 9
  22042396.930     3608916.431 6   2761166.939 8
  22627452.266    -6349342.171 6  -4832344.078 7
  21668747.000     3083833.223 8   2366545.685 9
  22318984.031    -4321443.872 6  -3289302.649 8
 94  2 14 17 29 30.0000000  0  5 14 15 22 25 29
  20809573.633    -4983655.088 8  -3806201.079 9
  22055169.305     3676035.503 6   2813467.404 8
  22609660.641    -6442841.183 6  -4905200.406 7
  21679610.055     3140918.862 8   2411027.914 9
  22306571.164    -4386675.722 7  -3340132.682 8
 94  2 14 17 30  0.0000000  0  5 14 15 22 25 29
  20796680.891    -5051405.824 8  -3858993.885 9
  22067997.383     3743444.767 7   2865993.979 8
  22591907.852    -6536131.747 6  -4977894.310 7
  21690521.813     3198260.896 8   2455709.938 9
  22294163.813    -4451876.260 6  -3390938.313 8
 94  2 14 17 30 30.0000000  0  5 14 15 22 25 29
  20783841.523    -5118877.322 8  -3911569.102 9
  22080880.453     3811145.977 6   2918748.050 8
  22574199.375    -6629195.626 6  -5050411.586 7
  21701482.781     3255861.220 8   2500593.228 9
  22281760.602    -4517052.777 6  -3441725.219 8
 94  2 14 17 31  0.0000000  0  5 14 15 22 25 29
  20771057.711    -5186056.409 7  -3963916.462 9
  22093819.219     3879137.318 6   2971728.201 8
  22556529.906    -6722040.854 6  -5122758.463 7
  21712492.664     3313719.148 8   2545677.259 9
  22269365.953    -4582190.789 7  -3492482.130 8
 94  2 14 17 31 30.0000000  0  5 14 15 22 25 29
  20758331.867    -5252931.382 7  -4016026.850 9
  22106813.063     3947418.946 6   3024934.544 7
  22538905.297    -6814665.088 6  -5194933.138 8
  21723550.047     3371825.205 7   2590954.644 9
  22256978.820    -4647284.455 6  -3543204.491 8
 94  2 14 17 32  0.0000000  0  5 14 15 22 25 29
  20745667.234    -5319483.861 7  -4067885.955 9
  22119862.461     4015992.742 6   3078368.556 7
  22521323.398    -6907054.388 6  -5266924.753 7
  21734652.516     3430169.430 8   2636417.616 9
  22244602.305    -4712325.404 6  -3593885.746 8
 94  2 14 17 32 29.9990000  0  5 14 15 22 25 29
  20733063.237    -5385719.378 7  -4119498.073 9
  22132965.362     4084849.483 6   3132023.030 8
  22503787.729    -6999208.140 6  -5338732.788 7
  21745796.808     3488733.121 8   2682051.602 9
  22232238.534    -4777296.532 7  -3644512.631 8
 94  2 14 17 32 59.9990000  0  5 14 15 22 25 29
  20720517.034    -5451652.692 8  -4170874.710 9
  22146123.823     4153996.382 6   3185903.598 8
  22486295.511    -7091123.413 6  -5410355.092 7
  21756984.073     3547519.817 8   2727859.365 9
  22219890.815    -4842184.554 7  -3695074.737 8
 94  2 14 17 33 29.9990000  0  5 14 15 22 25 29
  20708028.081    -5517280.959 7  -4222013.652 9
  22159335.909     4223426.196 6   3240004.616 8
  22468852.394    -7182788.075 6  -5481781.983 7
  21768212.933     3606526.015 8   2773838.163 9
  22207557.190    -4906998.170 7  -3745578.861 9
 94  2 14 17 33 59.9990000  0  5 14 15 22 25 29
  20695599.620    -5582593.099 7  -4272906.248 9
  22172601.722     4293137.746 6   3294325.178 8
  22451456.644    -7274200.871 6  -5553012.786 7
  21779484.409     3665759.764 8   2819994.288 9
  22195236.604    -4971743.135 7  -3796029.505 9
 94  2 14 17 34 29.9990000  0  5 14 15 22 25 29
  20683232.956    -5647580.176 7  -4323545.547 9
  22185920.847     4363130.780 6   3348865.070 8
  22434110.394    -7365361.562 6  -5624047.033 8
  21790802.628     3725237.759 8   2866340.736 9
  22182928.089    -5036424.824 7  -3846430.838 9
 94  2 14 17 34 59.9990000  0  5 14 15 22 25 29
  20670931.823    -5712223.083 7  -4373916.659 9
  22199293.823     4433405.546 6   3403624.498 8
  22416812.886    -7456261.119 6  -5694877.852 7
  21802170.612     3784977.232 8   2912890.931 9
  22170628.956    -5101056.673 7  -3896793.327 9
 94  2 14 17 35 29.9990000  0  5 14 15 22 25 29
  20658699.862    -5776502.091 7  -4424004.211 9
  22212721.206     4503965.726 6   3458606.328 8
  22399567.003    -7546895.184 7  -5765501.840 8
  21813590.909     3844989.855 8   2959653.966 9
  22158337.479    -5165649.467 7  -3947125.388 9
 94  2 14 17 35 59.9990000  0  5 14 15 22 25 29
  20646535.815    -5840426.063 7  -4473815.107 9
  22226199.229     4574793.803 6   3513796.906 8
  22382368.229    -7637270.545 6  -5835924.213 8
  21825059.042     3905254.695 8   3006613.522 9
  22146050.956    -5230214.810 7  -3997436.059 9
 94  2 14 17 36 29.9990000  0  5 14 15 22 25 29
  20634437.300    -5904004.838 7  -4523357.023 9
  22239726.979     4645880.347 6   3569188.872 8
  22365219.706    -7727389.111 7  -5906146.505 7
  21836573.659     3965762.082 8   3053762.078 9
  22133769.519    -5294754.358 7  -4047726.613 9
 94  2 14 17 36 59.9990000  0  5 14 15 22 25 29
  20622405.894    -5967229.102 7  -4572622.690 9
  22253305.792     4717238.172 6   3624792.243 7
  22348123.472    -7817226.738 6  -5976149.900 8
  21848133.979     4026514.420 8   3101101.510 9
  22121497.339    -5359245.793 7  -4097979.677 8
 94  2 14 17 37 29.9990000  0  5 14 15 22 25 29
  20610439.745    -6030112.025 7  -4621622.375 9
  22266934.972     4788859.134 6   3680600.646 8
  22331081.136    -7906787.006 7  -6045937.160 8
  21859739.183     4087498.831 8   3148621.773 9
  22109235.831    -5423680.099 7  -4148188.234 8
 94  2 14 17 37 59.9990000  0  5 14 15 22 25 29
  20598538.183    -6092655.915 7  -4670357.879 9
  22280614.120     4860743.546 6   3736614.339 7
  22314091.464    -7996065.635 6  -6115504.972 8
  21871385.737     4148702.320 7   3196312.742 9
  22096988.995    -5488037.503 7  -4198336.870 8
 94  2 14 17 38 29.9990000  0  5 14 15 22 25 29
  20586697.878    -6154876.714 7  -4718841.623 9
  22294341.542     4932882.686 6   3792826.523 7
  22297154.214    -8085076.614 7  -6184864.225 8
  21883072.011     4210113.977 7   3244165.911 9
  22084756.003    -5552322.263 7  -4248428.886 8
 94  2 14 17 38 59.9990000  0  5 14 15 22 25 29
  20574923.800    -6216750.064 7  -4767054.624 9
  22308120.253     5005287.465 6   3849245.693 7
  22280270.558    -8173798.215 6  -6253997.967 7
  21894800.495     4271746.469 8   3292191.163 9
  22072542.503    -5616507.491 7  -4298443.338 9
 94  2 14 17 39 29.9990000  0  5 14 15 22 25 29
  20563217.058    -6278269.688 7  -4814991.990 9
  22321947.331     5077948.697 6   3905864.712 7
  22263441.620    -8262235.598 6  -6322910.273 8
  21906570.222     4333595.703 8   3340385.302 9
  22060344.995    -5680604.700 7  -4348389.202 9
 94  2 14 17 39 59.9990000  0  5 14 15 22 25 29
  20551579.800    -6339424.098 7  -4862644.776 9
  22335822.026     5150862.242 6   3962680.329 7
  22246666.831    -8350383.953 6  -6391597.314 7
  21918381.214     4395663.205 8   3388749.513 9
  22048162.511    -5744622.899 7  -4398273.503 9
 94  2 14 17 40 29.9990000  0  5 14 15 22 25 29
  20540013.472    -6400204.681 7  -4910006.264 9
  22349744.237     5224022.585 6   4019688.258 7
  22229950.190    -8438235.979 7  -6460053.449 8
  21930238.308     4457971.837 7   3437301.609 9
  22035992.925    -5808574.236 7  -4448105.695 9
 94  2 14 17 40 59.9990000  0  5 14 15 22 25 29
  20528519.675    -6460605.736 7  -4957072.020 9
  22363713.144     5297428.384 6   4076887.453 7
  22213290.542    -8525780.323 6  -6528269.821 8
  21942143.464     4520534.162 7   3486051.384 9
  22023833.573    -5872470.695 7  -4497895.117 9
 94  2 14 17 41 29.9990000  0  5 14 15 22 25 29
  20517093.808    -6520648.235 7  -5003858.383 9
  22377728.058     5371075.294 6   4134274.526 7
  22196690.690    -8613015.919 7  -6596245.607 8
  21954094.956     4583341.775 7   3534992.302 9
  22011681.433    -5936333.240 7  -4547658.116 9
 94  2 14 17 41 59.9990000  0  5 14 15 22 25 29
  20505734.331    -6580342.062 7  -5050373.064 9
  22391789.253     5444965.902 6   4191851.497 7
  22180151.050    -8699929.663 6  -6663970.559 8
  21966093.050     4646392.357 7   3584122.554 9
  21999536.886    -6000150.765 7  -4597386.040 9
 94  2 14 17 42 29.9990000  0  5 14 15 22 25 29
  20494438.534    -6639702.051 7  -5096627.611 9
  22405894.979     5519093.023 6   4249612.754 7
  22163673.511    -8786523.928 7  -6731446.579 8
  21978133.558     4709663.260 7   3633424.487 9
  21987401.503    -6063922.621 7  -4647078.367 9
 94  2 14 17 42 59.9990000  0  5 14 15 22 25 29
  20483207.339    -6698722.946 7  -5142617.926 9
  22420045.378     5593453.315 6   4307555.711 7
  22147254.081    -8872804.186 7  -6798677.888 8
  21990210.229     4773125.610 7   3682875.603 9
  21975275.870    -6127644.560 7  -4696731.800 9
 94  2 14 17 43 29.9990000  0  5 14 15 22 25 29
  20472043.604    -6757389.645 8  -5188332.242 9
  22434239.925     5668045.977 6   4365679.727 7
  22130896.472    -8958766.905 7  -6865661.775 8
  22002321.995     4836772.535 7   3732470.543 9
  21963163.222    -6191296.829 7  -4746330.953 9
 94  2 14 17 43 59.9990000  0  5 14 15 22 25 29
  20460953.479    -6815668.817 8  -5233744.587 9
  22448478.245     5742869.546 6   4423983.682 7
  22114597.276    -9044416.172 7  -6932401.370 8
  22014470.776     4900615.613 7   3782218.334 9
  21951067.058    -6254862.671 7  -4795862.749 9
 94  2 14 17 44 29.9990000  0  5 14 15 22 25 29
  20449943.808    -6873524.740 8  -5278827.132 9
  22462761.823     5817928.558 6   4482471.104 7
  22098359.378    -9129746.621 7  -6998892.563 8
  22026658.675     4964663.876 7   3832126.018 9
  21938988.956    -6318333.663 7  -4845320.627 9
 94  2 14 17 44 59.9990000  0  5 14 15 22 25 29
  20439017.581    -6930942.625 8  -5323568.343 9
  22477089.901     5893223.647 6   4541142.469 7
  22082184.815    -9214743.907 7  -7065124.094 8
  22038888.698     5028931.923 7   3882204.978 9
  21926929.714    -6381703.507 7  -4894699.690 9
 94  2 14 17 45 29.9990000  0  5 14 15 22 25 29
  20428173.003    -6987931.717 7  -5367975.431 9
  22491462.542     5968753.136 6   4599996.508 6
  22066076.464    -9299393.058 6  -7131084.404 8
  22051160.284     5093420.129 7   3932455.492 9
  21914889.698    -6444975.268 7  -4944002.339 9
 94  2 14 17 45 59.9990000  0  5 14 15 22 25 29
  20417408.573    -7044499.382 7  -5412054.136 9
  22505880.112     6044514.150 6   4659030.928 7
  22050036.589    -9383684.756 7  -7196766.091 8
  22063474.011     5158127.965 7   3982877.146 9
  21902866.159    -6508158.695 7  -4993236.149 9
 94  2 14 17 46 29.9990000  0  5 14 15 22 25 29
  20406723.589    -7100648.942 7  -5455807.042 9
  22520343.745     6120521.521 6   4718257.320 7
  22034069.597    -9467589.213 7  -7262146.119 8
  22075829.308     5223055.952 7   4033470.344 9
  21890860.948    -6571245.098 7  -5042394.362 9
 94  2 14 17 46 59.9990000  0  5 14 15 22 25 29
  20396113.261    -7156406.929 8  -5499254.823 9
  22534852.651     6196767.772 6   4777669.856 7
  22018175.995    -9551114.130 7  -7327230.334 9
  22088226.636     5288203.440 7   4084234.589 9
  21878874.511    -6634236.023 7  -5091478.178 9
 94  2 14 17 47 29.9990000  0  5 14 15 22 25 29
  20385577.034    -7211775.862 8  -5542399.446 9
  22549405.604     6273242.452 6   4837260.404 7
  22002349.964    -9634278.376 7  -7392033.545 8
  22100664.167     5353563.919 7   4135164.799 9
  21866904.050    -6697140.036 7  -5140494.268 9
 94  2 14 17 47 59.9990000  0  5 14 15 22 25 29
  20375117.198    -7266741.572 8  -5585229.864 9
  22564000.667     6349938.972 6   4897023.778 7
  21986592.690    -9717086.784 7  -7456559.465 9
  22113144.831     5419150.221 7   4186270.977 9
  21854952.839    -6759945.250 7  -5189433.378 9
 94  2 14 17 48 29.9990000  0  5 14 15 22 25 29
  20364737.292    -7321288.981 8  -5627734.327 9
  22578638.440     6426858.949 6   4956961.294 6
  21970901.198    -9799540.985 7  -7520809.410 9
  22125668.550     5484962.038 7   4237552.870 9
  21843021.745    -6822643.870 7  -5238289.425 9
 94  2 14 17 48 59.9990000  0  5 14 15 22 25 29
  20354441.573    -7375392.326 7  -5669892.765 9
  22593318.839     6504003.362 6   5017073.682 6
  21955279.808    -9881632.076 7  -7584776.395 8
  22138238.331     5551013.627 7   4289021.593 9
  21831111.589    -6885231.732 7  -5287059.171 9
 94  2 14 17 49 29.9990000  0  5 14 15 22 25 29
  20344231.917    -7429043.211 7  -5711698.636 9
  22608040.581     6581368.143 6   5077357.798 6
  21939730.331    -9963345.082 7  -7648448.790 8
  22150851.144     5617294.372 7   4340668.884 9
  21819220.862    -6947718.081 7  -5335749.821 9
 94  2 14 17 49 59.9990000  0  5 14 15 22 25 29
  20334101.276    -7482281.867 8  -5753183.286 9
  22622798.519     6658920.508 6   5137788.069 6
  21924249.456   -10044694.456 7  -7711837.860 8
  22163498.222     5683757.059 7   4392457.940 9
  21807341.909    -7010141.919 7  -5384391.761 9
 94  2 14 17 50 29.9990000  0  5 14 15 22 25 29
  20324054.386    -7535081.111 8  -5794325.538 9
  22637598.464     6736693.318 6   5198390.133 6
  21908845.644   -10125644.238 7  -7774915.549 8
  22176183.331     5750419.407 7   4444402.578 9
  21795479.753    -7072478.810 7  -5432965.948 9
 94  2 14 17 50 59.9990000  0  5 14 15 22 25 29
  20314087.292    -7587455.788 8  -5835136.958 9
  22652439.917     6814684.977 6   5259162.700 6
  21893519.097   -10206182.422 7  -7837672.522 8
  22188906.675     5817280.464 7   4496502.053 9
  21783634.362    -7134726.027 7  -5481470.255 9
 94  2 14 17 51 29.9990000  0  5 14 15 22 25 29
  20304200.222    -7639413.429 8  -5875623.415 9
  22667322.573     6892893.581 6   5320104.323 6
  21878272.925   -10286305.743 7  -7900106.226 9
  22201666.862     5884334.308 7   4548751.745 9
  21771807.714    -7196877.269 7  -5529899.772 9
 94  2 14 17 51 59.9990000  0  5 14 15 22 25 29
  20294394.362    -7690943.975 8  -5915777.070 9
  22682245.761     6971315.498 6   5381212.160 7
  21863102.722   -10366025.207 7  -7962225.245 9
  22214464.589     5951586.210 7   4601155.762 9
  21759998.862    -7258933.385 7  -5578255.162 9
 94  2 14 17 52 29.9990000  0  5 14 15 22 25 29
  20284673.769    -7742024.711 7  -5955580.217 9
  22697209.972     7049953.066 6   5442488.044 6
  21848009.386   -10445342.850 7  -8024031.160 9
  22227303.690     6019056.054 7   4653729.607 9
  21748210.847    -7320877.899 7  -5626523.587 9
 94  2 14 17 52 59.9990000  0  5 14 15 22 25 29
  20275042.417    -7792638.934 8  -5995019.848 9
  22712216.331     7128808.924 6   5503934.034 7
  21832995.409   -10524244.794 7  -8085513.138 9
  22240186.722     6086755.254 7   4706482.167 9
  21736446.026    -7382702.462 7  -5674698.534 9
 94  2 14 17 53 29.9990000  0  5 14 15 22 25 29
  20265505.394    -7842756.370 8  -6034072.376 9
  22727264.104     7207886.149 6   5565552.507 7
  21818059.456   -10602729.649 7  -8146670.143 9
  22253114.198     6154691.289 7   4759419.274 9
  21724706.050    -7444397.720 7  -5722772.720 9
 94  2 14 17 53 59.9990000  0  5 14 15 22 25 29
  20256062.190    -7892380.485 8  -6072740.501 9
  22742353.456     7287179.727 6   5627339.559 6
  21803203.776   -10680800.438 7  -8207504.481 9
  22266084.909     6222854.011 7   4812533.011 9
  21712991.964    -7505955.175 7  -5770739.536 9
 94  2 14 17 54 29.9990000  0  5 14 15 22 25 29
  20246715.362    -7941498.722 8  -6111014.437 9
  22757486.050     7366701.497 6   5689304.422 6
  21788431.378   -10758427.419 7  -8267992.994 9
  22279100.612     6291250.347 7   4865828.798 9
  21701307.956    -7567352.800 7  -5818581.808 9
 94  2 14 17 54 59.9990000  0  5 14 15 22 25 29
  20237460.722    -7990133.439 8  -6148911.609 9
  22772658.784     7446436.494 6   5751435.415 6
  21773743.667   -10835610.778 7  -8328135.826 9
  22292157.214     6359860.835 7   4919291.446 9
  21689651.159    -7628609.590 7  -5866314.335 9
 94  2 14 17 55 29.9990000  0  5 14 15 22 25 29
  20228292.300    -8038313.618 8  -6186454.585 9
  22787869.175     7526363.597 6   5813716.156 7
  21759135.542   -10912375.577 7  -8387952.487 9
  22305250.151     6428665.289 7   4972905.243 9
  21678016.855    -7689748.418 7  -5913954.947 9
 94  2 14 17 55 59.9990000  0  5 14 15 22 25 29
  20219204.808    -8086068.218 8  -6223665.956 9
  22803110.331     7606457.970 6   5876127.197 6
  21744606.542   -10988729.877 7  -8447449.288 9
  22318376.573     6497645.078 7   5026655.654 9
  21666398.347    -7750804.712 7  -5961531.255 9
 94  2 14 17 56 29.9990000  0  5 14 15 22 25 29
  20210199.792    -8133390.427 8  -6260540.382 9
  22818384.925     7686722.936 6   5938671.164 6
  21730157.815   -11064657.260 7  -8506613.400 9
  22331541.229     6566825.859 7   5080562.709 9
  21654793.550    -7811789.583 7  -6009051.892 9
 94  2 14 17 56 59.9990000  0  5 14 15 22 25 29
  20201301.847    -8180148.517 8  -6296975.244 9
  22833717.120     7767294.645 6   6001454.161 6
  21715816.776   -11140016.013 7  -8565334.426 9
  22344771.011     6636348.615 7   5134736.233 9
  21643227.448    -7872567.941 7  -6056411.615 9
 94  2 14 17 57 29.9990000  0  5 14 15 22 25 29
  20192499.558    -8226405.464 8  -6333019.609 9
  22849093.050     7848094.663 6   6064415.053 6
  21701571.511   -11214878.701 7  -8623668.905 9
  22358050.167     6706130.800 7   5189111.900 9
  21631687.683    -7933210.212 7  -6103665.297 9
 94  2 14 17 57 59.9990000  0  6 18 14 15 22 25 29
  23957132.276      -33731.189 5
  20183800.972    -8272116.756 8  -6368638.783 9
  22864517.761     7929152.224 6   6127576.619 6
  21687427.597   -11289203.583 7  -8681584.306 9
  22371384.136     6776201.395 7   5243712.307 9
  21620182.276    -7993672.483 7  -6150778.730 9
 94  2 14 17 58 29.9990000  0  6 18 14 15 22 25 29
  23939640.065     -125652.148 5
  20175210.198    -8317260.091 8  -6403815.405 9
  22879992.425     8010474.935 6   6190944.812 6
  21673387.948   -11362983.199 7  -8739074.850 9
  22384771.839     6846554.892 7   5298533.156 9
  21608716.104    -8053925.653 7  -6197729.216 9
 94  2 14 17 58 59.9990000  0  6 18 14 15 22 25 29
  23922163.925     -217488.487 5    -59627.87915
  20166728.769    -8361830.706 8  -6438545.747 9
  22895513.972     8092040.279 6   6254502.057 6
  21659448.065   -11436236.377 7  -8796155.161 9
  22398206.136     6917151.826 7   5353543.706 9
  21597288.550    -8113978.891 7  -6244523.919 9
 94  2 14 17 59 29.9990000  0  6 18 14 15 22 25 29
  23904700.909     -309257.436 5   -131136.113 5
  20158356.269    -8405828.972 8  -6472830.093 9
  22911077.519     8173827.597 6   6318232.253 6
  21645603.823   -11508986.727 7  -8852843.663 9
  22411681.175     6987966.868 7   5408724.198 9
  21585895.909    -8173847.644 7  -6291174.869 9
 94  2 14 17 59 59.9990000  0  6 18 14 15 22 25 29
  23887250.112     -400961.462 5   -202593.732 5
  20150090.776    -8449264.008 8  -6506675.555 9
  22926682.097     8255825.701 6   6382126.706 6
  21631855.034   -11581236.311 7  -8909141.957 9
  22425196.292     7058985.236 7   5464063.114 9
  21574537.214    -8233536.662 7  -6337685.758 9
 94  2 14 18  0 29.9990000  0  6 18 14 15 22 25 29
  23869810.425     -492601.962 4   -274001.846 5
  20141932.440    -8492136.769 8  -6540082.879 9
  22942325.761     8338034.695 6   6446185.516 6
  21618203.167   -11652979.378 7  -8965045.560 9
  22438749.003     7130203.697 7   5519557.946 9
  21563213.019    -8293047.210 7  -6384057.573 9
 94  2 14 18  0 59.9990000  0  6 18 14 15 22 25 29
  23852384.511     -584172.587 3   -345355.471 5
  20133877.519    -8534464.817 8  -6573065.743 9
  22958008.597     8420449.475 6   6510404.647 6
  21604647.011   -11724217.725 7  -9020555.882 9
  22452339.300     7201619.969 7   5575206.914 9
  21551919.378    -8352394.810 7  -6430302.420 9
 94  2 14 18  1 29.9990000  0  6 18 14 15 22 25 29
  23834977.565     -675650.937 3   -416637.193 4
  20125924.854    -8576256.466 8  -6605630.638 9
  22973732.737     8503079.701 6   6574791.689 6
  21591189.722   -11794936.531 7  -9075661.395 9
  22465969.300     7273248.666 7   5631021.415 9
  21540659.058    -8411567.747 7  -6476411.158 9
 94  2 14 18  1 59.9990000  0  6 18 14 15 22 25 29
  23817583.987     -767045.439 3   -487853.602 4
  20118070.620    -8617532.508 8  -6637793.752 9
  22989496.581     8585912.551 6   6639336.581 6
  21577831.128   -11865136.547 7  -9130362.643 9
  22479638.987     7345081.865 7   5686995.268 9
  21529429.167    -8470582.648 7  -6522396.759 9
 94  2 14 18  2 29.9990000  0  6 18 14 15 22 25 29
  23800207.722     -858366.568 3   -559012.818 4
  20110312.347    -8658301.579 8  -6669561.832 9
  23005294.909     8668933.989 6   6704028.425 6
  21564567.089   -11934835.579 7  -9184673.545 9
  22493349.253     7417126.395 7   5743133.793 9
  21518224.979    -8529461.337 7  -6568276.227 9
 94  2 14 18  2 59.9990000  0  6 18 14 15 22 25 29
  23782847.065     -949600.914 3   -630104.422 3
  20102655.198    -8698539.761 8  -6700916.234 9
  23021131.104     8752154.228 6   6768875.194 6
  21551402.198   -12004016.230 7  -9238580.515 9
  22507102.886     7489402.671 7   5799452.888 9
  21507047.597    -8588198.364 7  -6614045.302 9
 94  2 14 18  3 29.9990000  0  6 18 14 15 22 25 29
  23765506.339    -1040731.796 3   -701115.363 4
  20095101.933    -8738232.140 8  -6731845.328 9
  23037007.019     8835582.462 6   6833884.052 6
  21538338.940   -12072663.263 7  -9292071.677 9
  22520904.347     7561929.651 7   5855967.332 9
  21495902.362    -8646764.969 7  -6659681.583 9
 94  2 14 18  3 59.9990000  0  6 18 14 15 22 25 29
  23748187.269    -1131739.586 3   -772030.442 4
  20087656.315    -8777358.442 8  -6762333.341 9
  23052924.089     8919224.301 6   6899059.357 6
  21525377.698   -12140776.346 7  -9345146.808 9
  22534753.776     7634708.896 7   5912678.359 9
  21484792.167    -8705151.019 7  -6705177.174 9
 94  2 14 18  4 29.9990000  0  6 18 14 15 22 25 29
  23730893.175    -1222620.946 4   -842847.009 5
  20080320.292    -8815909.098 8  -6792372.793 9
  23068881.503     9003079.761 6   6964401.109 6
  21512518.550   -12208356.268 7  -9397806.466 9
  22548650.464     7707735.560 7   5969582.168 8
  21473719.073    -8763342.448 7  -6750521.116 9
 94  2 14 18  4 59.9990000  0  6 18 14 15 22 25 29
  23713622.917    -1313370.698 4   -913561.046 4
  20073094.440    -8853881.707 8  -6821961.823 9
  23084879.550     9087152.220 6   7029911.939 6
  21499762.448   -12275386.584 7  -9450037.876 9
  22562592.042     7780999.597 7   6026670.960 8
  21462684.854    -8821325.873 7  -6795702.976 9
 94  2 14 18  5 29.9990000  0  6 18 14 15 22 25 29
  23696379.065    -1403987.900 5   -984171.794 5
  20065974.808    -8891296.168 8  -6851115.934 9
  23100917.472     9171431.704 6   7095584.089 6
  21487111.206   -12341873.008 7  -9501845.457 9
  22576574.487     7854478.796 7   6083927.416 8
  21451691.378    -8879097.046 7  -6840719.445 9
 94  2 14 18  5 59.9990000  0  6 18 14 15 22 25 29
  23679159.894    -1494477.105 5  -1054682.802 4
  20058963.722    -8928138.095 8  -6879823.917 9
  23116994.519     9255913.585 6   7161413.954 6
  21474564.526   -12407804.959 7  -9553220.971 9
  22590596.050     7928162.993 7   6141343.617 8
  21440735.964    -8936668.346 7  -6885580.162 9
 94  2 14 18  6 29.9990000  0  6 18 14 15 22 25 29
  23661963.589    -1584842.319 5  -1125097.197 4
  20052065.558    -8964390.041 8  -6908072.174 9
  23133110.417     9340605.404 6   7227407.396 6
  21462128.073   -12473155.690 7  -9604143.621 9
  22604662.190     8002079.533 7   6198940.868 8
  21429822.253    -8994018.697 7  -6930268.729 9
 94  2 14 18  6 59.9990000  0  6 18 14 15 22 25 29
  23644793.862    -1675074.074 5  -1195407.575 5
  20045280.308    -9000046.942 8  -6935856.767 9
  23149266.425     9425503.946 6   7293561.922 6
  21449805.487   -12537915.112 7  -9654605.495 9
  22618773.526     8076234.481 7   6256723.892 8
  21418952.011    -9051142.809 7  -6974780.998 9
 94  2 14 18  7 29.9990000  0  6 18 14 15 22 25 29
  23627649.003    -1765171.363 5  -1265613.161 5
  20038609.487    -9035102.072 8  -6963172.448 9
  23165459.472     9510600.552 6   7359870.786 6
  21437592.472   -12602092.655 7  -9704613.949 9
  22632929.573     8150625.343 7   6314690.744 8
  21408125.269    -9108039.100 7  -7019115.748 9
 94  2 14 18  7 59.9990000  0  6 18 14 15 22 25 29
  23610528.604    -1855137.319 5  -1335716.386 4
  20032058.362    -9069528.711 8  -6989998.397 9
  23181691.808     9595895.599 6   7426334.271 6
  21425492.644   -12665677.869 7  -9754160.880 9
  22647134.800     8225273.351 7   6372857.974 8
  21397341.862    -9164705.470 7  -7063271.345 9
 94  2 14 18  8 29.9990000  0  6 18 14 15 22 25 29
  23593432.331    -1944978.108 5  -1405722.095 5
  20025625.979    -9103330.994 8  -7016337.836 9
  23197960.354     9681388.569 6   7492951.990 6
  21413506.870   -12728667.242 7  -9803243.482 9
  22661389.604     8300183.793 6   6431229.696 8
  21386600.644    -9221150.988 7  -7107254.849 9
 94  2 14 18  8 59.9990000  0  6 18 14 15 22 25 29
  23576360.972    -2034686.927 5  -1475624.946 4
  20019311.253    -9136514.921 8  -7042195.438 9
  23214266.933     9767081.095 5   7559725.175 5
  21401632.550   -12791061.775 7  -9851862.592 9
  22675692.042     8375344.205 6   6489796.208 8
  21375899.269    -9277386.735 7  -7151074.901 9
 94  2 14 18  9 29.9990000  0  6 18 14 15 22 25 29
  23559315.636    -2124263.616 5  -1545424.898 5
  20013113.722    -9169083.056 8  -7067573.201 9
  23230611.690     9852972.317 5   7626653.225 5
  21389874.769   -12852853.847 7  -9900012.229 9
  22690041.003     8450746.310 6   6548551.053 8
  21365235.808    -9333422.891 7  -7194739.417 9
 94  2 14 18  9 59.9990000  0  6 18 14 15 22 25 29
  23542292.065    -2213724.326 5  -1615134.433 5
  20007031.300    -9201046.457 8  -7092479.739 9
  23246993.933     9939059.177 5   7693733.737 5
  21378230.526   -12914044.743 7  -9947693.402 9
  22704434.019     8526381.508 7   6607487.542 8
  21354608.097    -9389272.356 7  -7238258.466 9
 94  2 14 18 10 29.9990000  0  6 18 14 15 22 25 29
  23525291.894    -2303058.164 5  -1684745.151 5
  20001062.214    -9232413.235 8  -7116921.373 9
  23263414.628    10025347.121 6   7760970.842 6
  21366700.675   -12974632.166 7  -9994904.331 9
  22718869.745     8602242.887 6   6666600.268 8
  21344015.722    -9444935.446 7  -7281632.286 9
 94  2 14 18 10 59.9990000  0  6 18 14 15 22 25 29
  23508320.667    -2392242.811 5  -1754239.585 5
  19995210.261    -9263165.729 8  -7140884.349 9
  23279873.315    10111839.572 6   7828367.383 6
  21355288.003   -13034607.076 7 -10041637.969 9
  22733350.120     8678336.985 6   6725894.326 8
  21333463.081    -9500389.484 7  -7324843.205 9
 94  2 14 18 11 29.9990000  0  6 18 14 15 22 25 29
  23491377.659    -2481278.297 5  -1823617.833 5
  19989476.229    -9293297.929 8  -7164363.972 9
  23296369.472    10198530.595 5   7895918.642 5
  21343992.979   -13093961.904 7 -10087888.402 9
  22747875.198     8754666.329 6   6785371.686 8
  21322949.581    -9555640.044 7  -7367895.567 9
 94  2 14 18 11 59.9990000  0  6 18 14 15 22 25 29
  23474461.237    -2570174.351 5  -1892887.366 5
  19983863.128    -9322795.863 8  -7187349.366 9
  23312904.690    10285420.242 5   7963624.666 6
  21332815.651   -13152698.557 7 -10133657.138 9
  22762448.620     8831250.718 6   6845047.777 7
  21312474.948    -9610683.522 7  -7410786.561 9
 94  2 14 18 12 29.9990000  0  6 18 14 15 22 25 29
  23457572.354    -2658922.687 5  -1962041.831 5
  19978372.487    -9351649.007 8  -7209832.329 9
  23329476.190    10372503.741 5   8031481.736 6
  21321758.292   -13210805.872 7 -10178935.469 9
  22777069.440     8908083.207 6   6904917.187 8
  21302041.979    -9665507.062 7  -7453506.163 9
 94  2 14 18 12 59.9990000  0  6 18 14 15 22 25 29
  23440713.456    -2747517.749 5  -2031076.860 5
  19973005.792    -9379850.405 8  -7231807.441 9
  23346086.706    10459788.762 5   8099495.840 5
  21310822.089   -13268273.582 7 -10223715.398 9
  22791739.065     8985171.124 6   6964985.615 8
  21291656.104    -9720088.654 7  -7496037.233 9
 94  2 14 18 13 29.9990000  0  6 18 14 15 22 25 29
  23423877.964    -2835989.907 5  -2100016.072 5
  19967757.995    -9407428.155 8  -7253296.586 9
  23362730.917    10547257.639 5   8167653.225 6
  21300004.081   -13325121.469 7 -10268012.350 9
  22806452.362     9062489.894 6   7025233.926 8
  21281312.065    -9774445.670 7  -7538393.308 9
 94  2 14 18 13 59.9990000  0  6 18 14 15 22 25 29
  23407066.120    -2924333.657 5  -2168855.210 5
  19962630.870    -9434372.227 8  -7274291.958 9
  23379410.776    10634913.408 5   8235956.205 5
  21289304.378   -13381347.451 7 -10311824.688 9
  22821209.511     9140038.767 6   7085661.532 8
  21271014.956    -9828557.652 7  -7580558.449 9
 94  2 14 18 14 29.9990000  0  6 18 14 15 22 25 29
  23390283.565    -3012526.024 5  -2237576.394 5
  19957623.308    -9460687.269 8  -7294797.172 9
  23396127.167    10722757.045 5   8304405.611 5
  21278725.917   -13436937.389 7 -10355141.406 9
  22836006.729     9217802.188 6   7146256.305 7
  21260766.440    -9882413.701 7  -7622524.158 9
 94  2 14 18 14 59.9990000  0  6 18 14 15 22 25 29
  23373530.589    -3100564.899 5  -2306177.993 5
  19952733.495    -9486383.590 8  -7314820.266 9
  23412877.722    10810780.740 5   8372995.325 5
  21268267.667   -13491897.472 7 -10397967.331 9
  22850847.479     9295789.393 6   7207025.457 7
  21250563.440    -9936030.086 7  -7664303.117 9
 94  2 14 18 15 29.9990000  0  6 18 14 15 22 25 29
  23356810.034    -3188430.286 5  -2374644.391 5
  19947966.019    -9511437.608 8  -7334342.866 9
  23429663.175    10898983.676 5   8441724.661 6
  21257930.167   -13546221.554 7 -10440297.681 9
  22865730.894     9374000.289 6   7267968.916 8
  21240407.042    -9989402.634 7  -7705892.079 9
 94  2 14 18 15 59.9990000  0  6 18 14 15 22 25 29
  23340126.604    -3276101.631 5  -2442959.608 5
  19943324.519    -9535828.458 8  -7353348.712 9
  23446481.870    10987370.239 5   8510597.075 6
  21247715.315   -13599899.194 7 -10482124.321 9
  22880658.472     9452444.031 6   7329093.805 7
  21230299.433   -10042519.323 7  -7747281.674 9
 94  2 14 18 16 29.9990000  0  6 18 14 15 22 25 29
  23323479.956    -3363581.761 5  -2511125.819 5
  19938806.487    -9559569.767 8  -7371848.417 9
  23463334.581    11075929.286 5   8579603.928 5
  21237622.058   -13652938.876 7 -10523453.812 8
  22895628.706     9531112.794 6   7390394.030 7
  21220238.042   -10095391.124 7  -7788480.469 9
 94  2 14 18 16 59.9990000  0  6 18 14 15 22 25 29
  23306864.261    -3450896.936 5  -2579163.498 5
  19934412.315    -9582661.377 8  -7389841.865 9
  23480217.823    11164651.000 5   8648737.523 5
  21227646.769   -13705357.777 7 -10564299.667 9
  22910642.105     9610007.289 6   7451870.164 7
  21210221.417   -10148027.744 7  -7829495.975 9
 94  2 14 18 17 29.9990000  0  6 18 14 15 22 25 29
  23290278.464    -3538054.868 5  -2647078.691 5
  19930142.573    -9605100.124 8  -7407326.592 9
  23497132.761    11253536.627 5   8717998.832 6
  21217791.495   -13757148.530 7 -10604656.015 9
  22925696.894     9689121.449 6   7513517.465 7
  21200253.050   -10200412.054 7  -7870314.895 9
 94  2 14 18 17 59.9990000  0  6 18 14 15 22 25 29
  23273720.417    -3625071.343 5  -2714883.669 5
  19925994.854    -9626896.793 8  -7424311.000 9
  23514077.573    11342583.564 5   8787385.830 5
  21208059.065   -13808293.623 7 -10644509.259 9
  22940796.675     9768472.591 6   7575349.415 7
  21190330.058   -10252557.279 7  -7910947.503 9
 94  2 14 18 18 29.9990000  0  6 18 14 15 22 25 29
  23257184.698    -3711963.322 5  -2782591.618 5
  19921966.933    -9648063.001 8  -7440804.138 9
  23531050.878    11431780.671 5   8856889.877 5
  21198446.698   -13858805.044 7 -10683868.748 9
  22955940.112     9848051.242 6   7637358.675 7
  21180451.581   -10304468.885 7  -7951398.075 9
 94  2 14 18 18 59.9990000  0  6 18 14 15 22 25 29
  23240673.425    -3798728.955 5  -2850201.170 5
  19918061.019    -9668588.431 8  -7456797.976 9
  23548054.370    11521132.325 5   8926514.334 5
  21188958.620   -13908665.717 7 -10722721.153 9
  22971128.081     9927862.090 6   7699548.874 7
  21170620.042   -10356135.313 7  -7991657.599 9
 94  2 14 18 19 29.9990000  0  6 18 14 15 22 25 29
  23224190.519    -3885350.711 5  -2917698.584 5
  19914277.979    -9688469.313 8  -7472289.571 9
  23565086.464    11610634.493 5   8996256.073 5
  21179595.050   -13957874.198 7 -10761065.372 9
  22986359.167    10007899.660 6   7761915.728 7
  21160834.644   -10407556.425 7  -8031725.972 9
 94  2 14 18 19 59.9990000  0  6 18 14 15 22 25 29
  23207734.901    -3971827.948 5  -2985083.381 5
  19910618.034    -9707702.159 8  -7487276.201 9
  23582144.581    11700277.531 5   9066107.592 5
  21170352.464   -14006444.612 7 -10798912.390 9
  23001629.698    10088149.744 6   7824448.180 7
  21151092.995   -10458748.402 7  -8071615.799 9
 94  2 14 18 20 29.9990000  0  6 18 14 15 22 25 29
  23191307.784    -4058151.085 5  -3052348.123 5
  19907082.448    -9726281.464 8  -7501753.577 9
  23599230.480    11790062.707 5   9136069.859 5
  21161230.550   -14054381.164 7 -10836265.497 9
  23016937.472    10168591.778 6   7887130.211 7
  21141399.730   -10509688.309 7  -8111309.208 9
 94  2 14 18 20 59.9990000  0  6 18 14 15 22 25 29
  23174911.136    -4144311.249 5  -3119485.846 6
  19903671.698    -9744203.934 8  -7515719.136 9
  23616342.026    11879987.960 4   9206141.288 5
  21152232.081   -14101666.241 7 -10873110.960 9
  23032281.714    10249228.189 6   7949963.694 7
  21131750.886   -10560392.879 7  -8150819.227 9
 94  2 14 18 21 29.9990000  0  6 18 14 15 22 25 29
  23158545.245    -4230316.338 5  -3186502.740 5
  19900386.917    -9761466.787 8  -7529170.707 9
  23633480.479    11970045.883 4   9276316.079 5
  21143357.909   -14148299.402 7 -10909448.429 9
  23047662.597    10330051.551 6   8012942.853 7
  21122143.964   -10610876.529 7  -8190157.106 9
 94  2 14 18 21 59.9990000  0  6 18 14 15 22 25 29
  23142204.081    -4316189.035 5  -3253416.456 5
  19897224.878    -9778084.101 8  -7542119.265 9
  23650642.284    12060229.263 5   9346588.608 5
  21134610.034   -14194270.442 7 -10945269.950 9
  23063074.800    10411042.153 6   8076052.324 7
  21112578.175   -10661146.967 7  -8229328.839 9
 94  2 14 18 22 29.9990000  0  6 18 14 15 22 25 29
  23125887.769    -4401930.519 5  -3320227.925 6
  19894186.370    -9794050.621 8  -7554560.709 9
  23667826.956    12150536.594 5   9416957.759 5
  21125988.995   -14239572.215 7 -10980569.964 9
  23078519.815    10492205.225 6   8139296.193 7
  21103053.214   -10711199.242 7  -8268330.577 9
 94  2 14 18 22 59.9990000  0  6 18 14 15 22 25 29
  23109598.206    -4487536.535 5  -3386933.828 6
  19891271.933    -9809365.982 8  -7566494.756 9
  23685035.120    12240964.560 5   9487420.892 5
  21117495.464   -14284202.967 7 -11015347.099 9
  23093998.620    10573547.324 6   8202679.559 7
  21093566.980   -10761050.458 7  -8307175.642 9
 94  2 14 18 23 29.9990000  0  6 18 14 15 22 25 29
  23093331.792    -4573014.406 5  -3453539.849 6
  19888481.800    -9824028.315 8  -7577919.950 9
  23702264.019    12331502.500 5   9557969.746 5
  21109128.464   -14328173.597 7 -11049609.860 9
  23109508.761    10655052.347 6   8266189.876 7
  21084121.714   -10810686.379 7  -8345852.961 9
 94  2 14 18 23 59.9990000  0  6 18 14 15 22 25 29
  23077091.284    -4658357.409 5  -3520040.793 5
  19885813.714    -9838049.727 8  -7588845.727 9
  23719511.253    12422136.191 5   9628593.219 5
  21100885.120   -14371492.324 7 -11083364.639 9
  23125048.948    10736717.385 6   8329824.869 7
  21074716.933   -10860109.280 7  -8384364.291 9
 94  2 14 18 24 29.9990000  0  6 18 14 15 22 25 29
  23060882.167    -4743539.911 5  -3586416.643 5
  19883271.784    -9851407.588 8  -7599254.452 9
  23736778.339    12512872.259 5   9699296.459 5
  21092767.815   -14414151.673 7 -11116605.621 9
  23140625.831    10818576.616 6   8393611.183 7
  21065355.808   -10909300.084 7  -8422694.760 9
 94  2 14 18 24 59.9990000  0  6 18 14 15 22 25 29
  23044702.737    -4828559.135 5  -3652665.264 5
  19880854.784    -9864108.873 8  -7609151.558 9
  23754064.565    12603709.962 5   9770078.886 5
  21084777.065   -14456143.485 7 -11149326.443 9
  23156241.612    10900632.995 6   8457551.130 7
  21056041.198   -10958249.220 7  -8460836.916 9
 94  2 14 18 25 29.9990000  0  6 18 14 15 22 25 29
  23028553.370    -4913423.613 5  -3718793.334 5
  19878562.659    -9876153.740 8  -7618537.171 9
  23771369.503    12694644.903 5   9840937.086 5
  21076913.511   -14497466.153 7 -11181525.865 9
  23171892.073    10982879.089 6   8521638.909 7
  21046773.979   -11006948.431 7  -8498784.324 9
 94  2 14 18 25 59.9990000  0  6 18 14 15 22 25 29
  23012433.362    -4998134.769 5  -3784801.933 5
  19876393.659    -9887552.845 8  -7627419.591 9
  23788690.925    12785675.232 5   9911869.616 5
  21069178.198   -14538117.140 7 -11213201.892 9
  23187580.526    11065319.534 6   8585878.126 7
  21037553.456   -11055403.385 7  -8536541.406 9
 94  2 14 18 26 29.9990000  0  6 18 14 15 22 25 29
  22996340.308    -5082705.553 5  -3850701.168 6
  19874346.956    -9898309.080 8  -7635801.073 9
  23806032.370    12876800.413 5   9982876.031 5
  21061568.511   -14578105.546 8 -11244361.630 9
  23203304.339    11147950.190 6   8650265.568 7
  21028380.261   -11103608.865 7  -8574104.110 9
 94  2 14 18 26 59.9990000  0  6 18 14 15 22 25 29
  22980272.519    -5167138.028 5  -3916492.622 5
  19872420.972    -9908430.076 8  -7643687.565 9
  23823391.542    12968021.327 5  10053957.088 5
  21054084.378   -14617431.615 7 -11275005.264 9
  23219060.761    11230751.691 6   8714786.117 7
  21019253.144   -11151570.660 7  -8611476.923 9
 94  2 14 18 27 29.9990000  0  6 18 14 15 22 25 29
  22964232.487    -5251429.252 5  -3982174.026 5
  19870618.714    -9917900.595 8  -7651067.192 9
  23840770.448    13059345.729 5  10125118.754 5
  21046729.323   -14656083.450 7 -11305123.521 9
  23234851.995    11313733.434 6   8779447.128 7
  21010173.605   -11199283.877 7  -8648656.028 9
 94  2 14 18 27 59.9990000  0  6 18 14 15 22 25 29
  22948217.214    -5335591.099 5  -4047754.634 6
  19868936.175    -9926742.462 8  -7657956.958 9
  23858164.394    13150753.550 5  10196345.422 5
  21039496.831   -14694088.676 7 -11334737.928 9
  23250676.019    11396888.781 6   8844243.411 7
  21001138.651   -11246763.883 7  -8685653.408 9
 94  2 14 18 28 29.9990000  0  6 18 14 15 22 25 29
  22932224.479    -5419640.724 5  -4113247.796 6
  19867371.136    -9934966.958 8  -7664365.663 9
  23875571.823    13242227.004 5  10267623.238 5
  21032383.972   -14731467.381 7 -11363864.137 9
  23266528.175    11480196.123 6   8909158.135 6
  20992144.362   -11294029.448 7  -8722483.692 9
 94  2 14 18 28 59.9990000  0  6 18 14 15 22 25 29
  22916250.722    -5503577.263 5  -4178652.849 6
  19865924.081    -9942571.215 8  -7670291.060 9
  23892990.151    13333761.837 5  10338948.873 5
  21025392.323   -14768207.426 7 -11392492.683 9
  23282407.175    11563641.084 6   8974180.102 6
  20983190.151   -11341083.926 7  -8759149.495 9
 94  2 14 18 29 29.9990000  0  6 18 14 15 22 25 29
  22900301.558    -5587389.463 5  -4243961.024 6
  19864597.604    -9949541.939 8  -7675722.798 9
  23910421.378    13425357.744 5  10410322.134 5
  21018524.651   -14804300.668 7 -11420617.239 9
  23298314.456    11647234.721 6   9039317.907 6
  20974278.808   -11387914.369 7  -8795640.745 9
 94  2 14 18 29 59.9990000  0  6 18 14 15 22 25 29
  22884379.417    -5671067.135 6  -4309164.366 6
  19863392.245    -9955875.735 8  -7680658.234 9
  23927861.714    13517009.426 5  10481738.811 5
  21011778.729   -14839751.677 8 -11448241.353 9
  23314249.058    11730968.212 6   9104564.702 6
  20965409.956   -11434519.552 7  -8831956.454 9
 94  2 14 18 30 29.9990000  0  6 18 14 15 22 25 29
  22868492.237    -5754552.502 6  -4374217.871 6
  19862322.472    -9961497.934 8  -7685039.176 9
  23945322.948    13608771.254 5  10553241.341 5
  21005168.917   -14874484.153 8 -11475305.585 9
  23330217.612    11814883.002 6   9169952.775 6
  20956595.339   -11480839.600 7  -8868049.986 9
 94  2 14 18 30 59.9990000  0  6 18 14 15 22 25 29
  22852631.261    -5837900.677 6  -4439164.479 6
  19861377.136    -9966465.802 8  -7688910.249 9
  23962793.323    13700574.355 5  10624776.013 3
  20998686.128   -14908551.055 7 -11501851.194 9
  23346208.737    11898915.973 6   9235432.923 6
  20947823.558   -11526936.630 7  -8903969.729 9
 94  2 14 18 31 29.9990000  0  6 18 14 15 22 25 29
  22836795.737    -5921115.722 6  -4504007.338 6
  19860554.136    -9970790.107 8  -7692279.852 9
  23980267.073    13792404.210 4  10696331.556 5
  20992326.151   -14941973.464 7 -11527894.603 9
  23362222.401    11983068.918 6   9301006.554 6
  20939090.636   -11572827.569 7  -8939728.882 9
 94  2 14 18 31 59.9990000  0  5 18 14 22 25 29
  22820989.120    -6004180.294 5  -4568732.950 6
  19859857.440    -9974451.886 8  -7695133.204 9
  20986092.401   -14974731.347 7 -11553420.212 9
  23378261.472    12067353.902 6   9366683.075 6
  20930400.659   -11618494.136 7  -8975313.202 9
 94  2 14 18 32 29.9990000  0  5 18 14 22 25 29
  22805212.956    -6087082.221 5  -4633331.839 6
  19859286.854    -9977450.692 8  -7697469.948 9
  20979987.862   -15006809.343 7 -11578416.062 9
  23394328.597    12151785.250 6   9432473.645 6
  20921754.448   -11663931.543 8  -9010718.957 9
 94  2 14 18 32 59.9990000  0  5 18 14 22 25 29
  22789465.987    -6169833.418 5  -4697813.258 6
  19858838.683    -9979805.433 8  -7699304.828 9
  20974009.534   -15038225.225 7 -11602895.979 9
  23410424.604    12236369.100 6   9498383.044 6
  20913147.198   -11709161.875 7  -9045963.361 9
 94  2 14 18 33 29.9990000  0  5 18 14 22 25 29
  22773746.792    -6252435.273 5  -4762178.289 5
  19858514.300    -9981509.455 8  -7700632.656 9
  20968159.862   -15068968.400 7 -11626851.712 9
  23426550.362    12321114.468 6   9564418.290 6
  20904581.917   -11754172.182 7  -9081036.310 9
 94  2 14 18 33 59.9990000  0  5 18 14 22 25 29
  22758055.831    -6334897.859 5  -4826434.773 5
  19858314.190    -9982561.518 8  -7701452.461 9
  20962439.331   -15099027.237 7 -11650274.195 9
  23442705.651    12406010.413 6   9630570.859 6
  20896058.550   -11798963.377 7  -9115938.516 9
 94  2 14 18 34 29.9990000  0  5 18 14 22 25 29
  22742384.058    -6417248.491 5  -4890604.045 5
  19858235.175    -9982977.302 8  -7701776.466 9
  20956845.667   -15128423.627 7 -11673180.487 9
  23458885.815    12491032.141 6   9696821.410 6
  20887569.815   -11843570.305 7  -9150697.142 9
 94  2 14 18 34 59.9990000  0  5 18 14 22 25 29
  22726729.737    -6499514.380 5  -4954707.297 5
  19858274.995    -9982768.427 8  -7701613.727 9
  20951373.073   -15157182.297 8 -11695589.854 9
  23475083.144    12576148.379 6   9763145.625 6
  20879113.753   -11888008.324 7  -9185324.155 9
 94  2 14 18 35 29.9990000  0  5 18 14 22 25 29
  22711093.909    -6581679.966 5  -5018732.356 5
  19858434.097    -9981932.905 8  -7700962.683 9
  20946022.573   -15185301.492 8 -11717500.927 9
  23491295.276    12661347.658 6   9829534.533 6
  20870692.323   -11932264.193 7  -9219809.224 9
 94  2 14 18 35 59.9990000  0  5 18 14 22 25 29
  22695484.589    -6663707.795 5  -5082650.098 6
  19858716.331    -9980449.505 8  -7699806.800 9
  20940795.261   -15212771.237 8 -11738905.928 9
  23507528.870    12746652.746 6   9896005.886 6
  20862308.581   -11976319.302 7  -9254137.852 9
 94  2 14 18 36 29.9990000  0  5 18 14 22 25 29
  22679899.237    -6745613.321 6  -5146472.538 6
  19859117.183    -9978343.685 8  -7698165.908 9
  20935686.706   -15239615.627 7 -11759823.637 9
  23523778.644    12832047.784 6   9962547.312 6
  20853963.050   -12020176.250 7  -9288312.073 9
 94  2 14 18 36 59.9990000  0  5 18 14 22 25 29
  22664330.683    -6827424.019 6  -5210221.073 6
  19859629.120    -9975652.490 8  -7696068.883 9
  20930691.855   -15265862.783 7 -11780275.960 9
  23540041.034    12917508.239 6  10029139.731 6
  20845653.097   -12063845.134 7  -9322339.753 9
 94  2 14 18 37 29.9980000  0  5 18 14 22 25 29
  22648780.256    -6909141.501 6  -5273896.983 6
  19860251.514    -9972381.855 8  -7693520.339 9
  20925812.514   -15291504.639 7 -11800256.609 9
  23556316.646    13003031.911 6  10095781.421 6
  20837378.607   -12107328.616 7  -9356222.972 9
 94  2 14 18 37 59.9980000  0  5 18 14 22 25 29
  22633247.365    -6990770.188 6  -5337503.708 7
  19860988.068    -9968511.118 8  -7690504.186 9
  20921055.225   -15316503.932 7 -11819736.550 9
  23572607.772    13088644.675 5  10162492.504 6
  20829144.975   -12150596.264 7  -9389938.019 9
 94  2 14 18 38 29.9980000  0  5 18 14 22 25 29
  22617729.303    -7072313.804 6  -5401044.147 6
  19861840.318    -9964032.660 8  -7687014.477 9
  20916425.131   -15340835.533 7 -11838696.204 9
  23588914.537    13174335.395 6  10229264.317 6
  20820956.107   -12193629.498 7  -9423470.400 9
 94  2 14 18 38 59.9980000  0  5 18 14 22 25 29
  22602232.146    -7153751.490 6  -5464502.023 7
  19862812.201    -9958925.076 8  -7683034.537 9
  20911927.014   -15364472.940 8 -11857114.920 9
  23605238.381    13260119.824 6  10296109.211 6
  20812811.396   -12236428.726 7  -9456820.429 9
 94  2 14 18 39 29.9980000  0  5 18 14 22 25 29
  22586758.545    -7235067.570 6  -5527865.155 6
  19863903.342    -9953191.610 8  -7678566.895 9
  20907563.951   -15387402.350 8 -11874981.940 9
  23621583.232    13346008.904 6  10363035.658 6
  20804711.748   -12278993.015 7  -9489987.394 9
 94  2 14 18 39 59.9980000  0  5 18 14 22 25 29
  22571310.412    -7316246.736 6  -5591121.591 6
  19865114.936    -9946824.816 8  -7673605.754 9
  20903332.725   -15409636.084 8 -11892306.882 9
  23637946.842    13431999.226 6  10430040.980 6
  20796657.232   -12321320.562 7  -9522969.884 9
 94  2 14 18 40 29.9980000  0  5 18 14 22 25 29
  22555891.693    -7397273.488 6  -5654259.257 6
  19866446.951    -9939823.958 8  -7668150.534 9
  20899230.404   -15431193.576 8 -11909104.880 9
  23654329.412    13518094.875 5  10497128.381 6
  20788642.584   -12363436.955 7  -9555787.844 9
 94  2 14 18 40 59.9980000  0  5 18 14 22 25 29
  22540506.475    -7478123.823 6  -5717259.459 6
  19867902.998    -9932173.732 8  -7662189.318 9
  20895257.811   -15452070.449 8 -11925372.527 9
  23670738.811    13604327.085 5  10564322.228 6
  20780669.154   -12405337.464 7  -9588437.575 9
 94  2 14 18 41 29.9980000  0  5 18 14 22 25 29
  22525154.662    -7558794.982 5  -5780120.046 6
  19869485.443    -9923858.205 8  -7655709.683 9
  20891413.803   -15472269.938 8 -11941112.349 9
  23687175.396    13690697.594 5  10631623.859 6
  20772742.545   -12446992.838 7  -9620896.288 9
 94  2 14 18 41 59.9980000  0  5 18 14 22 25 29
  22509834.092    -7639307.040 5  -5842856.661 6
  19871197.920    -9914858.374 8  -7648696.833 9
  20887697.779   -15491799.606 8 -11956330.227 9
  23703636.154    13777198.752 5  10699027.272 6
  20764860.717   -12488410.704 7  -9653169.924 9
 94  2 14 18 42 29.9980000  0  5 18 14 22 25 29
  22494539.998    -7719677.500 6  -5905482.946 6
  19873039.850    -9905178.811 8  -7641154.319 9
  20884111.225   -15510646.505 8 -11971016.077 9
  23720123.912    13863844.503 5  10766543.381 6
  20757026.131   -12529582.463 7  -9685251.790 9
 94  2 14 18 42 59.9980000  0  5 18 14 22 25 29
  22479269.193    -7799923.940 6  -5968012.602 6
  19875009.279    -9894829.506 8  -7633089.937 9
  20880654.389   -15528812.761 8 -11985171.561 9
  23736636.467    13950617.164 5  10834158.371 6
  20749238.670   -12570506.515 7  -9717140.645 9
 94  2 14 18 43 29.9980000  0  4 18 14 22 29
  22464022.225    -7880050.009 6  -6030448.468 6
  19877105.678    -9883813.748 8  -7624506.240 9
  20877326.982   -15546297.532 8 -11998796.017 9
  20741497.498   -12611185.682 7  -9748838.680 9
 94  2 14 18 43 59.9980000  0  4 18 14 22 29
  22448797.232    -7960059.404 6  -6092793.429 6
  19879323.576    -9872158.101 8  -7615423.933 9
  20874126.022   -15563118.629 8 -12011903.325 9
  20733796.896   -12651652.544 7  -9780371.275 9
 94  2 14 18 44 29.9980000  0  4 18 14 22 29
  22433600.107    -8039917.627 6  -6155020.612 6
  19881662.022    -9859870.692 8  -7605849.345 9
  20871054.740   -15579257.362 8 -12024478.925 9
  20726141.600   -12691882.561 8  -9811719.318 9
 94  2 14 18 44 59.9980000  0  4 18 14 22 29
  22418430.795    -8119633.311 6  -6217136.715 7
  19884115.061    -9846979.516 8  -7595804.293 9
  20868106.303   -15594750.174 8 -12036551.217 9
  20718525.186   -12731906.373 7  -9842906.683 9
 94  2 14 18 45 29.9980000  0  5 18 14 19 22 29
  22403288.787    -8199207.345 6  -6279142.422 7
  19886685.232    -9833473.954 8  -7585280.501 9
  23835593.428      -53809.36115
  20865281.045   -15609596.853 8 -12048120.041 9
  20710950.389   -12771711.949 7  -9873924.000 9
 94  2 14 18 45 59.9980000  0  5 18 14 19 22 29
  22388170.998    -8278651.491 6  -6341046.934 7
  19889373.701    -9819344.328 8  -7574270.422 9
  23817553.412     -148613.500 5     -2457.92615
  20862578.647   -15623800.563 8 -12059187.843 9
  20703420.381   -12811282.996 8  -9904758.573 9
 94  2 14 18 46 29.9980000  0  5 18 14 19 22 29
  22373074.936    -8357980.953 6  -6402862.074 7
  19892181.068    -9804591.754 8  -7562774.930 9
  23799549.896     -243216.846 5    -76174.724 5
  20859999.396   -15637354.887 8 -12069749.645 9
  20695934.147   -12850622.335 7  -9935412.585 9
 94  2 14 18 46 59.9980000  0  5 18 14 19 22 29
  22357997.568    -8437212.880 6  -6464601.190 7
  19895109.193    -9789204.464 8  -7550784.852 9
  23781586.740     -337613.372 5   -149730.307 5
  20857542.170   -15650268.874 8 -12079812.482 9
  20688490.514   -12889739.791 7  -9965893.705 9
 94  2 14 18 47 29.9980000  0  5 18 14 19 22 29
  22342935.342    -8516363.828 6  -6526277.218 7
  19898158.717    -9773179.521 8  -7538297.904 9
  23763668.811     -431776.084 5   -223103.733 6
  20855208.772   -15662529.543 8 -12089366.245 9
  20681089.592   -12928632.538 8  -9996199.726 9
 94  2 14 18 47 59.9980000  0  5 18 14 19 22 29
  22327890.623    -8595425.651 6  -6587883.774 7
  19901324.498    -9756543.938 8  -7525335.122 9
  23745797.232     -525692.143 5   -296284.912 5
  20853000.584   -15674133.152 8 -12098408.011 9
  20673727.232   -12967322.771 8 -10026347.948 9
 94  2 14 18 48 29.9980000  0  5 18 14 19 22 29
  22312867.482    -8674370.133 6  -6649398.888 7
  19904606.795    -9739294.982 8  -7511894.389 9
  23727976.584     -619341.365 5   -369258.131 6
  20850921.373   -15685059.290 8 -12106921.871 9
  20666403.357   -13005808.192 8 -10056336.579 9
 94  2 14 18 48 59.9980000  0  5 18 14 19 22 29
  22297864.779    -8753208.200 6  -6710831.079 6
  19908004.295    -9721440.814 8  -7497982.054 9
  23710203.365     -712735.660 5   -442032.735 5
  20848967.053   -15695327.848 8 -12114923.330 9
  20659118.475   -13044090.488 8 -10086166.928 9
 94  2 14 18 49 29.9980000  0  5 18 14 19 22 29
  22282881.662    -8831947.078 6  -6772185.999 6
  19911513.201    -9703001.398 8  -7483613.688 9
  23692474.021     -805902.441 5   -514630.002 5
  20847135.475   -15704953.946 8 -12122424.166 9
  20651869.357   -13082186.664 8 -10115852.244 9
 94  2 14 18 49 59.9980000  0  5 18 14 19 22 29
  22267921.654    -8910562.195 6  -6833444.470 6
  19915134.795    -9683971.797 8  -7468785.436 9
  23674784.756     -898863.825 5   -587067.214 6
  20845425.201   -15713940.506 8 -12129426.660 9
  20644655.576   -13120094.844 8 -10145391.075 9
 94  2 14 18 50 29.9980000  0  5 18 14 19 22 29
  22252983.232    -8989062.336 6  -6894613.354 7
  19918871.318    -9664334.869 8  -7453483.937 9
  23657129.584     -991635.838 5   -659356.844 5
  20843834.529   -15722300.376 8 -12135940.818 9
  20637478.717   -13157808.502 8 -10174778.330 9
 94  2 14 18 50 59.9980000  0  5 18 14 19 22 29
  22238067.951    -9067444.878 6  -6955690.606 6
  19922723.506    -9644090.917 8  -7437709.433 9
  23639511.522    -1084218.041 5   -731498.619 5
  20842362.725   -15730036.560 8 -12141968.977 9
  20630339.131   -13195325.275 8 -10204012.171 9
 94  2 14 18 51 29.9980000  0  5 18 14 19 22 29
  22223176.146    -9145701.063 6  -7016669.406 7
  19926688.537    -9623255.811 8  -7421474.286 9
  23621928.021    -1176615.953 4   -803496.777 5
  20841009.475   -15737147.558 8 -12147509.977 9
  20623236.076   -13232654.416 8 -10233099.808 9
 94  2 14 18 51 59.9980000  0  5 18 14 19 22 29
  22208309.584    -9223824.727 6  -7077544.924 7
  19930764.162    -9601838.876 8  -7404785.765 9
  23604385.068    -1268810.967 5   -875336.784 5
  20839776.529   -15743625.335 8 -12152557.553 9
  20616167.326   -13269800.313 7 -10262044.652 9
 94  2 14 18 52 29.9980000  0  5 18 14 19 22 29
  22193467.787    -9301819.136 6  -7138319.728 7
  19934949.482    -9579843.697 8  -7387646.663 9
  23586881.787    -1360785.234 5   -947004.832 5
  20838666.506   -15749457.936 8 -12157102.399 9
  20609135.357   -13306754.101 8 -10290839.803 9
 94  2 14 18 52 59.9980000  0  5 18 14 19 22 29
  22178646.748    -9379705.867 6  -7199010.632 7
  19939241.647    -9557289.315 8  -7370071.815 9
  23569420.498    -1452543.830 5  -1018504.790 5
  20837678.443   -15754650.302 8 -12161148.359 9
  20602136.826   -13343531.538 8 -10319497.534 9
 94  2 14 18 53 29.9980000  0  5 18 14 19 22 29
  22163844.389    -9457492.612 6  -7259623.631 7
  19943642.396    -9534162.772 8  -7352051.132 9
  23552000.006    -1544085.710 5  -1089835.906 5
  20836813.318   -15759195.134 8 -12164689.748 9
  20595172.842   -13380126.926 8 -10348013.412 9
 94  2 14 18 53 59.9980000  0  5 18 14 19 22 29
  22149060.561    -9535180.305 6  -7320159.413 7
  19948158.576    -9510429.601 8  -7333557.747 9
  23534625.584    -1635392.640 5  -1160983.888 5
  20836074.342   -15763079.397 8 -12167716.410 9
  20588248.107   -13416516.937 7 -10376369.252 9
 94  2 14 18 54 29.9980000  0  5 18 14 19 22 29
  22134292.154    -9612787.108 6  -7380632.188 7
  19952792.514    -9486079.591 8  -7314583.710 9
  23517292.092    -1726479.610 5  -1231960.539 5
  20835455.178   -15766333.032 8 -12170251.679 9
  20581363.576   -13452695.500 8 -10404560.329 9
 94  2 14 18 54 59.9980000  0  5 18 14 19 22 29
  22119543.006    -9690293.465 6  -7441026.692 7
  19957548.029    -9461087.886 8  -7295109.653 9
  23500003.951    -1817324.712 5  -1302748.671 5
  20834956.772   -15768951.538 8 -12172292.047 9
  20574524.037   -13488636.945 8 -10432566.647 9
 94  2 14 18 55 29.9980000  0  5 18 14 19 22 29
  22104817.201    -9767679.368 6  -7501327.329 7
  19962423.990    -9435463.802 8  -7275142.835 9
  23482763.803    -1907928.753 5  -1373349.035 5
  20834579.021   -15770937.280 8 -12173839.354 9
  20567730.537   -13524338.135 8 -10460385.761 9
 94  2 14 18 55 59.9980000  0  5 18 14 19 22 29
  22090115.459    -9844936.181 6  -7561527.383 7
  19967416.318    -9409229.553 8  -7254700.560 9
  23465565.100    -1998296.088 5  -1443764.942 5
  20834320.717   -15772293.854 8 -12174896.406 9
  20560981.264   -13559804.314 7 -10488021.745 9
 94  2 14 18 56 29.9980000  0  5 18 14 19 22 29
  22075441.264    -9922050.606 6  -7621616.489 7
  19972523.154    -9382393.550 8  -7233789.391 9
  23448416.514    -2088418.568 5  -1513990.105 6
  20834185.334   -15773005.180 8 -12175450.669 9
  20554277.904   -13595030.225 7 -10515470.500 9
 94  2 14 18 56 59.9980000  0  5 18 14 19 22 29
  22060792.709    -9999030.722 6  -7681600.938 7
  19977738.756    -9354985.054 8  -7212432.123 9
  23431310.982    -2178307.386 5  -1584033.213 6
  20834177.061   -15773048.846 8 -12175484.688 9
  20547618.295   -13630028.646 8 -10542742.000 9
 94  2 14 18 57 29.9980000  0  5 18 14 19 22 29
  22046169.459   -10075875.955 6  -7741480.298 7
  19983062.482    -9327007.692 8  -7190631.587 9
  23414248.256    -2267975.497 5  -1653904.343 5
  20834296.928   -15772417.790 8 -12174992.939 9
  20541001.264   -13664800.811 8 -10569837.205 9
 94  2 14 18 57 59.9980000  0  5 18 14 19 22 29
  22031569.506   -10152598.405 6  -7801263.980 7
  19988497.936    -9298445.836 8  -7168375.608 9
  23397227.326    -2357420.949 5  -1723602.013 6
  20834544.951   -15771115.307 8 -12173978.014 9
  20534429.990   -13699334.064 7 -10596746.247 9
 94  2 14 18 58 29.9980000  0  5 18 14 19 22 29
  22016990.287   -10229211.846 6  -7860962.732 7
  19994045.615    -9269292.212 8  -7145658.508 9
  23380249.201    -2446644.610 5  -1793126.923 5
  20834919.021   -15769149.924 8 -12172446.546 9
  20527902.865   -13733634.244 7 -10623473.661 9
 94  2 14 18 58 59.9980000  0  5 18 14 19 22 29
  22002434.803   -10305701.862 6  -7920565.303 8
  19999708.896    -9239530.693 8  -7122467.728 9
  23363311.451    -2535648.131 5  -1862480.324 5
  20835418.170   -15766527.760 8 -12170403.301 9
  20521419.568   -13767704.035 8 -10650021.545 9
 94  2 14 18 59 29.9980000  0  5 18 14 19 22 29
  21987906.803   -10382047.703 6  -7980055.546 8
  20005493.451    -9209134.089 8  -7098782.076 9
  23346421.014    -2624414.335 5  -1931648.803 6
  20836041.451   -15763251.704 8 -12167850.530 9
  20514981.225   -13801536.850 8 -10676384.777 9
 94  2 14 18 59 59.9980000  0  5 18 14 19 22 29
  21973406.475   -10458246.510 6  -8039431.207 7
  20011401.373    -9178087.783 8  -7074590.163 9
  23329579.037    -2712918.905 5  -2000613.431 6
  20836792.232   -15759306.545 8 -12164776.378 9
  20508588.506   -13835132.299 8 -10702563.055 9
 94  2 14 19  0 29.9980000  0  5 18 14 19 22 29
  21958933.795   -10534302.003 6  -8098695.194 7
  20017431.701    -9146398.339 8  -7049897.103 9
  23312785.701    -2801165.297 5  -2069376.836 6
  20837670.029   -15754694.129 8 -12161182.291 9
  20502238.436   -13868500.846 7 -10728564.513 9
 94  2 14 19  0 59.9980000  0  5 18 14 19 22 29
  21944490.225   -10610202.428 6  -8157838.359 7
  20023585.178    -9114061.252 8  -7024699.390 9
  23296044.717    -2889140.101 5  -2137928.567 5
  20838675.967   -15749406.377 8 -12157061.965 9
  20495936.678   -13901616.979 7 -10754369.276 9
 94  2 14 19  1 29.9980000  0  5 18 14 19 22 29
  21930074.764   -10685956.688 6  -8216867.629 7
  20029858.982    -9081093.817 8  -6999010.499 9
  23279358.568    -2976825.370 5  -2206254.628 5
  20839810.256   -15743446.501 8 -12152417.902 9
  20489685.389   -13934469.081 8 -10779968.296 9
 94  2 14 19  1 59.9980000  0  5 18 14 19 22 29
  21915685.842   -10761571.570 6  -8275788.290 7
  20036250.803    -9047502.815 8  -6972835.703 9
  23262726.639    -3064226.734 5  -2274359.508 5
  20841070.576   -15736823.476 8 -12147257.108 9
  20483483.686   -13967058.260 8 -10805362.447 9
 94  2 14 19  2 29.9980000  0  5 18 14 19 22 29
  21901325.912   -10837030.921 6  -8334587.751 7
  20042759.209    -9013299.736 8  -6946183.974 9
  23246146.967    -3151354.573 5  -2342251.120 5
  20842455.826   -15729543.838 8 -12141584.663 9
  20477331.951   -13999385.422 7 -10830552.425 9
 94  2 14 19  2 59.9980000  0  5 18 14 19 22 29
  21886998.982   -10912322.084 6  -8393256.166 7
  20049383.420    -8978490.146 8  -6919059.635 9
  23229618.803    -3238203.784 5  -2409925.625 5
  20843964.951   -15721615.267 8 -12135406.551 9
  20471227.326   -14031465.375 7 -10855549.763 9
 94  2 14 19  3 29.9980000  0  5 18 14 19 22 29
  21872706.647   -10987426.448 6  -8451779.003 8
  20056127.139    -8943052.761 8  -6891446.107 9
  23213147.045    -3324765.058 5  -2477375.800 5
  20845599.850   -15713022.613 8 -12128710.966 9
  20465168.404   -14063305.802 8 -10880360.462 9
 94  2 14 19  3 59.9980000  0  5 18 14 19 22 29
  21858452.943   -11062331.228 6  -8510146.309 8
  20062994.146    -8906964.939 8  -6863325.744 9
  23196728.350    -3411046.494 5  -2544607.873 6
  20847365.068   -15703747.281 8 -12121483.413 9
  20459155.951   -14094900.880 7 -10904979.978 9
 94  2 14 19  4 29.9980000  0  5 18 14 19 22 29
  21844238.178   -11137031.949 7  -8568354.621 8
  20069982.006    -8870242.801 7  -6834711.103 9
  23180363.154    -3497043.631 5  -2611618.423 6
  20849259.951   -15693788.417 8 -12113723.230 9
  20453192.162   -14126240.314 7 -10929400.282 9
 94  2 14 19  4 59.9980000  0  5 18 14 19 22 29
  21830062.365   -11211525.065 7  -8626401.143 8
  20077093.522    -8832871.581 7  -6805590.688 9
  23164055.701    -3582740.980 6  -2678395.380 6
  20851287.186   -15683133.961 8 -12105421.014 9
  20447281.975   -14157297.757 7 -10953600.848 9
 94  2 14 19  5 29.9980000  0  5 18 14 19 22 29
  21815923.678   -11285823.573 6  -8684296.023 8
  20084327.873    -8794855.961 8  -6775968.148 9
  23147804.545    -3668141.280 6  -2744940.829 6
  20853449.178   -15671772.362 8 -12096567.761 9
  20441430.701   -14188047.600 8 -10977561.732 9
 94  2 14 19  5 59.9980000  0  5 18 14 19 22 29
  21801819.162   -11359942.435 6  -8742050.916 8
  20091678.600    -8756228.450 8  -6745868.814 9
  23131607.498    -3753258.687 6  -2811265.836 6
  20855743.006   -15659718.194 8 -12087174.840 9
  20435638.076   -14218488.286 8 -11001281.713 9
 94  2 14 19  6 29.9980000  0  5 18 14 19 22 29
  21787748.232   -11433888.233 7  -8799670.956 8
  20099142.139    -8717008.178 8  -6715307.586 9
  23115462.834    -3838095.010 5  -2877371.836 6
  20858166.232   -15646984.303 8 -12077252.255 9
  20429900.936   -14248635.912 7 -11024773.330 9
 94  2 14 19  6 59.9980000  0  5 18 14 19 22 29
  21773708.967   -11507662.433 6  -8857157.278 8
  20106721.053    -8677178.061 7  -6684271.157 9
  23099371.646    -3922655.233 5  -2943262.719 5
  20860719.850   -15633565.660 8 -12066796.086 9
  20424220.256   -14278489.422 8 -11048035.761 9
 94  2 14 19  7 29.9980000  0  5 18 14 19 22 29
  21759703.967   -11581259.382 6  -8914505.480 8
  20114417.740    -8636733.085 7  -6652755.614 9
  23083332.240    -4006940.907 5  -3008939.714 6
  20863402.881   -15619465.515 8 -12055808.878 9
  20418593.990   -14308055.412 7 -11071074.156 9
 94  2 14 19  7 59.9980000  0  5 18 14 19 22 29
  21745733.592   -11654673.896 6  -8971711.529 8
  20122229.787    -8595680.664 7  -6620766.742 9
  23067342.623    -4090965.371 5  -3074413.138 5
  20866213.029   -15604698.791 8 -12044302.258 9
  20413018.998   -14337350.982 7 -11093901.828 9
 94  2 14 19  8 29.9980000  0  5 18 14 19 22 29
  21731801.936   -11727885.072 7  -9028759.141 8
  20130164.428    -8553982.766 7  -6588274.897 9
  23051405.232    -4174717.448 5  -3139674.342 5
  20869153.576   -15589245.421 8 -12032260.590 9
  20407499.803   -14366355.125 7 -11116502.414 9
 94  2 14 19  8 59.9980000  0  5 18 14 19 22 29
  21717908.857   -11800892.332 6  -9085647.855 8
  20138224.295    -8511628.037 7  -6555271.232 9
  23035521.490    -4258188.610 5  -3204716.628 6
  20872225.631   -15573099.437 8 -12019679.238 9
  20402039.373   -14395048.631 7 -11138860.951 9
 94  2 14 19  9 29.9980000  0  5 18 14 19 22 29
  21704058.209   -11873676.447 6  -9142362.689 8
  20146413.131    -8468596.424 7  -6521740.129 9
  23019696.771    -4341343.252 5  -3269512.285 6
  20875435.600   -15556231.764 8 -12006535.543 9
  20396641.600   -14423414.069 7 -11160963.853 9
 94  2 14 19  9 59.9980000  0  5 18 14 19 22 29
  21690247.842   -11946253.425 7  -9198916.126 8
  20154729.389    -8424895.010 8  -6487687.101 9
  23003934.061    -4424179.829 6  -3334060.161 6
  20878782.881   -15538641.258 8 -11992828.616 9
  20391305.217   -14451457.502 7 -11182815.842 9
 94  2 14 19 10 29.9980000  0  5 18 14 19 22 29
  21676473.490   -12018635.547 7  -9255317.709 8
  20163173.029    -8380525.047 8  -6453113.127 9
  22988233.201    -4506684.698 5  -3398349.566 6
  20882268.826   -15520323.555 8 -11978555.052 9
  20386029.045   -14479183.757 7 -11204420.692 9
 94  2 14 19 10 59.9980000  0  5 18 14 19 22 29
  21662736.936   -12090820.538 6  -9311565.708 8
  20171741.522    -8335496.480 8  -6418025.957 9
  22972602.514    -4588822.974 5  -3462353.304 5
  20885893.287   -15501277.015 8 -11963713.586 9
  20380812.139   -14506598.422 7 -11225782.748 9
 94  2 14 19 11 29.9980000  0  5 18 14 19 22 29
  21649038.264   -12162807.315 7  -9367659.242 8
  20180432.920    -8289821.548 7  -6382435.122 9
  22957041.631    -4670599.563 5  -3526075.232 6
  20889653.873   -15481514.372 8 -11948314.130 9
  20375651.920   -14533715.255 7 -11246912.728 9
 94  2 14 19 11 59.9980000  0  5 18 14 19 22 29
  21635378.928   -12234589.555 7  -9423593.400 8
  20189243.850    -8243520.302 7  -6346356.250 9
  22941546.037    -4752028.321 6  -3589526.117 6
  20893549.811   -15461041.897 8 -11932361.565 9
  20370549.834   -14560527.533 7 -11267805.399 9
 94  2 14 19 12 29.9980000  0  5 18 14 19 22 29
  21621759.943   -12306157.458 7  -9479360.539 8
  20198169.420    -8196617.498 8  -6309808.631 9
  22926112.490    -4833134.031 6  -3652725.256 6
  20897576.467   -15439882.078 8 -11915873.421 9
  20365503.225   -14587047.561 7 -11288470.346 9
 94  2 14 19 12 59.9980000  0  5 18 14 19 22 29
  21608185.865   -12377490.097 7  -9534944.348 8
  20207209.232    -8149111.811 8  -6272791.238 9
  22910737.779    -4913925.700 6  -3715679.671 5
  20901731.451   -15418046.091 8 -11898858.400 9
  20360515.045   -14613259.432 7 -11308895.170 9
 94  2 14 19 13 29.9980000  0  5 18 14 19 22 29
  21594655.186   -12448592.462 7  -9590348.727 8
  20216364.146    -8101002.538 8  -6235303.514 9
  22895415.498    -4994443.933 6  -3778421.042 6
  20906013.193   -15395545.094 8 -11881325.189 9
  20355588.998   -14639147.675 7 -11329067.819 9
 94  2 14 19 13 59.9980000  0  5 18 14 19 22 29
  21581169.490   -12519459.821 7  -9645569.986 8
  20225634.662    -8052286.775 8  -6197343.201 9
  22880144.717    -5074693.719 6  -3840953.224 6
  20910421.107   -15372382.330 8 -11863276.322 9
  20350726.014   -14664702.803 7 -11348980.903 9
 94  2 14 19 14 29.9980000  0  5 18 14 19 22 29
  21567729.553   -12590087.866 7  -9700604.759 8
  20235027.787    -8002925.717 8  -6158880.058 9
  22864929.186    -5154653.465 6  -3903259.412 6
  20914954.779   -15348557.606 8 -11844711.636 9
  20345926.240   -14689926.063 7 -11368635.386 9
 94  2 14 19 14 59.9980000  0  5 18 14 19 22 29
  21554329.912   -12660503.838 7  -9755474.298 8
  20244546.998    -7952900.198 7  -6119899.154 9
  22849770.537    -5234312.756 6  -3965331.472 7
  20919618.084   -15324052.682 8 -11825616.931 9
  20341191.053   -14714808.737 7 -11388024.475 9
 94  2 14 19 15 29.9980000  0  5 18 14 19 22 29
  21540967.904   -12730722.387 7  -9810190.000 8
  20254191.467    -7902220.123 8  -6080408.204 9
  22834668.732    -5313671.876 6  -4027169.699 7
  20924412.787   -15298856.756 8 -11805983.781 9
  20336519.584   -14739358.924 7 -11407154.475 9
 94  2 14 19 15 59.9980000  0  5 18 14 19 22 29
  21527642.186   -12800750.075 7  -9864756.982 8
  20263955.795    -7850907.926 8  -6040424.694 9
  22819624.748    -5392725.305 6  -4088769.675 6
  20929338.225   -15272973.356 8 -11785814.921 9
  20331904.889   -14763608.872 7 -11426050.524 9
 94  2 14 19 16 29.9980000  0  5 18 14 19 22 29
  21514351.436   -12870593.489 7  -9919180.383 8
  20273838.475    -7798973.662 7  -5999956.455 9
  22804641.037    -5471468.065 5  -4150127.615 6
  20934394.615   -15246401.046 8 -11765109.247 9
  20327346.092   -14787563.726 7 -11444716.632 9
 94  2 14 19 16 59.9980000  0  5 18 14 19 22 29
  21501098.764   -12940235.857 7  -9973447.119 9
  20283834.482    -7746445.199 7  -5959025.209 9
  22789714.131    -5549902.223 5  -4211245.123 6
  20939583.061   -15219135.380 8 -11743863.286 9
  20322847.482   -14811206.397 7 -11463139.476 9
 94  2 14 19 17 29.9980000  0  5 18 14 19 22 29
  21487891.647   -13009639.612 7 -10027527.930 9
  20293942.053    -7693328.946 7  -5917635.948 9
  22774850.889    -5628010.793 5  -4272108.849 6
  20944900.443   -15191193.127 7 -11722090.109 9
  20318408.162   -14834535.558 7 -11481318.025 9
 94  2 14 19 17 59.9980000  0  5 18 14 19 22 29
  21474729.865   -13078803.834 7 -10081422.094 9
  20304163.092    -7639616.991 7  -5875782.497 9
  22760049.537    -5705796.021 6  -4332720.583 6
  20950344.693   -15162581.905 7 -11699795.659 9
  20314026.436   -14857561.098 7 -11499259.977 9
 94  2 14 19 18 29.9980000  0  5 18 14 19 22 29
  21461612.975   -13147733.676 7 -10135133.623 9
  20314496.646    -7585312.308 7  -5833467.183 9
  22745308.264    -5783261.606 6  -4393083.274 6
  20955915.061   -15133311.380 7 -11676987.458 9
  20309701.811   -14880286.668 7 -11516968.192 9
 94  2 14 19 18 59.9980000  0  5 18 14 19 22 29
  21448542.670   -13216420.118 7 -10188655.489 9
  20324943.857    -7530411.902 7  -5790687.670 9
  22730626.865    -5860413.011 6  -4453201.127 6
  20961611.709   -15103375.160 7 -11653660.535 9
  20305433.584   -14902715.922 7 -11534445.517 9
 94  2 14 19 19 29.9980000  0  5 18 14 19 22 29
  21435515.701   -13284875.637 7 -10241997.415 9
  20335506.787    -7474903.123 7  -5747434.097 9
  22716004.521    -5937255.556 6  -4513078.298 6
  20967434.397   -15072776.116 8 -11629817.123 9
  20301220.943   -14924853.428 7 -11551695.502 9
 94  2 14 19 19 59.9980000  0  5 18 14 19 22 29
  21422528.240   -13353124.348 7 -10295178.198 9
  20346184.303    -7418794.872 7  -5703713.405 9
  22701436.232    -6013809.449 6  -4572730.564 6
  20973382.084   -15041520.521 7 -11605462.115 9
  20297063.514   -14946701.052 7 -11568719.605 9
 94  2 14 19 20 29.9980000  0  5 18 14 19 22 29
  21409580.576   -13421164.004 7 -10348196.080 9
  20356976.389    -7362083.544 7  -5659522.785 9
  22686924.365    -6090071.752 6  -4632155.664 6
  20979454.217   -15009610.543 7 -11580597.202 9
  20292965.717   -14968234.776 7 -11585499.116 9
 94  2 14 19 20 59.9980000  0  5 18 14 19 22 29
  21396671.646   -13489001.493 7 -10401056.431 9
  20367883.373    -7304765.856 7  -5614859.674 9
  22672466.568    -6166046.530 6  -4691356.704 6
  20985649.756   -14977051.698 7 -11555226.675 9
  20288930.904   -14989437.680 7 -11602020.827 9
 94  2 14 19 21 29.9980000  0  5 18 14 19 22 29
  21383796.209   -13556663.145 7 -10453779.768 9
  20378903.982    -7246851.005 7  -5569731.239 9
  22658062.264    -6241740.002 6  -4750338.500 6
  20991965.772   -14943861.900 7 -11529364.496 9
  20284957.896   -15010316.897 7 -11618290.326 9
 94  2 14 19 21 59.9980000  0  5 18 14 19 22 29
  21370956.014   -13624136.955 7 -10506356.739 9
  20390038.428    -7188338.872 7  -5524137.390 9
  22643714.068    -6317141.988 6  -4809093.176 7
  20998404.795   -14910023.194 7 -11502996.674 9
  20281048.295   -15030861.698 7 -11634299.252 9
 94  2 14 19 22 29.9980000  0  5 18 14 19 22 29
  21358152.412   -13691421.230 7 -10558786.009 9
  20401284.998    -7129238.074 7  -5478084.846 9
  22629420.514    -6392256.093 6  -4867623.567 7
  21004968.896   -14875529.817 7 -11476118.722 9
  20277200.561   -15051079.811 7 -11650053.608 9
 94  2 14 19 22 59.9980000  0  5 18 14 19 22 29
  21345384.928   -13758515.579 7 -10611067.283 9
  20412638.834    -7069573.954 7  -5431593.347 9
  22615179.865    -6467088.384 6  -4925934.319 7
  21011654.568   -14840396.125 7 -11448741.818 9
  20273411.654   -15070991.295 7 -11665569.030 9
 94  2 14 19 23 29.9980000  0  5 18 14 19 22 29
  21332651.084   -13825431.968 7 -10663209.888 9
  20424096.006    -7009365.093 7  -5384677.379 9
  22600989.490    -6541658.697 6  -4984040.922 7
  21018457.342   -14804649.045 7 -11420886.949 9
  20269676.326   -15090622.076 7 -11680865.725 9
 94  2 14 19 23 59.9980000  0  5 18 14 19 22 29
  21319956.592   -13892140.539 7 -10715190.540 9
  20435658.404    -6948605.323 7  -5337332.132 9
  22586849.975    -6615964.180 6  -5041941.148 7
  21025377.209   -14768283.964 7 -11392550.510 9
  20265995.303   -15109965.772 8 -11695938.722 9
 94  2 14 19 24 29.9980000  0  5 18 14 19 22 29
  21307302.311   -13958639.001 7 -10767007.463 9
  20447325.600    -6887293.538 7  -5289556.738 9
  22572761.615    -6689997.311 6  -5099629.223 6
  21032410.623   -14731322.141 7 -11363749.072 9
  20262368.217   -15129026.491 7 -11710791.214 9
 94  2 14 19 24 59.9980000  0  5 18 14 19 22 29
  21294688.217   -14024926.816 7 -10818660.244 9
  20459098.686    -6825425.747 7  -5241348.085 9
  22558727.279    -6763748.273 6  -5157097.447 6
  21039555.709   -14693775.224 7 -11334491.706 9
  20258795.654   -15147800.881 7 -11725420.594 9
 94  2 14 19 25 29.9980000  0  5 18 14 19 22 29
  21282112.100   -14091014.345 7 -10870156.958 9
  20470977.092    -6763005.623 7  -5192709.051 9
  22544744.240    -6837228.762 6  -5214354.896 6
  21046812.264   -14655643.442 7 -11304778.604 9
  20255276.654   -15166292.393 7 -11739829.546 9
 94  2 14 19 25 59.9980000  0  5 18 14 19 22 29
  21269577.818   -14156882.893 7 -10921483.046 9
  20482959.061    -6700040.259 7  -5143645.157 9
  22530816.201    -6910420.086 6  -5271386.996 6
  21054184.037   -14616903.390 7 -11274591.523 9
  20251815.561   -15184480.361 7 -11754001.973 9
 94  2 14 19 26 29.9980000  0  5 18 14 19 22 29
  21257083.139   -14222542.778 7 -10972646.532 9
  20495043.779    -6636532.332 7  -5094158.478 9
  22516946.701    -6983306.343 6  -5328181.427 6
  21061673.350   -14577545.112 7 -11243922.704 9
  20248414.420   -15202353.166 7 -11767928.817 9
 94  2 14 19 26 59.9980000  0  5 18 14 19 22 29
  21244624.584   -14288012.819 7 -11023662.085 9
  20507229.951    -6572494.945 7  -5044259.235 9
  22503129.514    -7055915.675 6  -5384760.037 6
  21069281.584   -14537565.008 7 -11212769.340 9
  20245070.279   -15219926.538 7 -11781622.336 9
 94  2 14 19 27 29.9980000  0  5 18 14 19 22 29
  21232206.818   -14353268.984 7 -11074510.994 9
  20519517.068    -6507923.945 7  -4993944.193 9
  22489366.607    -7128238.344 6  -5441115.305 7
  21077013.170   -14496935.913 7 -11181110.275 9
  20241786.826   -15237182.410 7 -11795068.451 9
 94  2 14 19 27 59.9980000  0  5 18 14 19 22 29
  21219829.482   -14418311.015 7 -11125193.037 9
  20531907.873    -6442810.900 7  -4943206.772 9
  22475660.779    -7200259.471 6  -5497235.593 6
  21084868.865   -14455653.534 7 -11148942.157 9
  20238563.139   -15254121.615 7 -11808267.813 9
 94  2 14 19 28 29.9980000  0  5 18 14 19 22 29
  21207491.014   -14483150.349 7 -11175717.139 9
  20544403.748    -6377145.332 7  -4892038.817 9
  22462011.756    -7271986.819 6  -5553126.946 7
  21092846.193   -14413731.784 7 -11116275.833 9
  20235398.045   -15270753.442 7 -11821227.660 9
 94  2 14 19 28 59.9980000  0  5 18 14 19 22 29
  21195192.693   -14547777.653 7 -11226076.028 9
  20557002.998    -6310937.011 7  -4840447.940 9
  22448415.568    -7343437.574 6  -5608802.758 7
  21100943.592   -14371180.369 8 -11083118.870 9
  20232292.279   -15287076.142 7 -11833946.626 9
 94  2 14 19 29 29.9980000  0  5 18 14 19 22 29
  21182938.373   -14612174.469 7 -11276255.325 9
  20569703.631    -6244193.362 7  -4788439.920 9
  22434872.857    -7414602.405 6  -5664255.812 6
  21109158.357   -14328013.052 8 -11049481.991 9
  20229247.928   -15303075.151 8 -11846413.383 9
 94  2 14 19 29 59.9980000  0  5 18 14 19 22 29
  21170728.365   -14676338.792 7 -11326253.466 9
  20582508.881    -6176902.671 7  -4736005.634 9
  22421386.826    -7485474.096 6  -5719480.396 6
  21117490.334   -14284228.158 8 -11015363.897 9
  20226266.990   -15318737.517 7 -11858617.809 9
 94  2 14 19 30 29.9980000  0  5 18 14 19 22 29
  21158565.514   -14740252.669 7 -11376056.454 9
  20595417.826    -6109065.912 7  -4683145.843 9
  22407954.115    -7556061.956 6  -5774483.835 6
  21125940.607   -14239821.547 8 -10980761.356 9
  20223352.451   -15334053.627 7 -11870552.423 9
 94  2 14 19 30 59.9980000  0  5 18 14 19 22 29
  21146453.842   -14803901.339 7 -11425652.785 9
  20608430.943    -6040680.772 7  -4629858.741 9
  22394576.787    -7626353.425 6  -5829256.345 6
  21134512.998   -14194772.256 7 -10945658.031 9
  20220505.154   -15349017.824 7 -11882212.818 9
 94  2 14 19 31 29.9980000  0  5 18 14 19 22 29
  21134390.115   -14867296.512 7 -11475051.601 9
  20621551.381    -5971734.374 7  -4576134.296 9
  22381258.725    -7696341.228 6  -5883792.233 6
  21143206.178   -14149090.079 8 -10910061.550 9
  20217720.568   -15363650.981 7 -11893615.280 9
 94  2 14 19 31 59.9980000  0  5 18 14 19 22 29
  21122370.584   -14930460.004 7 -11524269.878 9
  20634779.186    -5902221.814 7  -4521968.688 9
  22367997.357    -7766028.404 6  -5938093.838 6
  21152018.717   -14102779.170 7 -10873975.144 9
  20214996.826   -15377963.738 7 -11904768.065 9
 94  2 14 19 32 29.9980000  0  5 18 14 19 22 29
  21110394.537   -14993393.903 7 -11573309.262 9
  20648114.975    -5832141.079 7  -4467360.348 9
  22354794.412    -7835413.234 6  -5992159.856 6
  21160947.607   -14055858.053 7 -10837413.254 9
  20212332.053   -15391966.012 7 -11915678.912 9
 94  2 14 19 32 59.9980000  0  5 18 14 19 22 29
  21098462.615   -15056096.186 7 -11622168.157 9
  20661560.951    -5761481.833 7  -4412301.217 9
  22341653.256    -7904473.449 6  -6045972.910 6
  21169990.451   -14008335.864 7 -10800382.985 9
  20209731.084   -15405636.291 8 -11926331.074 9
 94  2 14 19 33 29.9980000  0  5 18 14 19 22 29
  21086575.576   -15118563.896 7 -11670844.271 9
  20675118.264    -5690236.568 7  -4356785.454 9
  22328573.990    -7973205.107 6  -6099529.963 7
  21179145.693   -13960224.635 7 -10762893.728 9
  20207195.639   -15418958.964 7 -11936712.372 9
 94  2 14 19 33 59.9980000  0  5 18 14 19 22 29
  21074724.068   -15180844.400 7 -11719374.517 9
  20688771.654    -5618487.227 7  -4300876.899 9
  22315543.045    -8041677.282 6  -6152884.811 7
  21188403.779   -13911573.724 7 -10724983.935 9
  20204719.834   -15431968.492 7 -11946849.649 9
 94  2 14 19 34 29.9980000  0  5 18 14 19 22 29
  21062915.561   -15242896.820 7 -11767727.027 9
  20702524.779    -5546215.069 7  -4244560.962 9
  22302567.709    -8109866.958 6  -6206019.533 7
  21197772.006   -13862343.973 7 -10686623.101 9
  20202310.514   -15444630.548 7 -11956716.171 9
 94  2 14 19 34 59.9980000  0  5 18 14 19 22 29
  21051163.076   -15304659.161 7 -11815853.503 9
  20716388.193    -5473362.664 7  -4187792.889 9
  22289656.951    -8177712.160 6  -6258885.826 7
  21207264.217   -13812461.864 7 -10647753.942 9
  20199978.873   -15456883.643 7 -11966264.027 9
 94  2 14 19 35 29.9980000  0  5 18 14 19 22 29
  21039473.506   -15366086.202 7 -11863718.707 9
  20730365.709    -5399908.962 7  -4130556.269 9
  22276817.772    -8245183.765 6  -6311461.004 7
  21216890.834   -13761875.213 7 -10608335.790 9
  20197729.264   -15468704.141 7 -11975474.786 9
 94  2 14 19 35 59.9980000  0  5 18 14 19 22 29
  21027849.959   -15427168.081 7 -11911314.946 9
  20744455.576    -5325866.332 7  -4072860.748 9
  22264048.475    -8312287.579 6  -6363749.616 7
  21226649.326   -13710592.715 7 -10568375.422 9
  20195562.490   -15480091.283 7 -11984347.863 9
 94  2 14 19 36 29.9980000  0  5 18 14 19 22 29
  21016289.607   -15487918.835 7 -11958653.177 9
  20758659.029    -5251227.608 7  -4014700.742 9
  22251350.389    -8379014.847 6  -6415744.822 7
  21236536.615   -13658635.078 7 -10527888.970 9
  20193474.350   -15491065.017 7 -11992898.813 9
 94  2 14 19 36 59.9980000  0  5 18 14 19 22 29
  21004783.826   -15548382.005 7 -12005767.308 9
  20772964.998    -5176050.192 7  -3956120.979 9
  22238715.350    -8445411.638 6  -6467482.502 7
  21246540.975   -13606061.736 7 -10486922.748 9
  20191455.061   -15501676.002 7 -12001167.094 9
 94  2 14 19 37 29.9980000  0  5 18 14 19 22 29
  20993350.248   -15608464.262 7 -12052584.627 9
  20787387.561    -5100260.044 7  -3897063.762 9
  22226157.021    -8511405.388 6  -6518906.130 6
  21256677.404   -13552795.161 7 -10445416.341 9
  20189522.975   -15511829.498 7 -12009078.895 9
 94  2 14 19 37 59.9980000  0  5 18 14 19 22 29
  20982003.381   -15668092.547 7 -12099048.207 9
  20801945.342    -5023756.910 7  -3837450.973 9
  22213692.787    -8576908.100 6  -6569947.139 6
  21266959.428   -13498760.801 7 -10403311.654 9
  20187694.373   -15521438.421 7 -12016566.360 9
 94  2 14 19 38 29.9980000  0  5 18 14 19 22 29
  20970737.740   -15727294.158 7 -12145179.304 9
  20816635.717    -4946558.314 7  -3777296.260 9
  22201320.779    -8641927.777 6  -6620611.767 6
  21277386.857   -13443964.305 7 -10360613.104 9
  20185964.412   -15530529.589 7 -12023650.381 9
 94  2 14 19 38 59.9980000  0  5 18 14 19 22 29
  20959534.381   -15786169.833 7 -12191056.441 9
  20831435.022    -4868788.356 7  -3716696.334 9
  22189017.818    -8706573.453 6  -6670984.956 7
  21287939.740   -13388508.837 7 -10317401.061 9
  20184313.529   -15539206.167 7 -12030411.347 9
 94  2 14 19 39 29.9980000  0  5 18 14 19 22 29
  20948371.811   -15844827.987 7 -12236764.087 9
  20846327.521    -4790529.603 7  -3655715.526 9
  22176771.404    -8770928.084 6  -6721131.353 6
  21298598.928   -13332494.967 7 -10273753.898 9
  20182721.381   -15547571.440 7 -12036929.739 9
 94  2 14 19 39 59.9980000  0  5 18 14 19 22 29
  20937234.529   -15903354.817 7 -12282369.398 9
  20861298.662    -4711855.975 7  -3594411.441 9
  22164566.115    -8835068.599 6  -6771110.898 7
  21309350.771   -13275993.522 7 -10229726.802 9
  20181172.225   -15555711.705 7 -12043272.805 9
 94  2 14 19 40 29.9980000  0  5 18 14 19 22 29
  20926117.959   -15961772.381 7 -12327889.568 9
  20876339.037    -4632818.899 7  -3532824.162 9
  22152393.693    -8899033.220 6  -6820953.383 7
  21320190.318   -13219030.301 7 -10185339.874 9
  20179658.193   -15563667.864 7 -12049472.407 9
 94  2 14 19 40 59.9980000  0  5 18 14 19 22 29
  20915020.561   -16020087.979 7 -12373330.274 9
  20891444.678    -4553438.701 7  -3470969.515 9
  22140248.045    -8962858.245 6  -6870687.108 7
  21331110.850   -13161642.720 7 -10140622.282 9
  20178175.396   -15571461.492 7 -12055545.365 9
 94  2 14 19 41 29.9980000  0  5 18 14 19 22 29
  20903942.920   -16078304.099 7 -12418693.462 9
  20906616.834    -4473708.649 7  -3408842.257 9
  22128124.100    -9026569.862 6  -6920332.472 7
  21342108.951   -13103847.179 7 -10095586.801 9
  20176722.600   -15579094.948 7 -12061493.518 9
 94  2 14 19 41 59.9980000  0  5 18 14 19 22 29
  20892885.623   -16136409.420 7 -12463970.309 9
  20921852.662    -4393644.001 7  -3346454.263 9
  22116023.006    -9090163.238 6  -6969885.689 7
  21353184.928   -13045642.251 7 -10050232.310 9
  20175305.686   -15586541.288 7 -12067295.873 9
 94  2 14 19 42 29.9980000  0  5 18 14 19 22 29
  20881852.865   -16194387.936 7 -12509148.354 9
  20937150.740    -4313249.862 7  -3283809.527 9
  22103948.334    -9153615.164 6  -7019328.710 7
  21364336.600   -12987041.154 7 -10004569.118 9
  20173928.623   -15593778.425 7 -12072935.204 9
 94  2 14 19 42 59.9980000  0  5 18 14 19 22 29
  20870842.881   -16252244.485 7 -12554231.345 9
  20952514.021    -4232514.532 7  -3220898.932 9
  22091901.545    -9216920.859 6  -7068657.787 7
  21375562.178   -12928050.951 7  -9958602.729 9
  20172597.061   -15600773.687 7 -12078386.065 9
 94  2 14 19 43 29.9980000  0  5 18 14 19 22 29
  20859854.154   -16309990.907 7 -12599228.515 9
  20967941.850    -4151438.707 7  -3157723.020 9
  22079887.514    -9280054.963 6  -7117853.162 7
  21386867.014   -12868644.121 7  -9912311.699 9
  20171315.420   -15607510.181 7 -12083635.293 9
 94  2 14 19 43 59.9980000  0  5 18 14 19 22 29
  20848887.014   -16367623.624 7 -12644137.083 9
  20983430.303    -4070045.522 7  -3094299.817 9
  22067907.592    -9343008.502 6  -7166907.832 7
  21398252.436   -12808813.169 7  -9865690.193 9
  20170081.881   -15613991.966 7 -12088686.042 9
 94  2 14 19 44 29.9980000  0  5 18 14 19 22 29
  20837945.959   -16425119.931 8 -12688939.367 9
  20998984.670    -3988308.115 7  -3030608.391 9
  22055960.592    -9405793.257 6  -7215830.982 7
  21409722.295   -12748540.763 7  -9818724.694 9
  20168895.170   -15620228.912 7 -12093546.016 9
 94  2 14 19 44 59.9980000  0  5 18 14 19 22 29
  20827031.295   -16482474.253 7 -12733631.011 9
  21014609.232    -3906201.680 7  -2966629.409 9
  22044044.436    -9468410.561 6  -7264623.659 7
  21421280.178   -12687802.506 7  -9771396.198 9
  20167755.201   -15626220.379 7 -12098214.708 9
 94  2 14 19 45 29.9980000  0  5 18 14 19 22 29
  20816148.654   -16539664.626 7 -12778194.897 9
  21030305.521    -3823719.840 7  -2902357.909 9
  22032163.068    -9530847.768 6  -7313275.989 7
  21432927.631   -12626595.551 7  -9723702.488 9
  20166661.170   -15631969.741 7 -12102694.743 9
 94  2 14 19 45 59.9980000  0  5 18 14 19 22 29
  20805300.881   -16596669.438 7 -12822614.209 9
  21046077.748    -3740835.529 7  -2837772.804 9
  22020314.076    -9593113.363 6  -7361794.590 7
  21444661.607   -12564932.876 7  -9675653.675 9
  20165614.771   -15637468.611 7 -12106979.588 9
 94  2 14 19 46 29.9980000  0  5 18 14 19 22 29
  20794486.467   -16653499.369 7 -12866897.233 9
  21061930.686    -3657529.358 7  -2772858.975 9
  22008500.623    -9655192.120 6  -7410167.599 7
  21456482.686   -12502812.925 7  -9627248.548 9
  20164617.678   -15642706.897 7 -12111061.379 9
 94  2 14 19 46 59.9980000  0  5 18 14 19 22 29
  20783703.021   -16710167.705 7 -12911054.350 9
  21077858.826    -3573827.071 7  -2707636.490 9
  21996727.193    -9717065.327 6  -7458380.435 7
  21468388.998   -12440242.717 7  -9578492.566 9
  20163674.647   -15647663.898 7 -12114923.983 9
 94  2 14 19 47 29.9980000  0  5 18 14 19 22 29
  20772951.912   -16766664.920 7 -12955078.117 9
  21093857.959    -3489750.981 7  -2642122.717 9
  21984993.396    -9778726.420 6  -7506427.990 7
  21480378.686   -12377237.497 7  -9529397.625 9
  20162782.912   -15652350.211 7 -12118575.672 9
 94  2 14 19 47 59.9980000  0  5 18 14 19 22 29
  20762231.654   -16822999.151 7 -12998974.885 9
  21109925.029    -3405316.117 7  -2576329.376 9
  21973298.646    -9840181.708 6  -7554315.174 7
  21492451.615   -12313794.080 7  -9479961.222 9
  20161940.217   -15656777.442 7 -12122025.474 9
 94  2 14 19 48 29.9980000  0  5 18 14 19 22 29
  20751544.912   -16879157.959 7 -13042734.969 9
  21126057.217    -3320542.181 7  -2510271.834 9
  21961646.811    -9901413.563 7  -7602028.249 7
  21504610.396   -12249898.885 7  -9430172.790 9
  20161149.232   -15660932.923 7 -12125263.509 9
 94  2 14 19 48 59.9980000  0  5 18 14 19 22 29
  20740894.350   -16935128.202 8 -13086348.128 9
  21142254.662    -3235424.712 7  -2443946.603 8
  21950036.162    -9962427.919 7  -7649571.846 7
  21516854.506   -12185555.162 7  -9380034.853 9
  20160409.615   -15664820.833 7 -12128293.044 9
 94  2 14 19 49 29.9980000  0  5 18 14 19 22 29
  20730282.303   -16990893.834 7 -13129801.858 9
  21158522.951    -3149933.804 7  -2377330.382 9
  21938467.186   -10023221.805 6  -7696943.651 7
  21529185.740   -12120754.692 7  -9329541.012 9
  20159721.506   -15668438.424 7 -12131111.953 9
 94  2 14 19 49 59.9980000  0  5 18 14 19 22 29
  20719709.795   -17046453.191 7 -13173094.846 9
  21174865.803    -3064050.722 7  -2310408.575 9
  21926940.475   -10083795.580 6  -7744143.944 7
  21541606.615   -12055481.398 7  -9278678.735 9
  20159090.615   -15671752.590 7 -12133694.434 9
 94  2 14 19 50 29.9980000  0  5 18 14 19 22 29
  20709177.818   -17101799.130 7 -13216221.541 9
  21191284.396    -2977771.745 7  -2243178.269 9
  21915457.357   -10144140.420 6  -7791165.855 7
  21554116.311   -11989742.119 7  -9227453.355 9
  20158518.201   -15674760.852 7 -12136038.539 9
 94  2 14 19 50 59.9980000  0  5 18 14 19 22 29
  20698687.811   -17156924.667 7 -13259176.490 9
  21207780.584    -2891084.358 7  -2175629.730 9
  21904016.686   -10204260.842 6  -7838012.901 7
  21566712.209   -11923549.234 7  -9175874.517 9
  20158003.490   -15677466.456 7 -12138146.811 9
 94  2 14 19 51 29.9980000  0  5 18 14 19 22 29
  20688240.936   -17211821.410 8 -13301953.167 9
  21224349.982    -2804010.130 7  -2107779.756 9
  21892616.873   -10264165.102 6  -7884691.501 7
  21579392.842   -11856914.560 7  -9123951.430 9
  20157545.607   -15679872.641 7 -12140021.773 9
 94  2 14 19 51 59.9980000  0  5 18 14 19 22 29
  20677843.209   -17266463.551 8 -13344531.456 9
  21240994.193    -2716546.625 7  -2039626.441 9
  21881261.490   -10323839.161 6  -7931190.734 7
  21592158.646   -11789829.712 7  -9071677.566 9
  20157145.693   -15681972.457 7 -12141658.010 9
 94  2 14 19 52 29.9980000  0  5 18 14 19 22 29
  20667490.482   -17320867.187 7 -13386923.899 9
  21257709.068    -2628709.448 7  -1971181.963 9
  21869946.998   -10383294.222 6  -7977519.326 7
  21605006.053   -11722316.404 7  -9019069.834 9
  20156799.670   -15683792.374 7 -12143076.146 9
 94  2 14 19 52 59.9980000  0  5 18 14 19 22 29
  20657181.381   -17375042.230 7 -13429138.211 9
  21274491.975    -2540514.897 7  -1902458.993 9
  21858671.740   -10442546.204 6  -8023689.678 7
  21617934.279   -11654378.943 7  -8966131.602 9
  20156507.553   -15685327.916 7 -12144272.694 9
 94  2 14 19 53 29.9980000  0  5 18 14 19 22 29
  20646916.451   -17428984.399 7 -13471171.063 9
  21291343.537    -2451960.996 7  -1833456.014 9
  21847437.842   -10501581.007 6  -8069690.815 7
  21630947.912   -11585993.083 7  -8912843.966 9
  20156272.396   -15686563.669 7 -12145235.636 9
 94  2 14 19 53 59.9980000  0  5 18 14 19 22 29
  20636694.482   -17482701.546 8 -13513028.569 9
  21308264.701    -2363039.410 7  -1764166.530 9
  21836248.537   -10560381.759 6  -8115509.562 7
  21644049.232   -11517144.008 7  -8859195.395 9
  20156098.459   -15687477.102 7 -12145947.417 9
 94  2 14 19 54 29.9980000  0  5 18 14 19 22 29
  20626511.693   -17536211.527 8 -13554724.661 9
  21325253.693    -2273762.307 7  -1694600.019 9
  21825103.522   -10618949.356 6  -8161146.638 7
  21657238.506   -11447836.423 7  -8805189.550 9
  20155986.600   -15688064.758 7 -12146405.344 9
 94  2 14 19 54 59.9980000  0  5 18 14 19 22 29
  20616373.568   -17589487.338 7 -13596238.273 9
  21342313.225    -2184113.700 7  -1624744.012 9
  21814006.100   -10677266.021 6  -8206588.170 7
  21670517.217   -11378054.763 7  -8750814.296 9
  20155940.209   -15688308.402 7 -12146595.207 9
 94  2 14 19 55 29.9980000  0  5 18 14 19 22 29
  20606280.248   -17642529.694 8 -13637569.973 9
  21359445.443    -2094084.338 7  -1554591.316 9
  21802955.146   -10735338.857 6  -8251839.711 7
  21683884.287   -11307811.591 7  -8696079.420 9
  20155958.357   -15688211.948 7 -12146520.055 9
 94  2 14 19 55 59.9980000  0  5 18 14 19 22 29
  20596232.342   -17695330.215 7 -13678713.218 9
  21376651.264    -2003664.477 7  -1484134.341 9
  21791950.928   -10793166.561 6  -8296900.232 8
  21697336.061   -11237121.489 7  -8640996.291 9
  20156040.623   -15687782.932 7 -12146185.767 9
 94  2 14 19 56 29.9980000  0  5 18 14 19 22 29
  20586230.357   -17747892.692 8 -13719670.975 9
  21393931.396    -1912857.361 7  -1413375.614 9
  21780989.662   -10850769.371 6  -8341785.513 8
  21710870.186   -11165998.528 7  -8585575.869 9
  20156181.639   -15687041.062 7 -12145607.686 9
 94  2 14 19 56 59.9980000  0  5 18 14 19 22 29
  20576276.318   -17800197.927 7 -13760428.292 9
  21411286.029    -1821660.378 7  -1342313.079 9
  21770072.342   -10908140.599 6  -8386490.338 8
  21724488.014   -11094437.153 7  -8529813.830 9
  20156384.701   -15685973.423 7 -12144775.764 9
 94  2 14 19 57 29.9980000  0  5 18 14 19 22 29
  20566369.256   -17852261.533 8 -13800997.327 9
  21428709.975    -1730097.183 7  -1270965.188 9
  21759197.865   -10965286.341 6  -8431019.449 8
  21738186.842   -11022450.358 7  -8473720.293 9
  20156647.912   -15684590.280 7 -12143697.994 9
 94  2 14 19 57 59.9980000  0  5 18 14 19 22 29
  20556505.303   -17904097.418 8 -13841388.923 9
  21446197.756    -1638196.876 7  -1199354.609 8
  21748366.553   -11022204.654 6  -8475371.335 8
  21751964.670   -10950047.197 7  -8417302.311 9
  20156969.412   -15682899.916 7 -12142380.829 9
 94  2 14 19 58 29.9980000  0  5 18 14 19 22 29
  20546684.865   -17955703.573 7 -13881601.503 9
  21463745.459    -1545980.603 6  -1127497.822 8
  21737580.404   -11078887.790 6  -8519539.977 8
  21765823.647   -10877219.081 7  -8360553.196 9
  20157353.553   -15680880.691 7 -12140807.406 9
 94  2 14 19 58 59.9980000  0  5 18 14 19 22 29
  20536910.248   -18007069.120 7 -13921626.595 9
  21481351.943    -1453460.180 6  -1055404.044 8
  21726839.967   -11135328.304 7  -8563519.552 8
  21779760.389   -10803979.655 7  -8303483.584 9
  20157798.873   -15678540.011 7 -12138983.494 9
 94  2 14 19 59 29.9980000  0  5 18 14 19 22 29
  20527179.818   -18058203.099 7 -13961471.240 9
  21499017.217    -1360630.816 7   -983069.513 8
  21716143.186   -11191540.032 7  -8607320.849 8
  21793774.186   -10730338.147 7  -8246100.657 9
  20158303.912   -15675888.283 7 -12136917.211 9
 94  2 14 19 59 59.9980000  0  5 18 14 19 22 29
  20517497.154   -18109085.374 8 -14001119.758 9
  21516743.225    -1267479.239 7   -910483.914 8
  21705489.951   -11247521.366 7  -8650942.630 8
  21807867.053   -10656280.477 7  -8188393.443 9
  20158870.529   -15672910.332 7 -12134596.734 9
 94  2 14 20  0 29.9980000  0  5 18 14 19 22 29
  20507865.139   -18159703.350 8 -14040562.334 9
  21534533.826    -1173988.435 6   -837633.984 8
  21694880.904   -11303273.212 7  -8694385.581 8
  21822039.514   -10581803.314 7  -8130359.359 9
  20159498.256   -15669610.749 7 -12132025.635 9
 94  2 14 20  0 59.9980000  0  5 18 14 19 22 29
  20498281.873   -18210063.690 8 -14079804.153 9
  21552391.381    -1080146.561 6   -764510.494 8
  21684311.748   -11358812.325 7  -8737662.762 8
  21836289.818   -10506918.393 7  -8072007.532 9
  20160185.436   -15665999.847 7 -12129211.947 9
 94  2 14 20  1 29.9980000  0  5 18 14 19 22 29
  20488746.240   -18260172.755 7 -14118850.169 9
  21570315.428     -985957.156 7   -691116.186 8
  21673782.959   -11414140.489 7  -8780775.562 8
  21850618.639   -10431619.813 7  -8013333.380 9
  20160936.068   -15662055.252 7 -12126138.240 9
 94  2 14 20  1 59.9980000  0  5 18 14 19 22 29
  20479256.553   -18310042.250 7 -14157709.500 9
  21588298.537     -891454.761 7   -617478.008 8
  21663294.818   -11469259.508 7  -8823725.391 8
  21865021.795   -10355928.376 7  -7954353.100 9
  20161746.818   -15657793.796 7 -12122817.636 9
 94  2 14 20  2 29.9980000  0  5 18 14 19 22 29
  20469812.717   -18359669.476 7 -14196380.050 9
  21606341.295     -796638.561 7   -543595.296 8
  21652847.436   -11524159.244 7  -8866504.365 8
  21879500.373   -10279846.226 7  -7895068.368 9
  20162620.725   -15653202.510 7 -12119240.020 9
 94  2 14 20  2 59.9980000  0  7 18 14 19 27 28 22 29
  20460417.248   -18409044.226 8 -14234853.866 9
  21624442.779     -701513.755 6   -469472.128 8
  21642442.725   -11578836.695 7  -8909110.113 8
  24005628.412      -61314.40714
  23921269.834      -35668.73415
  21894053.475   -10203368.192 7  -7835475.146 9
  20163559.545   -15648268.310 7 -12115395.201 9
 94  2 14 20  3 29.9980000  0  7 18 14 19 27 28 22 29
  20451070.256   -18458162.089 8 -14273127.514 9
  21642601.607     -606088.386 7   -395114.734 8
  21632081.811   -11633284.553 7  -8951536.968 8
  23990433.389     -141167.825 5    -18653.91615
  23909327.404      -98425.979 5
  21908683.701   -10126485.765 7  -7775566.822 9
  20164563.076   -15642996.323 7 -12111287.174 9
 94  2 14 20  3 59.9980000  0  7 18 14 19 27 28 22 29
  20441774.326   -18507012.017 8 -14311192.378 9
  21660821.006     -510347.025 7   -320511.124 8
  21621764.475   -11687501.179 7  -8993783.641 9
  23975265.146     -220875.104 5    -80763.444 5
  23897432.217     -160939.324 5    -45457.14115
  21923394.498   -10049181.323 7  -7715329.645 9
  20165630.131   -15637388.111 7 -12106917.155 9
 94  2 14 20  4 29.9980000  0  7 18 14 19 27 28 22 29
  20432526.857   -18555608.597 8 -14349059.820 9
  21679098.920     -414295.418 7   -245665.763 8
  21611485.303   -11741515.974 7  -9035873.047 8
  23960118.904     -300464.007 5   -142780.511 4
  23885576.225     -223247.869 6    -94009.043 6
  21938181.303    -9971476.278 7  -7654780.313 9
  20166758.436   -15631459.644 7 -12102297.590 9
 94  2 14 20  4 59.9980000  0  7 18 14 19 27 28 22 29
  20423328.920   -18603943.097 8 -14386723.039 9
  21697437.732     -317923.475 6   -170570.794 8
  21601247.107   -11795319.471 7  -9077797.803 8
  23944994.350     -379946.378 5   -204714.748 6
  23873758.264     -285343.860 5   -142395.425 6
  21953043.576    -9893373.568 7  -7593921.125 9
  20167947.326   -15625211.484 7 -12097428.913 9
 94  2 14 20  5 29.9980000  0  7 18 14 19 27 28 22 29
  20414179.795   -18652021.339 8 -14424186.584 9
  21715835.764     -221239.017 6    -95232.315 8
  21591049.975   -11848904.866 7  -9119552.614 8
  23929889.639     -459324.520 5   -266567.677 5
  23861983.881     -347222.046 5   -190612.065 5
  21967979.529    -9814885.394 7  -7532761.569 9
  20169197.732   -15618640.552 7 -12092308.736 9
 94  2 14 20  5 59.9980000  0  7 18 14 19 27 28 22 29
  20405079.490   -18699845.244 8 -14461451.950 9
  21734292.943     -124246.069 6    -19653.454 8
  21580896.826   -11902259.473 7  -9161127.588 8
  23914800.162     -538620.180 5   -328356.254 5
  23850250.037     -408885.638 5   -238661.531 6
  21982986.147    -9736025.574 7  -7471312.416 9
  20170511.248   -15611736.746 7 -12086929.174 9
 94  2 14 20  6 29.9980000  0  7 18 14 19 27 28 22 29
  20396028.779   -18747407.854 8 -14498513.719 9
  21752808.881      -26948.562 6     56162.730 8
  21570791.693   -11955363.793 7  -9202507.522 8
  23899726.186     -617838.338 5   -390084.587 6
  23838558.912     -470324.000 5   -286535.406 5
  21998058.662    -9656816.018 7  -7409590.742 9
  20171891.443   -15604483.951 7 -12081277.668 9
 94  2 14 20  6 59.9980000  0  7 18 14 19 27 28 22 29
  20387025.514   -18794718.714 8 -14535379.313 9
  21771375.186       70621.130 6    132190.994 8
  21560731.654   -12008228.560 7  -9243700.798 8
  23884660.631     -696995.614 4   -451765.427 5
  23826908.475     -531539.153 5   -334235.510 5
  22013196.318    -9577268.433 7  -7347605.677 9
  20173336.436   -15596892.688 7 -12075362.424 9
 94  2 14 20  7 29.9980000  0  7 18 14 19 27 28 22 29
  20378072.943   -18841763.911 8 -14572037.896 9
  21789993.006      168454.646 6    208424.845 8
  21550717.811   -12060852.510 7  -9284706.438 9
  23869611.412     -776085.928 5   -513394.046 5
  23815304.592     -592526.166 6   -381757.763 6
  22028400.865    -9497368.748 7  -7285346.237 9
  20174845.115   -15588963.358 7 -12069183.759 9
 94  2 14 20  7 59.9980000  0  7 18 14 19 27 28 22 29
  20369174.506   -18888526.602 8 -14608476.354 9
  21808661.326      266558.717 6    284869.509 8
  21540746.998   -12113248.836 7  -9325534.705 8
  23854576.037     -855097.218 4   -574961.177 5
  23803742.490     -653282.730 5   -429100.372 6
  22043671.193    -9417122.305 7  -7222816.601 9
  20176418.350   -15580695.870 7 -12062741.590 9
 94  2 14 20  8 29.9980000  0  7 18 14 19 27 28 22 29
  20360328.553   -18935012.592 8 -14644699.202 9
  21827375.857      364903.836 6    361501.991 8
  21530811.717   -12165458.697 7  -9366217.676 9
  23839558.342     -934008.970 3   -636450.780 5
  23792220.896     -713823.303 5   -476274.966 6
  22059005.232    -9336542.692 7  -7160027.349 9
  20178050.904   -15572115.881 7 -12056055.910 9
 94  2 14 20  8 59.9980000  0  7 18 14 19 27 28 22 29
  20351534.475   -18981224.793 8 -14680708.714 9
  21846136.818      463491.347 6    438323.364 7
  21520910.279   -12217490.679 7  -9406762.043 9
  23824565.725    -1012805.237 4   -697850.381 5
  23780742.365     -774134.019 5   -523270.135 5
  22074405.404    -9255614.714 7  -7096966.644 9
  20179739.982   -15563240.818 7 -12049140.301 9
 94  2 14 20  9 29.9980000  0  7 18 14 19 27 28 22 29
  20342790.053   -19027177.490 8 -14716516.017 9
  21864946.561      562338.662 6    515347.170 7
  21511043.420   -12269341.956 7  -9447165.598 9
  23809593.264    -1091475.353 3   -759151.724 3
  23769313.857     -834205.963 6   -570079.477 6
  22089871.818    -9174337.607 7  -7033633.887 9
  20181485.631   -15554067.176 7 -12041992.035 9
 94  2 14 20  9 59.9980000  0  7 18 14 19 27 28 22 29
  20334092.670   -19072882.591 8 -14752130.378 9
  21883807.975      661456.200 6    592581.544 7
  21501210.217   -12321012.841 7  -9487428.593 9
  23794649.459    -1170016.729 5   -820352.809 5
  23757927.678     -894038.826 5   -616702.360 6
  22105405.467    -9092709.079 7  -6970027.284 8
  20183290.873   -15544579.602 7 -12034599.136 9
 94  2 14 20 10 29.9980000  0  7 18 14 19 27 28 22 29
  20325441.381   -19118345.007 8 -14787555.631 9
  21902720.764      760843.753 6    670026.313 7
  21491415.990   -12372485.620 7  -9527537.219 9
  23779723.615    -1248446.679 5   -881466.959 5
  23746587.686     -953630.173 5   -663137.095 6
  22121007.748    -9010715.650 7  -6906136.343 8
  20185157.537   -15534771.214 7 -12026956.259 9
 94  2 14 20 10 59.9980000  0  7 18 14 19 27 28 22 29
  20316835.514   -19163570.280 8 -14822796.097 9
  21921685.850      860505.066 6    747684.423 8
  21481660.451   -12423748.164 7  -9567482.028 9
  23764812.264    -1326804.918 5   -942525.365 5
  23735290.146    -1012983.350 4   -709386.400 5
  22136677.561    -8928371.363 7  -6841972.003 8
  20187086.154   -15524636.965 7 -12019059.459 9
 94  2 14 20 11 29.9980000  0  7 18 14 19 27 28 22 29
  20308278.342   -19208537.479 8 -14857835.463 9
  21940701.467      960432.275 6    825549.710 7
  21471945.381   -12474802.463 7  -9607264.563 9
  23749915.396    -1405090.760 5  -1003527.256 5
  23724041.607    -1072110.059 5   -755459.047 6
  22152412.826    -8845681.351 6  -6777538.265 8
  20189081.146   -15514153.665 7 -12010890.668 9
 94  2 14 20 11 59.9980000  0  7 18 14 19 27 28 22 29
  20299778.850   -19253203.102 8 -14892639.829 9
  21959767.795     1060627.104 6    903623.535 7
  21462273.420   -12525628.619 7  -9646869.325 9
  23735033.990    -1483284.227 5  -1064457.267 5
  23712836.193    -1130990.533 5   -801339.851 5
  22168215.623    -8762638.664 7  -6712829.729 8
  20191147.998   -15503291.492 7 -12002426.649 9
 94  2 14 20 12 29.9980000  0  7 18 14 19 27 28 22 29
  20291343.592   -19297531.118 8 -14927181.126 9
  21978887.272     1161097.173 6    981911.833 7
  21452649.131   -12576202.840 7  -9686277.769 9
  23720178.123    -1561360.463 5  -1125295.817 5
  23701687.248    -1189587.645 5   -846999.937 6
  22184085.982    -8679239.048 7  -6647843.050 8
  20193289.334   -15492038.457 7 -11993658.062 9
 94  2 14 20 12 59.9980000  0  7 18 14 19 27 28 22 29
  20282970.326   -19341532.524 8 -14961467.915 9
  21998057.154     1261835.104 6   1060408.853 7
  21443071.303   -12626536.054 7  -9725498.418 9
  23705347.326    -1639300.117 5  -1186028.010 5
  23690592.545    -1247889.691 5   -892429.890 5
  22200024.412    -8595482.552 7  -6582578.281 8
  20195503.295   -15480404.277 7 -11984592.480 9
 94  2 14 20 13 29.9980000  0  7 18 14 19 27 28 22 29
  20274651.303   -19385248.227 8 -14995532.076 9
  22017271.975     1362810.437 6   1139090.862 8
  21433532.193   -12676665.410 7  -9764560.228 9
  23690536.850    -1717122.309 5  -1246668.648 5
  23679549.443    -1305912.156 5   -937642.188 6
  22216026.396    -8511392.845 7  -6517053.879 9
  20197783.232   -15468421.648 7 -11975255.382 9
 94  2 14 20 13 59.9980000  0  7 18 14 19 27 28 22 29
  20266379.576   -19428717.618 8 -15029404.305 9
  22036528.404     1464002.142 6   1217941.458 7
  21424029.428   -12726600.376 7  -9803470.561 9
  23675743.521    -1794866.216 5  -1307248.344 5
  23668561.982    -1363660.710 5   -982640.924 6
  22232086.639    -8426995.085 7  -6451289.436 8
  20200122.787   -15456127.480 7 -11965675.528 9
 94  2 14 20 14 29.9980000  0  7 18 14 19 27 28 22 29
  20258144.068   -19471995.439 8 -15063127.252 9
  22055818.014     1565369.640 6   1296929.033 7
  21414554.701   -12776392.865 7  -9842269.874 9
  23660955.615    -1872579.841 5  -1367804.315 5
  23657613.404    -1421172.754 4  -1027455.493 5
  22248197.537    -8342331.181 7  -6385317.618 8
  20202510.756   -15443579.154 7 -11955897.629 9
 94  2 14 20 14 59.9980000  0  7 18 14 19 27 28 22 29
  20249938.334   -19515116.274 8 -15096727.872 9
  22075136.865     1666894.090 6   1376038.920 7
  21405102.068   -12826068.443 7  -9880978.081 9
  23646165.467    -1950295.883 5  -1428362.264 5
  23646709.482    -1478490.932 5  -1072118.832 6
  22264356.514    -8257416.159 7  -6319150.121 8
  20204942.545   -15430799.793 7 -11945939.708 9
 94  2 14 20 15 29.9980000  0  7 18 14 19 27 28 22 29
  20241772.014   -19558030.175 8 -15130167.247 9
  22094489.271     1768591.459 6   1455283.542 7
  21395676.342   -12875597.932 7  -9919572.459 9
  23631378.936    -2028000.636 5  -1488911.330 5
  23635841.022    -1535602.567 5  -1116621.339 6
  22280563.904    -8172245.323 6  -6252783.301 8
  20207424.412   -15417758.352 7 -11935777.569 9
 94  2 14 20 15 59.9980000  0  7 18 14 19 27 28 22 29
  20233654.318   -19600689.696 8 -15163408.400 9
  22113880.146     1870489.251 6   1534684.351 7
  21386285.693   -12924946.320 7  -9958025.715 9
  23616603.178    -2105649.855 5  -1549417.163 5
  23625016.053    -1592487.184 5  -1160946.909 6
  22296825.732    -8086790.027 6  -6186194.838 8
  20209961.404   -15404426.563 7 -11925389.173 9
 94  2 14 20 16 29.9980000  0  7 18 14 19 27 28 22 29
  20225589.928   -19643066.737 8 -15196429.441 9
  22133312.193     1972605.356 6   1614255.241 7
  21376931.365   -12974102.885 7  -9996329.508 9
  23601845.584    -2183198.327 5  -1609844.491 5
  23614236.381    -1649137.504 5  -1205089.907 6
  22313145.826    -8001026.611 6  -6119366.278 8
  20212558.334   -15390779.334 7 -11914754.985 9
 94  2 14 20 16 59.9980000  0  7 18 14 19 27 28 22 29
  20217582.529   -19685145.752 8 -15229218.250 9
  22152786.037     2074939.597 6   1693996.115 7
  21367615.717   -13023056.166 7 -10034474.889 9
  23587110.889    -2260634.732 5  -1670184.486 5
  23603499.475    -1705551.934 5  -1249049.208 6
  22329524.951    -7914955.554 6  -6052298.018 8
  20215217.490   -15376805.851 7 -11903866.574 9
 94  2 14 20 17 29.9980000  0  7 18 14 19 27 28 22 29
  20209632.037   -19726926.660 8 -15261774.772 9
  22172298.670     2177479.084 6   1773896.920 7
  21358335.029   -13071826.132 7 -10072477.434 9
  23572396.717    -2337959.694 5  -1730437.669 5
  23592813.772    -1761719.314 6  -1292815.898 6
  22345958.162    -7828599.043 7  -5985007.304 8
  20217939.397   -15362500.766 7 -11892719.764 9
 94  2 14 20 17 59.9980000  0  7 18 14 19 27 28 22 29
  20201735.568   -19768421.609 8 -15294108.467 9
  22191853.146     2280236.535 6   1853967.559 7
  21349088.639   -13120417.434 7 -10110340.755 9
  23557703.186    -2415171.115 5  -1790602.356 5
  23582173.732    -1817626.163 5  -1336379.612 6
  22362446.443    -7741953.239 6  -5917491.165 8
  20220726.904   -15347853.280 7 -11881306.146 9
 94  2 14 20 18 29.9980000  0  7 18 14 19 27 28 22 29
  20193896.154   -19809618.308 8 -15326209.759 9
  22211449.178     2383213.916 6   1934209.586 7
  21339875.045   -13168834.316 7 -10148068.155 9
  23543027.865    -2492287.980 5  -1850693.386 5
  23571586.701    -1873263.370 5  -1379733.271 6
  22378988.240    -7655024.321 6  -5849754.421 8
  20223582.279   -15332847.709 7 -11869613.504 9
 94  2 14 20 18 59.9980000  0  7 18 14 19 27 28 22 29
  20186115.811   -19850503.905 8 -15358068.644 9
  22231089.217     2486424.560 6   2014633.359 7
  21330696.514   -13217066.513 7 -10185651.648 9
  23528367.873    -2569324.795 5  -1910722.086 5
  23561057.006    -1928606.336 6  -1422857.613 6
  22395584.850    -7567809.352 7  -5781794.778 8
  20226508.865   -15317470.298 7 -11857631.119 9
 94  2 14 20 19 29.9980000  0  7 18 14 19 27 28 22 29
  20178393.764   -19891083.055 8 -15389688.744 9
  22250774.389     2589871.072 6   2095240.934 7
  21321555.100   -13265107.706 7 -10223086.301 9
  23513723.256    -2646285.946 5  -1970691.757 6
  23550581.311    -1983642.877 5  -1465743.220 6
  22412236.850    -7480303.456 6  -5713608.437 8
  20229506.709   -15301714.590 7 -11845353.955 9
 94  2 14 20 19 59.9980000  0  7 18 14 19 27 28 22 29
  20170730.982   -19931352.869 8 -15421067.804 9
  22270504.686     2693550.854 6   2176030.270 7
  21312454.381   -13312930.869 7 -10260351.057 9
  23499092.811    -2723170.082 5  -2030601.433 6
  23540167.553    -2038369.416 6  -1508387.236 6
  22428947.373    -7392490.688 7  -5645182.975 8
  20232573.545   -15285599.000 7 -11832796.359 9
 94  2 14 20 20 29.9980000  0  7 18 14 19 27 28 22 29
  20163126.545   -19971313.206 8 -15452205.719 9
  22290276.475     2797454.290 6   2256993.884 7
  21303397.037   -13360524.254 7 -10297436.766 9
  23484476.420    -2799977.562 5  -2090451.383 5
  23529814.662    -2092777.934 6  -1550783.385 6
  22445717.389    -7304362.771 6  -5576511.927 8
  20235707.154   -15269133.666 7 -11819966.243 9
 94  2 14 20 20 59.9980000  0  7 18 14 19 27 28 22 29
  20155574.951   -20010997.403 8 -15483128.456 9
  22310087.881     2901564.999 6   2338119.014 6
  21294384.467   -13407889.464 7 -10334344.675 9
  23469877.006    -2876698.271 5  -2150233.708 5
  23519520.615    -2146871.763 6  -1592934.386 6
  22462545.639    -7215928.903 6  -5507602.480 8
  20238902.147   -15252343.693 7 -11806883.162 9
 94  2 14 20 21 29.9980000  0  7 18 14 19 27 28 22 29
  20148077.014   -20050399.282 8 -15513831.213 9
  22329936.365     3005871.655 6   2419396.832 6
  21285415.154   -13455021.616 7 -10371070.987 9
  23455297.561    -2953313.611 5  -2209933.893 5
  23509286.162    -2200653.848 6  -1634842.399 6
  22479430.654    -7127198.593 6  -5438462.042 8
  20242157.021   -15235238.121 7 -11793554.163 9
 94  2 14 20 21 59.9980000  0  7 18 14 19 27 28 22 29
  20140633.420   -20089515.419 8 -15544311.307 9
  22349822.311     3110369.935 6   2500823.946 6
  21276491.826   -13501913.025 7 -10407609.705 9
  23440739.639    -3029816.275 5  -2269546.253 5
  23499108.881    -2254133.746 5  -1676514.975 6
  22496370.436    -7038182.182 6  -5369098.659 8
  20245472.818   -15217814.031 7 -11779976.963 9
 94  2 14 20 22 29.9980000  0  8 18 14 19 27 28 22 31 29
  20133246.146   -20128336.722 8 -15574561.670 9
  22369745.186     3215067.477 6   2582406.337 6
  21267613.631   -13548567.785 7 -10443964.032 9
  23426205.725    -3106193.024 5  -2329060.526 5
  23488989.803    -2307304.656 5  -1717946.739 6
  22513360.498    -6948893.319 6  -5299522.987 7
  23711880.373      -64803.48615
  20248856.178   -15200034.081 7 -11766122.479 9
 94  2 14 20 22 59.9980000  0  8 18 14 19 27 28 22 31 29
  20125916.834   -20166852.726 8 -15604574.140 9
  22389702.928     3319945.985 6   2664129.752 6
  21258778.217   -13595000.788 7 -10480145.555 9
  23411696.592    -3182440.315 5  -2388473.889 5
  23478931.295    -2360167.621 6  -1759138.554 6
  22530400.998    -6859349.047 6  -5229748.295 7
  23695801.779     -149296.634 5    -15357.38715
  20252307.490   -15181898.152 7 -11751990.611 9
 94  2 14 20 23 29.9980000  0  8 18 14 19 27 28 22 31 29
  20118646.350   -20205058.901 8 -15634345.187 9
  22409691.818     3424983.580 6   2745977.100 6
  21249981.021   -13641228.571 7 -10516167.178 9
  23397206.896    -3258580.446 5  -2447803.746 5
  23468926.592    -2412738.323 6  -1800102.626 6
  22547486.147    -6769564.910 6  -5159786.691 8
  23679732.396     -233739.653 5    -81157.040 5
  20255826.389   -15163404.075 7 -11737579.655 9
 94  2 14 20 23 59.9980000  0  8 18 14 19 27 28 22 31 29
  20111435.381   -20242952.868 8 -15663872.938 9
  22429711.264     3530188.063 6   2827954.504 6
  21241222.100   -13687257.292 7 -10552033.682 9
  23382736.639    -3334623.148 5  -2507057.678 5
  23458979.756    -2465009.469 6  -1840833.256 6
  22564620.068    -6679523.977 6  -5089624.986 8
  23663676.404     -318113.419 5   -146902.730 5
  20259416.139   -15144538.775 7 -11722879.440 9
 94  2 14 20 24 29.9980000  0  8 18 14 19 27 28 22 31 29
  20104284.701   -20280529.529 8 -15693153.439 9
  22449762.686     3635555.932 6   2910059.222 6
  21232496.193   -13733113.054 7 -10587765.420 9
  23368282.842    -3410578.810 5  -2566243.781 5
  23449093.451    -2516964.253 6  -1881317.357 6
  22581806.795    -6589209.519 6  -5019250.146 8
  23647635.787     -402410.287 5   -212588.528 5
  20263076.787   -15125302.127 7 -11707889.856 9
 94  2 14 20 24 59.9980000  0  8 18 14 19 27 28 22 31 29
  20097197.865   -20317772.434 8 -15722173.872 9
  22469846.248     3741094.655 6   2992297.064 6
  21223804.115   -13778788.669 7 -10623356.792 9
  23353846.240    -3486441.080 5  -2625357.091 5
  23439269.826    -2568591.627 6  -1921546.343 6
  22599049.693    -6498598.456 6  -4948644.191 8
  23631610.287     -486622.098 5   -278208.073 5
  20266807.506   -15105698.508 7 -11692614.325 9
 94  2 14 20 25 29.9980000  0  8 18 14 19 27 28 22 31 29
  20090170.732   -20354699.978 8 -15750948.572 9
  22489961.678     3846804.371 6   3074668.151 6
  21215147.717   -13824278.549 7 -10658803.432 9
  23339423.553    -3562229.939 5  -2684413.248 5
  23429505.529    -2619905.241 6  -1961530.818 6
  22616349.061    -6407690.319 6  -4877806.753 8
  23615596.342     -570773.575 5   -343780.649 5
  20270607.084   -15085733.478 7 -11677057.179 9
 94  2 14 20 25 59.9980000  0  8 18 14 19 27 28 22 31 29
  20083205.186   -20391301.851 8 -15779469.501 9
  22510112.600     3952697.143 6   3157181.903 6
  21206527.896   -13869575.515 7 -10694099.746 9
  23325019.365    -3637927.449 5  -2743398.199 5
  23419807.061    -2670865.947 6  -2001240.326 6
  22633704.748    -6316486.254 6  -4806738.711 8
  23599591.436     -654877.977 5   -409316.576 5
  20274477.037   -15065394.651 7 -11661208.759 9
 94  2 14 20 26 29.9980000  0  8 18 14 19 27 28 22 31 29
  20076301.139   -20427584.964 8 -15807742.035 9
  22530296.740     4058761.255 6   3239829.112 6
  21197944.975   -13914680.345 7 -10729246.345 9
  23310633.654    -3713527.211 5  -2802307.006 5
  23410176.771    -2721467.265 5  -2040669.758 6
  22651112.373    -6225008.878 6  -4735457.716 7
  23583595.670     -738939.291 5   -474818.860 5
  20278419.701   -15044677.120 7 -11645065.245 9
 94  2 14 20 26 59.9980000  0  8 18 14 19 27 28 22 31 29
  20069458.240   -20463544.082 8 -15835762.102 9
  22550512.936     4165000.309 6   3322612.699 6
  21189403.326   -13959566.966 7 -10764222.911 9
  23296269.092    -3789009.913 5  -2861124.563 5
  23400617.725    -2771702.558 6  -2079813.984 6
  22668569.639    -6133270.748 6  -4663973.545 7
  23567610.779     -822945.164 5   -540277.948 5
  20282433.670   -15023583.465 7 -11628628.648 9
 94  2 14 20 27 29.9980000  0  8 18 14 19 27 28 22 31 29
  20062676.365   -20499183.983 8 -15863533.428 9
  22570759.646     4271400.138 6   3405521.523 6
  21180900.545   -14004249.169 7 -10799040.197 9
  23281926.053    -3864379.255 5  -2919853.832 5
  23391130.006    -2821568.012 6  -2118669.999 6
  22686071.662    -6041296.324 6  -4592305.228 7
  23551638.022     -906884.311 5   -605685.041 5
  20286517.865   -15002122.651 7 -11611905.955 9
 94  2 14 20 27 59.9980000  0  8 18 14 19 27 28 22 31 29
  20055955.811   -20534499.819 8 -15891052.246 9
  22591038.623     4377963.190 6   3488557.535 6
  21172431.842   -14048750.947 7 -10833716.886 9
  23267607.475    -3939627.448 5  -2978488.658 5
  23381708.334    -2871069.842 6  -2157242.687 6
  22703617.076    -5949095.841 6  -4520460.760 7
  23535681.326     -990738.214 5   -671025.678 5
  20290670.646   -14980298.470 7 -11594900.118 9
 94  2 14 20 28 29.9980000  0  8 18 14 19 27 28 22 31 29
  20049298.654   -20569482.882 8 -15918311.754 9
  22611346.857     4484685.214 6   3571717.423 6
  21163997.529   -14093073.468 7 -10868253.897 9
  23253308.147    -4014772.171 5  -3037042.874 5
  23372348.256    -2920250.816 5  -2195565.364 6
  22721205.514    -5856664.767 6  -4448436.628 7
  23519743.381    -1074489.566 5   -736286.339 5
  20294888.943   -14958128.821 7 -11577625.078 9
 94  2 14 20 28 59.9980000  0  8 18 14 19 27 28 22 31 29
  20042709.475   -20604109.815 8 -15945293.758 9
  22631687.842     4591573.750 6   3655007.077 6
  21155600.021   -14137204.108 7 -10902641.385 9
  23239027.443    -4089815.248 5  -3095517.872 6
  23363053.045    -2969108.034 6  -2233635.690 6
  22738841.600    -5763988.320 6  -4376221.288 7
  23503826.990    -1158131.823 5   -801461.971 5
  20299173.178   -14935615.450 7 -11560082.206 9
 94  2 14 20 29 29.9980000  0  8 18 14 19 27 28 22 31 29
  20036190.904   -20638365.364 8 -15971986.374 9
  22652058.475     4698626.418 6   3738424.586 6
  21147237.521   -14181148.174 7 -10936883.490 9
  23224764.256    -4164766.556 5  -3153921.378 6
  23353816.982    -3017642.698 6  -2271454.710 6
  22756526.154    -5671055.953 6  -4303806.525 7
  23487930.795    -1241662.593 5   -866550.747 5
  20303524.545   -14912749.706 7 -11542264.763 9
 94  2 14 20 29 59.9980000  0  8 18 14 19 27 28 22 31 29
  20029744.404   -20672241.742 8 -15998383.528 9
  22672463.623     4805853.074 6   3821977.727 6
  21138914.412   -14224884.957 7 -10970964.080 9
  23210520.248    -4239616.931 5  -3212246.227 6
  23344642.662    -3065850.368 6  -2309018.909 6
  22774261.865    -5577853.518 6  -4231181.324 7
  23472055.959    -1325080.870 5   -931551.838 5
  20307945.912   -14889515.587 7 -11524160.272 9
 94  2 14 20 30 29.9980000  0  8 18 14 19 27 28 22 31 29
  20023368.982   -20705744.650 8 -16024489.673 9
  22692899.256     4913243.045 6   3905658.070 6
  21130634.498   -14268396.267 7 -11004868.975 9
  23196296.436    -4314366.731 5  -3270492.736 6
  23335534.607    -3113712.162 6  -2346313.633 6
  22792048.217    -5484387.457 6  -4158350.695 7
  23456202.443    -1408392.532 5   -996469.874 5
  20312438.990   -14865902.303 7 -11505760.332 9
 94  2 14 20 30 59.9980000  0  8 18 14 19 27 28 22 31 29
  20017064.771   -20738873.886 8 -16050304.648 9
  22713367.287     5020800.908 6   3989469.286 6
  21122400.451   -14311665.958 7 -11038585.585 9
  23182095.561    -4388992.118 6  -3328642.304 6
  23326499.787    -3161184.154 5  -2383304.589 6
  22809884.936    -5390652.854 6  -4085310.809 7
  23440368.006    -1491596.193 5  -1061303.740 5
  20317009.326   -14841885.715 7 -11487046.126 9
 94  2 14 20 31 29.9980000  0  8 18 14 19 27 28 22 31 29
  20010828.053   -20771648.392 8 -16075843.215 9
  22733865.631     5128517.520 6   4073404.153 6
  21114212.170   -14354697.139 7 -11072116.348 9
  23167920.740    -4463487.195 6  -3386690.330 6
  23317540.162    -3208266.460 5  -2419991.886 6
  22827770.232    -5296666.550 6  -4012074.805 7
  23424553.803    -1574696.183 4  -1126056.788 5
  20321655.646   -14817470.898 7 -11468021.615 9
 94  2 14 20 31 59.9980000  0  8 18 14 19 27 28 22 31 29
  20004655.318   -20804084.112 8 -16101117.788 9
  22754394.225     5236401.045 5   4157469.092 6
  21106071.365   -14397476.623 7 -11105450.982 9
  23153768.732    -4537851.265 6  -3444636.262 6
  23308657.404    -3254951.472 6  -2456369.648 6
  22845701.225    -5202438.817 6  -3938650.665 7
  23408760.787    -1657692.804 5  -1190729.298 5
  20326378.139   -14792652.725 7 -11448682.803 9
 94  2 14 20 32 29.9980000  0  8 18 14 19 27 28 22 31 29
  19998547.998   -20836178.897 8 -16126126.699 9
  22774955.037     5344443.859 6   4241658.169 6
  21097978.529   -14440004.857 7 -11138589.839 9
  23139638.381    -4612101.132 5  -3502493.230 6
  23299850.467    -3301231.069 6  -2492431.476 6
  22863677.303    -5107976.604 6  -3865043.803 7
  23392990.982    -1740573.829 5  -1255311.746 5
  20331176.436   -14767438.525 7 -11429035.397 9
 94  2 14 20 32 59.9980000  0  8 18 14 19 27 28 22 31 29
  19992506.506   -20867928.536 8 -16150866.672 9
  22795544.576     5452643.107 6   4325969.120 6
  21089931.295   -14482292.638 7 -11171541.332 9
  23125529.818    -4686245.011 6  -3560267.591 6
  23291119.475    -3347112.347 6  -2528182.975 6
  22881696.631    -5013279.864 6  -3791254.197 7
  23377244.248    -1823324.688 5  -1319792.739 5
  20336047.256   -14741842.637 7 -11409090.565 9
 94  2 14 20 33 29.9980000  0  8 18 14 19 27 28 22 31 29
  19986528.842   -20899340.980 8 -16175343.897 9
  22816164.928     5561000.865 6   4410403.627 6
  21081927.857   -14524351.473 7 -11204314.430 9
  23111440.904    -4760281.894 5  -3617958.591 6
  23282461.756    -3392603.566 6  -2563630.539 6
  22899761.053    -4918351.885 6  -3717284.399 7
  23361523.396    -1905934.695 5  -1384164.001 6
  20340989.920   -14715869.077 7 -11388851.442 9
 94  2 14 20 33 59.9980000  0  8 18 14 19 27 28 22 31 29
  19980617.045   -20930407.698 8 -16199551.730 9
  22836814.209     5669513.897 6   4494959.042 6
  21073963.990   -14566201.040 7 -11236924.459 9
  23097370.467    -4834214.620 5  -3675568.443 6
  23273879.365    -3437709.398 6  -2598777.803 6
  22917868.779    -4823196.933 6  -3643137.736 7
  23345829.826    -1988402.264 5  -1448424.247 6
  20346004.459   -14689517.267 7 -11368317.576 9
 94  2 14 20 34 29.9980000  0  8 18 14 19 27 28 22 31 29
  19974775.365   -20961104.866 8 -16223471.597 9
  22857490.467     5778170.628 6   4579626.507 6
  21066036.631   -14607859.663 7 -11269385.701 9
  23083326.818    -4908020.670 5  -3733079.561 6
  23265370.686    -3482419.081 6  -2633616.408 6
  22936018.717    -4727817.305 6  -3568816.011 7
  23330166.553    -2070715.387 5  -1512564.180 6
  20351092.178   -14662783.442 7 -11347486.036 9
 94  2 14 20 34 59.9980000  0  8 18 14 19 27 28 22 31 29
  19969003.967   -20991433.623 8 -16247104.391 9
  22878194.764     5886969.877 6   4664404.985 6
  21058143.639   -14649338.100 7 -11301706.543 9
  23069309.326    -4981683.306 6  -3790478.955 6
  23256935.303    -3526746.898 6  -2668157.475 6
  22954212.279    -4632209.890 6  -3494316.794 7
  23314530.303    -2152879.731 5  -1576588.160 5
  20356252.115   -14635666.892 7 -11326356.270 9
 94  2 14 20 35 29.9980000  0  8 18 14 19 27 28 22 31 29
  19963306.381   -21021377.344 8 -16270437.163 9
  22898926.107     5995913.533 6   4749295.999 6
  21050286.951   -14690626.745 7 -11333879.484 9
  23055320.646    -5055195.386 6  -3847761.027 6
  23248572.732    -3570695.721 6  -2702403.217 6
  22972448.139    -4536379.072 6  -3419643.483 6
  23298922.389    -2234899.871 5  -1640499.760 5
  20361486.115   -14608162.149 7 -11304924.009 9
 94  2 14 20 35 59.9980000  0  8 18 14 19 27 28 22 31 29
  19957685.912   -21050912.073 8 -16293451.245 9
  22919684.420     6104996.688 6   4834295.692 6
  21042469.061   -14731708.676 7 -11365891.346 9
  23041358.600    -5128567.684 6  -3904934.189 6
  23240281.287    -3614264.022 6  -2736352.465 6
  22990726.779    -4440325.503 6  -3344796.601 6
  23283342.615    -2316766.323 5  -1704291.631 5
  20366793.889   -14580269.411 7 -11283189.418 9
 94  2 14 20 36 29.9980000  0  8 18 14 19 27 28 22 31 29
  19952143.529   -21080037.341 8 -16316146.259 9
  22940468.404     6214221.000 6   4919405.402 6
  21034696.943   -14772551.341 7 -11397716.762 9
  23027421.982    -5201805.236 6  -3962002.346 6
  23232064.021    -3657447.280 6  -2770001.716 6
  23009050.154    -4344034.867 6  -3269765.007 6
  23267796.311    -2398464.732 5  -1767952.560 5
  20372176.693   -14551982.294 7 -11261147.518 9
 94  2 14 20 36 59.9980000  0  8 18 14 19 27 28 22 31 29
  19946676.162   -21108766.651 8 -16338532.735 9
  22961280.943     6323592.477 5   5004629.791 6
  21026974.373   -14813133.095 7 -11429338.878 9
  23013508.912    -5274918.352 6  -4018973.541 6
  23223918.990    -3700246.847 6  -2803351.984 6
  23027422.553    -4247491.532 6  -3194536.513 6
  23252281.342    -2479990.781 5  -1831479.170 5
  20377634.373   -14523299.977 7 -11238797.669 9
 94  2 14 20 37 29.9980000  0  8 18 14 19 27 28 22 31 29
  19941285.717   -21137095.759 8 -16360607.355 9
  22982118.373     6433093.135 5   5089954.805 5
  21019302.959   -14853447.320 7 -11460752.530 9
  22999620.045    -5347908.018 6  -4075848.545 6
  23215853.186    -3742634.433 6  -2836381.238 6
  23045840.951    -4150702.207 6  -3119116.325 6
  23236799.506    -2561352.016 5  -1894877.353 5
  20383169.240   -14494215.603 7 -11216134.535 9
 94  2 14 20 37 59.9980000  0  8 18 14 19 27 28 22 31 29
  19935968.912   -21165035.292 8 -16382378.419 9
  23002980.287     6542719.059 5   5175377.417 5
  21011681.795   -14893497.389 7 -11491960.339 9
  22985754.803    -5420766.121 5  -4132621.020 6
  23207870.482    -3784583.363 6  -2869068.698 6
  23064307.615    -4053658.578 6  -3043497.998 6
  23221348.936    -2642548.660 5  -1958147.342 6
  20388782.209   -14464718.555 7 -11193149.837 9
 94  2 14 20 38 29.9980000  0  8 18 14 19 27 28 22 31 29
  19930720.568   -21192614.522 8 -16403868.723 9
  23023859.506     6652442.369 5   5260875.982 5
  21004103.850   -14933318.353 7 -11522989.622 9
  22971914.568    -5493498.555 5  -4189295.577 6
  23199970.795    -3826097.190 6  -2901417.119 6
  23082819.881    -3956376.296 6  -2967693.703 6
  23205923.693    -2723608.843 5  -2021310.978 5
  20394471.568   -14434822.859 7 -11169854.507 9
 94  2 14 20 38 59.9980000  0  8 18 14 19 27 28 22 31 29
  19925542.154   -21219827.184 8 -16425073.396 9
  23044757.639     6762257.983 5   5346446.383 5
  20996566.092   -14972930.470 7 -11553856.167 9
  22958099.115    -5566096.768 5  -4245865.568 5
  23192156.170    -3867162.511 6  -2933416.082 6
  23101375.717    -3858865.977 6  -2891711.719 6
  23190524.514    -2804534.960 6  -2084370.206 6
  20400235.928   -14404531.184 8 -11146250.623 9
 94  2 14 20 39 29.9980000  0  8 18 14 19 27 28 22 31 29
  19920437.795   -21246651.444 8 -16445975.403 9
  23065672.389     6872173.852 5   5432094.946 5
  20989066.818   -15012338.113 7 -11584563.385 9
  22944309.850    -5638560.693 5  -4302330.901 5
  23184427.928    -3907777.597 6  -2965064.204 7
  23119972.131    -3761142.558 6  -2815563.689 6
  23175150.396    -2885323.812 5  -2147322.463 6
  20406076.412   -14373840.104 8 -11122335.519 9
 94  2 14 20 39 59.9980000  0  8 18 14 19 27 28 22 31 29
  19915405.982   -21273093.939 8 -16466579.934 9
  23086613.146     6982210.927 5   5517837.953 6
  20981605.498   -15051547.525 7 -11615116.132 9
  22930542.865    -5710905.957 5  -4358703.772 6
  23176781.311    -3947963.292 6  -2996377.716 7
  23138607.740    -3663212.060 6  -2739254.301 6
  23159806.342    -2965950.604 5  -2210148.418 6
  20411990.514   -14342757.672 7 -11098115.456 9
 94  2 14 20 40 29.9980000  0  8 18 14 19 27 28 22 31 29
  19910447.928   -21299148.686 8 -16486882.324 9
  23107575.975     7092377.370 5   5603681.765 5
  20974182.475   -15090556.569 7 -11645512.752 9
  22916797.756    -5783139.028 5  -4414989.235 5
  23169211.287    -3987741.954 6  -3027374.078 6
  23157281.553    -3565076.851 6  -2662785.396 6
  23144499.420    -3046395.503 6  -2272832.672 6
  20417979.670   -14311284.846 7 -11073591.189 9
 94  2 14 20 40 59.9980000  0  8 18 14 19 27 28 22 31 29
  19905566.342   -21324800.482 8 -16506870.727 9
  23128569.709     7202692.457 5   5689641.404 5
  20966799.600   -15129354.610 7 -11675744.954 9
  22903073.615    -5855260.020 5  -4471187.354 6
  23161718.107    -4027117.761 6  -3058056.513 6
  23175994.201    -3466742.721 6  -2586161.490 6
  23129229.662    -3126636.516 5  -2335358.097 6
  20424044.420   -14279415.286 7 -11048757.772 9
 94  2 14 20 41 29.9980000  0  8 18 14 19 27 28 22 31 29
  19900763.154   -21350042.292 8 -16526539.658 9
  23149588.936     7313154.111 5   5775715.225 5
  20959457.412   -15167935.714 7 -11705808.115 9
  22889372.568    -5927258.677 5  -4527290.152 6
  23154302.693    -4066081.380 6  -3088417.792 6
  23194744.662    -3368208.457 6  -2509381.613 6
  23114003.131    -3206647.856 5  -2397704.549 6
  20430186.920   -14247138.642 8 -11023607.150 9
 94  2 14 20 41 59.9980000  0  8 18 14 19 27 28 22 31 29
  19896035.850   -21374884.714 8 -16545897.377 9
  23170633.943     7423739.358 5   5861885.349 5
  20952154.139   -15206314.000 7 -11735713.236 9
  22875696.826    -5999124.874 5  -4583289.724 6
  23146966.615    -4104630.121 6  -3118455.768 1
  23213532.186    -3269480.497 6  -2432450.800 6
  23098821.631    -3286424.821 5  -2459868.341 6
  20436404.107   -14214465.546 7 -10998147.612 9
 94  2 14 20 42 29.9980000  0  8 18 14 19 27 28 22 31 29
  19891386.365   -21399317.440 8 -16564935.848 9
  23191693.772     7534414.958 5   5948125.954 5
  20944889.381   -15244492.288 7 -11765462.519 9
  22862049.553    -6070844.300 5  -4639174.928 6
  23139713.131    -4142752.530 6
  23232354.412    -3170569.419 6  -2355377.334 6
  23083682.537    -3365984.371 5  -2521862.740 5
  20442696.373   -14181398.073 7 -10972380.763 9
 94  2 14 20 42 59.9980000  0  8 18 14 19 27 28 22 31 29
  19886819.498   -21423316.632 8 -16583636.497 9
  23212771.662     7645174.803 5   6034432.087 5
  20937664.100   -15282460.689 7 -11795048.256 9
  22848430.811    -6142406.580 5  -4694937.682 6
  23132547.732    -4180402.783 6    -11689.30516
  23251212.686    -3071469.011 6  -2278156.319 6
  23068585.912    -3445319.906 5  -2583682.554 5
  20449066.420   -14147923.435 7 -10946296.642 9
 94  2 14 20 43 29.9980000  0  8 18 14 19 27 28 22 31 29
  19882332.225   -21446896.297 8 -16602010.239 9
  23233860.646     7756000.228 5   6120789.417 5
  20930478.826   -15320219.730 7 -11824470.860 9
  22834839.912    -6213821.736 5  -4750585.791 6
  23125473.639    -4217576.918 6    -40656.118 6
  23270105.443    -2972186.156 6  -2200793.127 6
  23053528.529    -3524447.330 6  -2645340.178 6
  20455512.982   -14114047.632 7 -10919899.928 9
 94  2 14 20 43 59.9980000  0  8 18 14 19 27 28 22 31 29
  19877924.420   -21470059.885 8 -16620059.763 9
  23254965.686     7866904.796 5   6207208.347 6
  20923336.342   -15357752.456 7 -11853717.120 9
  22821276.271    -6285101.710 5  -4806128.560 6
  23118490.420    -4254274.855 6    -69251.857 6
  23289035.123    -2872712.875 6  -2123281.557 6
  23038507.701    -3603378.879 5  -2706845.121 6
  20462037.428   -14079762.367 8 -10893184.151 9
 94  2 14 20 44 29.9980000  0  8 18 14 19 27 28 22 31 29
  19873594.678   -21492814.092 8 -16637790.294 9
  23276085.896     7977892.685 5   6293692.229 5
  20916239.350   -15395047.870 7 -11882778.458 9
  22807734.021    -6356266.777 5  -4861581.804 6
  23111597.928    -4290497.134 6    -97476.947 6
  23308001.201    -2773042.816 6  -2045616.646 6
  23023523.803    -3682117.961 5  -2768200.138 5
  20468643.029   -14045048.326 8 -10866134.266 9
 94  2 14 20 44 59.9980000  0  8 18 14 19 27 28 22 31 29
  19869340.232   -21515171.300 8 -16655211.479 9
  23297227.404     8088991.924 5   6380262.866 5
  20909187.162   -15432106.453 7 -11911655.262 9
  22794213.037    -6427320.163 5  -4916947.995 6
  23104793.256    -4326254.646 6   -125339.869 6
  23327006.592    -2673170.488 6  -1967794.152 6
  23008580.076    -3760642.635 5  -2829388.066 6
  20475333.498   -14009891.668 8 -10838739.493 9
 94  2 14 20 45 29.9980000  0  8 18 14 19 27 28 22 31 29
  19865157.389   -21537152.255 8 -16672339.479 9
  23318391.803     8200208.230 5   6466924.763 6
  20902180.865   -15468924.999 7 -11940345.025 9
  22780715.834    -6498248.679 5  -4972216.910 6
  23098071.740    -4361578.335 6   -152864.747 6
  23346048.639    -2573104.503 6  -1889820.738 6
  22993679.701    -3838948.516 5  -2890405.386 6
  20482106.311   -13974301.262 8 -10811006.736 9
 94  2 14 20 45 59.9980000  0  8 18 14 19 27 28 22 31 29
  19861047.068   -21558751.751 8 -16689170.235 9
  23339577.123     8311537.596 5   6553674.686 5
  20895218.607   -15505512.508 7 -11968854.754 9
  22767244.420    -6569041.142 5  -5027379.796 6
  23091431.147    -4396472.762 6   -180055.129 6
  23365128.436    -2472842.677 6  -1811694.704 6
  22978823.873    -3917016.683 5  -2951237.581 5
  20488960.647   -13938280.263 8 -10782938.454 9
 94  2 14 20 46 29.9980000  0  8 18 14 19 27 28 22 31 29
  19857011.850   -21579956.466 8 -16705693.372 9
  23360782.623     8422972.056 5   6640506.536 5
  20888298.451   -15541877.691 7 -11997191.236 9
  22753800.068    -6639690.333 5  -5082431.040 6
  23084873.248    -4430934.911 6   -206908.674 6
  23384244.553    -2372382.600 6  -1733414.186 6
  22964016.514    -3994829.116 5  -3011870.446 6
  20495895.975   -13901831.859 7 -10754537.120 9
 94  2 14 20 46 59.9980000  0  8 18 14 19 27 28 22 31 29
  19853053.279   -21600758.634 8 -16721902.840 9
  23382007.568     8534509.403 5   6727418.573 5
  20881421.451   -15578016.418 7 -12025351.253 9
  22740385.607    -6710187.478 6  -5137363.807 6
  23078398.662    -4464960.947 6   -233422.411 6
  23403398.521    -2271726.969 5  -1654981.309 6
  22949260.303    -4072379.158 6  -3072298.791 6
  20502909.061   -13864979.380 7 -10725820.931 9
 94  2 14 20 47 29.9980000  0  8 18 14 19 27 28 22 31 29
  19849173.521   -21621147.012 8 -16737789.872 9
  23403246.709     8646121.222 5   6814388.569 5
  20874588.053   -15613927.633 7 -12053333.984 9
  22726996.264    -6780545.734 6  -5192188.346 6
  23072008.756    -4498541.354 6   -259588.899 6
  23422589.842    -2170878.765 6  -1576398.378 6
  22934549.397    -4149684.764 6  -3132536.719 6
  20509994.264   -13827746.056 7 -10696807.972 9
 94  2 14 20 47 59.9980000  0  8 18 14 19 27 28 22 31 29
  19845378.334   -21641090.940 8 -16753330.586 9
  23424498.506     8757800.438 5   6901411.170 5
  20867797.670   -15649610.365 7 -12081138.677 9
  22713628.147    -6850792.390 5  -5246925.938 6
  23065706.576    -4531655.092 6   -285391.757 6
  23441817.990    -2069833.484 6  -1497661.856 6
  22919883.193    -4226752.203 6  -3192589.039 6
  20517152.389   -13790130.017 7 -10667496.789 9
 94  2 14 20 48 29.9980000  0  8 18 14 19 27 28 22 31 29
  19841669.686   -21660580.596 8 -16768517.320 9
  23445763.381     8869548.006 5   6988486.971 5
  20861051.717   -15685058.668 7 -12108760.693 9
  22700279.443    -6920941.138 5  -5301587.204 6
  23059494.506    -4564300.204 6   -310829.471 6
  23461081.678    -1968603.321 6  -1418781.276 6
  22905258.225    -4303603.072 6  -3252472.594 6
  20524381.959   -13752139.780 7 -10637894.024 9
 94  2 14 20 48 59.9980000  0  8 18 14 19 27 28 22 31 29
  19838048.318   -21679611.125 8 -16783346.292 9
  23467042.217     8981362.809 5   7075615.164 5
  20854352.623   -15720263.831 7 -12136193.247 9
  22686950.967    -6990980.798 5  -5356163.496 6
  23053374.459    -4596464.666 6   -335892.654 6
  23480378.021    -1867200.461 5  -1339766.126 6
  22890674.639    -4380241.241 6  -3312190.344 6
  20531682.232   -13713777.377 7 -10608001.262 9
 94  2 14 20 49 29.9980000  0  8 18 14 19 27 28 22 31 29
  19834515.506   -21698176.411 8 -16797812.734 9
  23488330.514     9093233.949 5   7162787.277 5
  20847697.779   -15755235.380 7 -12163443.760 9
  22673644.678    -7060909.522 6  -5410653.327 6
  23047346.022    -4628141.611 6   -360575.956 6
  23499703.537    -1765643.261 5  -1260630.714 6
  22876131.443    -4456666.742 6  -3371742.547 6
  20539056.443   -13675024.981 8 -10577804.607 9
 94  2 14 20 49 59.9980000  0  8 18 14 19 27 28 22 31 29
  19831069.771   -21716283.311 8 -16811921.993 9
  23509630.271     9205165.824 5   7250006.723 5
  20841088.295   -15789968.252 7 -12190508.287 9
  22660359.451    -7130721.886 5  -5465052.463 6
  23041409.686    -4659332.987 6   -384880.892 6
  23519056.576    -1663943.746 6  -1181384.427 6
  22861630.982    -4532863.410 6  -3431116.317 6
  20546509.068   -13635860.361 7 -10547286.740 9
 94  2 14 20 50 29.9980000  0  8 18 14 19 27 28 22 31 29
  19827705.529   -21733962.901 8 -16825698.285 9
  23530940.139     9317149.534 5   7337266.552 5
  20834521.420   -15824478.271 7 -12217399.174 9
  22647101.818    -7200392.368 6  -5519341.055 6
  23035566.186    -4690040.684 6   -408808.934 6
  23538437.787    -1562096.201 6  -1102022.751 6
  22847178.561    -4608812.616 6  -3490297.321 6
  20554043.248   -13596268.022 7 -10516435.582 9
 94  2 14 20 50 59.9980000  0  8 18 14 19 27 28 22 31 29
  19824418.732   -21751235.747 8 -16839157.634 9
  23552256.131     9429166.073 5   7424551.916 5
  20827992.592   -15858785.136 7 -12244131.754 9
  22633871.686    -7269914.695 6  -5573514.194 6
  23029814.654    -4720268.886 6   -432363.349 6
  23557845.615    -1460109.460 6  -1022552.615 6
  22832773.818    -4684498.157 5  -3549272.942 6
  20561659.646   -13556242.976 7 -10485247.252 9
 94  2 14 20 51 29.9980000  0  8 18 14 19 27 28 22 31 29
  19821207.678   -21768108.743 8 -16852305.410 9
  23573576.654     9541203.806 5   7511853.845 5
  20821499.771   -15892906.656 7 -12270719.913 9
  22620667.982    -7339300.207 6  -5627580.715 6
  23024149.889    -4750037.253 6   -455559.436 6
  23577280.115    -1357978.715 6   -942970.298 6
  22818423.256    -4759923.050 6  -3608045.402 6
  20569359.451   -13515782.331 7 -10453719.495 9
 94  2 14 20 51 59.9980000  0  8 18 14 19 27 28 22 31 29
  19818073.326   -21784580.680 8 -16865140.676 9
  23594904.787     9653277.635 5   7599183.910 5
  20815041.365   -15926845.534 7 -12297165.751 9
  22607491.318    -7408543.856 6  -5681536.703 6
  23018572.318    -4779346.371 6   -478397.667 6
  23596747.975    -1255675.271 6   -863253.415 6
  22804119.662    -4835079.275 5  -3666608.631 6
  20577139.826   -13474896.663 7 -10421860.559 9
 94  2 14 20 52 29.9980000  0  8 18 14 19 27 28 22 31 29
  19815017.373   -21800639.938 8 -16877654.366 9
  23616237.381     9765393.382 3   7686546.562 4
  20808617.139   -15960605.124 7 -12323471.894 9
  22594344.490    -7477631.642 6  -5735371.242 6
  23013085.225    -4808181.875 6   -500866.844 6
  23616249.834    -1153194.430 6   -783398.261 6
  22789869.521    -4909974.899 6  -3724968.697 6
  20584997.373   -13433605.209 7 -10389685.429 9
 94  2 14 20 52 59.9980000  0  8 18 14 19 27 28 22 31 29
  19812046.389   -21816251.760 8 -16889819.408 9
  23637584.459     9877567.700 4   7773954.840 3
  20802233.061   -15994153.106 7 -12349613.148 9
  22581229.068    -7546555.050 6  -5789077.684 6
  23007690.029    -4836533.834 6   -522959.217 6
  23635782.053    -1050549.444 5   -703415.223 6
  22775666.873    -4984609.948 6  -3783125.821 6
  20592930.897   -13391913.508 7 -10357198.418 9
 94  2 14 20 53 29.9980000  0  8 18 14 19 27 28 22 31 29
  19809162.662   -21831406.788 8 -16901628.513 9
  23658944.350     9989810.882 5   7861416.926 4
  20795894.021   -16027464.352 7 -12375569.934 9
  22568141.482    -7615329.362 6  -5842667.949 6
  23002387.287    -4864397.122 6   -544670.804 6
  23655345.420     -947743.120 5   -623306.477 6
  22761513.545    -5058980.017 6  -3841076.402 6
  20600939.623   -13349827.098 7 -10324403.843 9
 94  2 14 20 53 59.9980000  0  8 18 14 19 27 28 22 31 29
  19806365.373   -21846107.112 8 -16913083.302 9
  23680319.396    10102134.664 5   7948941.691 5
  20789604.756   -16060515.191 7 -12401323.807 9
  22555083.350    -7683949.882 6  -5896138.382 6
  22997180.342    -4891761.290 6   -565993.468 6
  23674935.764     -844794.715 6   -543087.011 6
  22747414.600    -5133072.678 6  -3898810.931 7
  20609024.545   -13307339.854 7 -10291296.927 9
 94  2 14 20 54 29.9980000  0  8 18 14 19 27 28 22 31 29
  19803652.537   -21860361.291 8 -16924190.436 9
  23701706.662    10214524.240 5   8036517.743 5
  20783366.561   -16093297.740 7 -12426868.639 9
  22542052.850    -7752423.269 6  -5949494.149 6
  22992066.068    -4918638.231 6   -586936.460 6
  23694546.740     -741737.859 5   -462783.026 6
  22733366.068    -5206892.287 6  -3956332.570 6
  20617186.904   -13264446.137 7 -10257873.273 9
 94  2 14 20 54 59.9980000  0  8 18 14 19 27 28 22 31 29
  19801025.240   -21874168.285 8 -16934949.120 9
  23723102.850    10326958.267 5   8124128.496 5
  20777177.279   -16125822.137 7 -12452212.305 9
  22529046.811    -7820772.051 6  -6002752.838 6
  22987041.373    -4945043.685 6   -607512.061 6
  23714177.959     -638574.295 5   -382395.872 6
  22719376.256    -5280416.291 6  -4013624.042 6
  20625427.756   -13221139.632 7 -10224127.967 9
 94  2 14 20 55 29.9980000  0  8 18 14 19 27 28 22 31 29
  19798483.178   -21887527.853 8 -16945359.166 9
  23744506.443    10439439.874 3   8211776.258 3
  20771033.045   -16158110.430 7 -12477372.000 9
  22516062.537    -7889004.275 6  -6055920.715 6
  22982107.928    -4970969.073 6   -627713.588 6
  23733832.162     -535287.587 5   -301912.815 5
  22705442.076    -5353634.037 6  -4070676.754 6
  20633749.162   -13177412.422 7 -10190054.839 9
 94  2 14 20 55 59.9980000  0  8 18 14 19 27 28 22 31 29
  19796026.662   -21900436.613 8 -16955417.930 9
  23765919.514    10551964.095 4   8299457.176 5
  20764931.084   -16190177.363 8 -12502359.206 9
  22503103.631    -7957102.479 6  -6108984.143 6
  22977269.717    -4996396.776 6   -647527.313 7
  23753513.857     -431866.498 5   -221325.005 6
  22691567.818    -5426546.430 6  -4127491.609 6
  20642151.084   -13133258.195 7 -10155648.973 9
 94  2 14 20 56 29.9980000  0  8 18 14 19 27 28 22 31 29
  19793654.459   -21912902.212 8 -16965131.374 9
  23787333.717    10664495.614 5   8387143.829 4
  20758864.068   -16222059.400 8 -12527202.338 9
  22490167.975    -8025080.815 6  -6161954.208 6
  22972526.225    -5021318.844 6   -666947.049 7
  23773220.615     -328306.854 5   -140629.243 6
  22677750.607    -5499157.108 6  -4184071.355 6
  20650628.772   -13088709.756 7 -10120935.932 9
 94  2 14 20 56 59.9980000  0  7 18 19 27 28 22 31 29
  19791368.998   -21924911.993 8 -16974489.632 9
  20752832.412   -16253756.064 7 -12551901.025 9
  22477254.904    -8092938.086 6  -6214829.923 6
  22967884.654    -5045711.806 6   -685954.496 7
  23792957.561     -224587.854 5    -59809.355 6
  22663993.334    -5571452.830 6  -4240405.639 6
  20659181.029   -13043767.181 7 -10085915.778 9
 94  2 14 20 57 29.9980000  0  7 18 19 27 28 22 31 29
  19789170.537   -21936464.809 8 -16983491.815 9
  20746840.787   -16285240.916 7 -12576434.657 9
  22464368.311    -8160655.507 5  -6267596.675 6
  22963346.975    -5069556.555 6   -704534.771 7
  23812725.537     -120707.969 5     21135.923 6
  22650294.803    -5643441.848 6  -4296500.957 6
  20667811.951   -12998411.355 7 -10050573.606 9
 94  2 14 20 57 59.9980000  0  7 18 19 27 28 22 31 29
  19787055.592   -21947577.298 8 -16992150.883 9
  20740889.756   -16316513.404 7 -12600802.812 9
  22451508.311    -8228234.832 5  -6320255.823 6
  22958910.982    -5092867.107 6   -722698.795 6
  23832522.389      -16679.320 6    102197.120 6
  22636652.162    -5715134.632 6  -4352365.447 7
  20676520.764   -12952648.771 7 -10014914.487 9
 94  2 14 20 58 29.9980000  0  7 18 19 27 28 22 31 29
  19785026.654   -21958241.638 8 -17000460.753 9
  20734977.725   -16347581.322 7 -12625011.564 9
  22438673.209    -8295686.785 6  -6372815.717 6
  22954573.459    -5115662.914 6   -740461.722 7
  23852344.131       87486.575 6    183365.277 6
  22623065.264    -5786532.952 6  -4408000.468 6
  20685307.600   -12906470.816 7  -9978931.701 9
 94  2 14 20 58 59.9980000  0  7 18 19 27 28 22 31 29
  19783083.521   -21968452.177 8 -17008417.003 9
  20729106.061   -16378437.273 7 -12649055.143 9
  22425861.186    -8363012.959 6  -6425277.618 6
  22950328.764    -5137967.291 6   -757841.723 6
  23872188.061      191772.101 5    264626.651 5
  22609532.404    -5857644.384 6  -4463411.984 6
  20694179.896   -12859847.150 7  -9942601.605 9
 94  2 14 20 59 29.9980000  0  7 18 19 27 28 22 31 29
  19781226.975   -21978207.497 8 -17016018.543 9
  20723275.850   -16409074.594 7 -12672928.360 9
  22413075.967    -8430199.181 5  -6477630.464 6
  22946178.982    -5159776.124 6   -774835.603 6
  23892055.482      296175.262 5    345979.641 6
  22596057.912    -5928453.916 6  -4518588.193 6
  20703139.811   -12812763.055 7  -9905912.734 9
 94  2 14 20 59 59.9980000  0  7 18 19 27 28 22 31 29
  19779456.904   -21987510.307 8 -17023267.471 9
  20717484.264   -16439510.643 7 -12696644.745 9
  22400317.498    -8497243.534 5  -6529872.743 6
  22942122.818    -5181090.325 6   -791444.055 7
  23911944.365      400687.781 5    427417.872 5
  22582642.365    -5998950.213 6  -4573520.377 6
  20712185.201   -12765228.697 7  -9868873.006 9
 94  2 14 21  0 29.9980000  0  7 18 19 27 28 22 31 29
  19777773.584   -21996356.007 8 -17030160.208 9
  20711732.811   -16469734.072 7 -12720195.458 9
  22387586.881    -8564143.871 5  -6582002.801 6
  22938159.068    -5201918.323 6   -807673.652 6
  23931853.412      505307.747 5    508939.845 6
  22569291.576    -6069114.046 6  -4628193.489 6
  20721315.592   -12717249.028 7  -9831486.285 9
 94  2 14 21  0 59.9980000  0  7 18 19 27 28 22 31 29
  19776174.490   -22004758.211 8 -17036707.368 9
  20706025.514   -16499726.255 7 -12743565.982 9
  22374885.170    -8630892.378 5  -6634014.553 6
  22934288.295    -5222260.236 6   -823524.470 6
  23951784.092      610043.427 5    590551.964 5
  22556002.936    -6138945.370 6  -4682607.507 6
  20730527.654   -12668840.332 7  -9793765.259 9
 94  2 14 21  1 29.9980000  0  7 18 19 27 28 22 31 29
  19774658.537   -22012724.866 8 -17042915.143 9
  20700362.115   -16529487.744 7 -12766756.743 9
  22362211.959    -8697489.857 5  -6685908.625 6
  22930509.428    -5242114.737 6   -838995.487 7
  23971736.975      714895.336 5    672254.648 5
  22542775.271    -6208456.224 6  -4736771.820 6
  20739817.045   -12620022.485 7  -9755725.412 9
 94  2 14 21  1 59.9980000  0  6 18 19 27 28 31 29
  19773228.365   -22020240.555 8 -17048771.509 9
  20694743.365   -16559012.386 7 -12789762.946 9
  22349569.303    -8763928.692 5  -6737679.057 6
  22926825.514    -5261474.228 6   -854080.784 7
  22529608.248    -6277651.895 6  -4790690.494 6
  20749183.123   -12570805.910 7  -9717374.868 9
 94  2 14 21  2 29.9980000  0  6 18 19 27 28 31 29
  19771889.193   -22027277.013 8 -17054254.456 9
  20689171.693   -16588292.504 7 -12812578.604 9
  22336955.646    -8830210.491 5  -6789327.131 6
  22923237.693    -5280329.496 6   -868773.168 7
  22516501.201    -6346532.177 6  -4844363.388 6
  20758624.873   -12521188.846 7  -9678712.256 9
 94  2 14 21  2 59.9980000  0  6 18 19 27 28 31 29
  19770643.436   -22033824.368 8 -17059356.284 9
  20683644.396   -16617339.046 7 -12835212.260 9
  22324369.725    -8896349.675 5  -6840864.058 6
  22919751.811    -5298652.006 6   -883050.417 7
  22503451.600    -6415107.709 6  -4897798.802 7
  20768143.201   -12471170.110 7  -9639736.646 9
 94  2 14 21  3 29.9980000  0  6 18 19 27 28 31 29
  19769491.350   -22039876.189 8 -17064071.976 9
  20678158.811   -16646165.795 7 -12857674.642 9
  22311809.123    -8962355.523 5  -6892297.091 6
  22916370.928    -5316418.896 6   -896894.708 7
  22490461.771    -6483364.289 6  -4950985.683 6
  20777736.818   -12420754.458 7  -9600451.753 9
 94  2 14 21  3 59.9980000  0  6 18 19 27 28 31 29
  19768434.764   -22045430.139 8 -17068399.719 9
  20672711.311   -16674791.853 7 -12879980.640 9
  22299270.678    -9028247.466 5  -6943641.380 6
  22913097.654    -5333620.704 6   -910298.650 7
  22477538.873    -6551278.855 6  -5003906.018 7
  20787404.436   -12369952.699 7  -9560865.989 9
 94  2 14 21  4 29.9980000  0  6 18 19 27 28 31 29
  19767471.592   -22050492.008 8 -17072344.022 9
  20667303.623   -16703210.020 7 -12902124.642 9
  22286753.287    -9094027.759 5  -6994898.674 6
  22909931.537    -5350255.101 6   -923260.469 7
  22464683.100    -6618829.322 6  -5056542.666 6
  20797147.201   -12318751.314 7  -9520968.820 9
 94  2 14 21  4 59.9980000  0  6 18 19 27 28 31 29
  19766598.272   -22055082.235 8 -17075920.810 9
  20661936.959   -16731412.901 7 -12924100.888 9
  22274256.475    -9159691.132 5  -7046064.863 6
  22906873.842    -5366320.700 6   -935779.048 7
  22451902.404    -6685995.721 6  -5108879.937 7
  20806967.209   -12267146.956 7  -9480757.646 9
 94  2 14 21  5 29.9980000  0  6 18 19 27 28 31 29
  19765811.482   -22059216.122 8 -17079142.007 9
  20656609.022   -16759410.491 7 -12945917.166 9
  22261784.350    -9225234.343 5  -7097137.424 6
  22903919.732    -5381842.995 6   -947874.266 7
  22439194.701    -6752770.910 6  -5160912.476 6
  20816862.381   -12215148.832 7  -9440239.646 9
 94  2 14 21  5 59.9980000  0  6 18 19 27 28 31 29
  19765114.975   -22062876.133 8 -17081993.957 9
  20651324.607   -16787179.202 7 -12967555.099 9
  22249340.217    -9290636.755 6  -7148100.268 6
  22901068.451    -5396830.770 6   -959552.959 7
  22426565.162    -6819143.817 6  -5212631.462 7
  20826837.561   -12162725.389 7  -9399390.220 9
 94  2 14 21  6 29.9980000  0  6 18 19 27 28 31 29
  19764505.865   -22066076.982 8 -17084488.110 9
  20646084.014   -16814719.157 7 -12989014.766 9
  22236921.639    -9355894.582 6  -7198950.465 6
  22898313.068    -5411309.917 6   -970835.315 7
  22414007.037    -6885135.779 6  -5264053.610 7
  20836892.873   -12109885.676 7  -9358216.432 9
 94  2 14 21  6 59.9980000  0  6 18 19 27 28 31 29
  19763985.865   -22068808.669 8 -17086616.689 9
  20640884.881   -16842040.175 7 -13010303.842 9
  22224531.803    -9421003.170 6  -7249684.373 6
  22895655.037    -5425277.544 6   -981719.060 7
  22401521.248    -6950749.487 6  -5315181.042 7
  20847028.600   -12056625.140 7  -9316714.736 9
 94  2 14 21  7 29.9980000  0  6 18 19 27 28 31 29
  19763558.045   -22071056.983 8 -17088368.611 9
  20635727.865   -16869141.136 7 -13031421.438 9
  22212170.787    -9485958.244 6  -7300298.668 6
  22893093.459    -5438733.929 6   -992204.454 7
  22389105.537    -7015991.543 6  -5366018.833 7
  20857244.592   -12002939.614 7  -9274881.876 9
 94  2 14 21  7 59.9980000  0  6 18 19 27 28 31 29
  19763222.256   -22072822.016 8 -17089743.959 9
  20630614.061   -16896014.240 7 -13052361.489 9
  22199840.381    -9550755.176 6  -7350789.814 5
  22890631.467    -5451672.522 6  -1002286.360 7
  22376760.498    -7080866.883 6  -5416570.867 6
  20867540.967   -11948830.755 7  -9232719.146 9
 94  2 14 21  8 29.9980000  0  6 18 19 27 28 31 29
  19762977.373   -22074108.184 8 -17090746.158 9
  20625542.498   -16922665.766 7 -13073128.881 9
  22187539.029    -9615396.840 6  -7401159.816 6
  22888270.873    -5464079.157 6  -1011953.764 7
  22364482.818    -7145382.089 6  -5466842.358 6
  20877915.326   -11894312.140 7  -9190237.128 9
 94  2 14 21  8 59.9980000  0  6 18 19 27 28 31 29
  19762826.693   -22074900.561 8 -17091363.586 9
  20620515.787   -16949081.240 7 -13093712.346 9
  22175268.178    -9679883.066 6  -7451408.787 6
  22886014.607    -5475936.884 6  -1021193.445 7
  22352276.436    -7209528.277 6  -5516826.278 7
  20888371.764   -11839364.611 7  -9147420.894 9
 94  2 14 21  9 29.9980000  0  6 18 19 27 28 31 29
  19762770.350   -22075194.994 8 -17091593.012 9
  20615537.162   -16975244.398 7 -13114099.197 9
  22163027.350    -9744210.804 6  -7501534.276 7
  22883863.732    -5487238.221 6  -1029999.595 7
  22340139.959    -7273303.771 6  -5566521.357 7
  20898910.311   -11783985.917 7  -9104268.682 9
 94  2 14 21  9 59.9980000  0  6 18 19 27 28 31 29
  19762807.686   -22075001.616 8 -17091442.324 9
  20610603.709   -17001169.087 7 -13134300.232 9
  22150813.498    -9808392.255 6  -7551545.750 7
  22881818.506    -5497985.047 6  -1038373.671 7
  22328073.396    -7336718.624 6  -5615935.427 7
  20909529.709   -11728176.556 7  -9060780.884 9
 94  2 14 21 10 29.9980000  0  6 18 19 27 28 31 29
  19762938.678   -22074312.338 8 -17090905.224 9
  20605714.584   -17026862.190 8 -13154320.811 9
  22138626.967    -9872433.554 6  -7601448.024 7
  22879879.756    -5508174.427 6  -1046313.392 7
  22316075.021    -7399771.932 6  -5665067.755 7
  20920233.623   -11671928.098 7  -9016950.938 9
 94  2 14 21 10 59.9980000  0  6 18 19 27 28 31 29
  19763163.420   -22073131.315 8 -17089984.940 9
  20600868.162   -17052328.313 7 -13174164.529 9
  22126465.084    -9936344.251 6  -7651248.525 7
  22878045.029    -5517816.090 6  -1053826.320 7
  22304146.998    -7462450.909 6  -5713908.436 7
  20931020.693   -11615244.191 7  -8972781.683 9
 94  2 14 21 11 29.9980000  0  6 18 19 27 28 31 29
  19763479.131   -22071471.335 8 -17088691.441 9
  20596061.740   -17077586.930 7 -13193846.551 9
  22114328.592   -10000121.481 6  -7700945.025 8
  22876314.584    -5526911.615 6  -1060913.696 7
  22292291.373    -7524750.444 6  -5762453.441 7
  20941886.990   -11558142.606 7  -8928286.956 9
 94  2 14 21 11 59.9980000  0  6 18 19 27 28 31 29
  19763883.670   -22069345.759 8 -17087035.140 9
  20591290.584   -17102660.912 7 -13213384.705 9
  22102216.217   -10063773.411 7  -7750543.884 8
  22874685.678    -5535471.708 6  -1067583.877 7
  22280509.639    -7586662.977 6  -5810696.879 7
  20952829.514   -11500636.375 7  -8883476.921 9
 94  2 14 21 12 29.9980000  0  6 18 19 27 28 31 29
  19764376.443   -22066756.264 8 -17085017.349 9
  20586554.576   -17127549.491 7 -13232778.379 9
  22090127.240   -10127299.411 7  -7800044.619 8
  22873155.350    -5543509.586 6  -1073847.136 7
  22268803.490    -7648176.218 6  -5858629.215 7
  20963848.482   -11442732.744 7  -8838357.239 9
 94  2 14 21 12 59.9980000  0  6 18 19 27 28 31 29
  19764956.381   -22063708.076 8 -17082642.138 9
  20581851.498   -17152263.491 8 -13252036.019 9
  22078062.264   -10190702.886 7  -7849449.868 8
  22871722.647    -5551035.712 6  -1079711.650 7
  22257175.873    -7709282.463 6  -5906244.356 7
  20974940.834   -11384445.027 7  -8792938.268 9
 94  2 14 21 13 29.9980000  0  6 18 19 27 28 31 29
  19765627.670   -22060181.057 8 -17079893.815 9
  20577182.162   -17176799.730 8 -13271155.147 9
  22066023.865   -10253963.676 6  -7898743.929 8
  22870391.357    -5558033.539 6  -1085164.510 7
  22245624.912    -7769981.970 6  -5953542.565 7
  20986109.162   -11325752.461 7  -8747203.825 9
 94  2 14 21 13 59.9980000  0  6 18 19 27 28 31 29
  19766389.467   -22056178.611 8 -17076775.026 9
  20572546.787   -17201159.813 8 -13290137.011 9
  22054010.764   -10317093.260 6  -7947935.747 8
  22869157.725    -5564517.012 6  -1090216.581 7
  22234149.045    -7830290.005 6  -6000535.762 7
  20997354.279   -11266657.072 7  -8701155.493 9
 94  2 14 21 14 29.9980000  0  6 18 19 27 28 31 29
  19767244.092   -22051684.895 8 -17073273.425 9
  20567948.654   -17225322.280 7 -13308964.884 9
  22042024.904   -10380077.588 6  -7997014.379 8
  22868025.795    -5570469.077 6  -1094854.571 7
  22222748.459    -7890203.560 6  -6047221.544 7
  21008679.170   -11207147.187 7  -8654784.181 9
 94  2 14 21 14 59.9980000  0  6 18 19 27 28 31 29
  19768193.193   -22046697.696 8 -17069387.289 9
  20563389.162   -17249283.214 7 -13327635.714 9
  22030067.397   -10442916.486 6  -8045979.686 8
  22866997.287    -5575870.797 6  -1099063.719 7
  22211422.748    -7949722.197 6  -6093599.562 7
  21020079.412   -11147237.810 7  -8608101.571 9
 94  2 14 21 15 29.9980000  0  6 18 19 27 28 31 29
  19769234.881   -22041225.459 8 -17065123.200 9
  20558871.615   -17273023.251 8 -13346134.413 9
  22018136.756   -10505609.077 6  -8094830.985 8
  22866074.834    -5580718.143 6  -1102840.886 7
  22200171.459    -8008844.863 6  -6139669.099 7
  21031555.826   -11086929.084 7  -8561107.786 9
 94  2 14 21 15 59.9980000  0  6 18 19 27 28 31 29
  19770371.623   -22035252.082 8 -17060468.616 9
  20554402.350   -17296509.355 8 -13364435.249 9
  22006237.373   -10568142.527 6  -8143558.280 8
  22865260.381    -5584997.474 6  -1106175.438 7
  22189002.373    -8067537.587 6  -6185403.658 7
  21043107.803   -11026220.836 7  -8513802.677 9
 94  2 14 21 16 29.9980000  0  6 18 19 27 28 31 29
  19771606.201   -22028763.410 8 -17055412.506 9
  20549984.170   -17319726.904 8 -13382526.824 9
  21994367.482   -10630519.516 6  -8192163.648 8
  22864556.389    -5588694.886 6  -1109056.532 7
  22177921.006    -8125773.672 6  -6230782.295 7
  21054736.881   -10965110.482 7  -8466184.242 9
 94  2 14 21 16 59.9980000  0  6 18 19 27 28 31 29
  19772943.795   -22021732.985 8 -17049934.247 9
  20545620.459   -17342658.242 8 -13400395.379 9
  21982528.139   -10692733.296 6  -8240641.841 8
  22863966.357    -5591799.277 6  -1111475.528 7
  22166929.607    -8183524.851 6  -6275783.152 7
  21066446.193   -10903579.279 7  -8418237.867 9
 94  2 14 21 17 29.9980000  0  6 18 19 27 28 31 29
  19774385.186   -22014159.880 8 -17044033.123 9
  20541307.967   -17365320.300 8 -13418054.105 9
  21970718.646   -10754792.796 6  -8288999.811 7
  22863485.982    -5594325.218 6  -1113443.771 7
  22156031.178    -8240797.545 6  -6320411.149 7
  21078235.795   -10841623.026 7  -8369960.292 9
 94  2 14 21 17 59.9980000  0  6 18 19 27 28 31 29
  19775930.021   -22006041.531 8 -17037707.134 9
  20537041.639   -17387738.965 8 -13435523.173 9
  21958937.201   -10816705.541 6  -8337243.430 8
  22863115.240    -5596272.198 6  -1114960.872 7
  22145218.717    -8297609.626 6  -6364680.236 7
  21090106.193   -10779243.689 7  -8321353.034 9
 94  2 14 21 18 29.9980000  0  6 18 19 27 28 31 29
  19777575.975   -21997393.129 8 -17030968.113 9
  20532817.217   -17409938.545 8 -13452821.526 9
  21947184.076   -10878469.427 6  -8385371.059 7
  22862853.990    -5597644.570 6  -1116030.228 7
  22134493.717    -8353973.165 6  -6408599.771 7
  21102055.881   -10716449.906 7  -8272422.839 9
 94  2 14 21 18 59.9980000  0  6 18 19 27 28 31 29
  19779320.334   -21988224.675 8 -17023823.857 9
  20528632.303   -17431929.979 8 -13469957.692 9
  21935462.678   -10940063.503 6  -8433366.368 7
  22862703.037    -5598439.619 6  -1116649.696 7
  22123849.428    -8409904.757 6  -6452182.748 7
  21114084.553   -10653240.812 7  -8223169.027 9
 94  2 14 21 19 29.9980000  0  6 18 19 27 28 31 29
  19781159.975   -21978557.458 8 -17016290.953 9
  20524484.045   -17453730.088 8 -13486944.781 9
  21923774.248   -11001484.314 6  -8481226.673 8
  22862662.342    -5598653.560 6  -1116816.346 7
  22113284.068    -8465428.691 6  -6495448.103 7
  21126187.920   -10589635.426 7  -8173606.408 9
 94  2 14 21 19 59.9980000  0  6 18 19 27 28 31 29
  19783095.084   -21968387.860 8 -17008366.580 9
  20520375.889   -17475318.414 8 -13503766.844 9
  21912121.943   -11062718.374 6  -8528941.450 7
  22862733.904    -5598274.142 6  -1116520.643 7
  22102799.420    -8520531.588 6  -6538385.294 7
  21138369.240   -10525622.449 7  -8123726.184 9
 94  2 14 21 20 29.9980000  0  6 18 19 27 28 31 29
  19785124.318   -21957724.244 8 -17000057.260 9
  20516307.420   -17496698.534 8 -13520426.672 9
  21900501.678   -11123784.094 6  -8576525.071 8
  22862913.873    -5597325.159 6  -1115781.140 7
  22092390.350    -8575226.216 6  -6581004.414 7
  21150626.014   -10461212.735 7  -8073536.825 9
 94  2 14 21 20 59.9980000  0  6 18 19 27 28 31 29
  19787248.701   -21946560.504 8 -16991358.234 9
  20512279.256   -17517867.141 8 -13536921.685 9
  21888910.451   -11184697.329 6  -8623989.877 7
  22863203.381    -5595806.451 6  -1114597.694 7
  22082062.732    -8629506.904 7  -6623300.956 8
  21162961.279   -10396390.249 7  -8023025.827 9
 94  2 14 21 21 29.9980000  0  6 18 19 27 28 31 29
  19789467.826   -21934900.002 8 -16982272.124 9
  20508294.279   -17538809.284 8 -13553240.235 9
  21877344.287   -11245475.731 6  -8671349.625 7
  22863598.545    -5593728.798 6  -1112978.699 7
  22071816.045    -8683351.257 6  -6665257.501 8
  21175377.936   -10331140.588 7  -7972181.958 9
 94  2 14 21 21 59.9980000  0  6 18 19 27 28 31 29
  19791781.623   -21922741.511 8 -16972797.968 9
  20504353.412   -17559517.729 8 -13569376.687 9
  21865802.647   -11306128.842 6  -8718611.743 8
  22864097.334    -5591107.530 6  -1110936.110 7
  22061654.514    -8736750.846 6  -6706867.481 8
  21187876.787   -10265456.918 7  -7920999.909 9
 94  2 14 21 22 29.9980000  0  6 18 19 27 28 31 29
  19794187.811   -21910096.517 8 -16962944.721 9
  20500456.764   -17579994.469 8 -13585332.585 9
  21854282.787   -11366665.542 6  -8765783.158 8
  22864699.576    -5587945.096 6  -1108471.839 7
  22051581.100    -8789691.193 7  -6748119.584 8
  21200456.256   -10199349.314 7  -7869487.513 9
 94  2 14 21 22 59.9980000  0  6 18 19 27 28 31 29
  19796682.318   -21896987.565 8 -16952729.950 9
  20496602.303   -17600249.725 8 -13601115.903 9
  21842784.850   -11427088.246 6  -8812865.746 8
  22865405.537    -5584235.718 6  -1105581.393 7
  22041595.717    -8842158.573 6  -6789003.164 8
  21213112.506   -10132841.361 7  -7817663.164 9
 94  2 14 21 23 29.9980000  0  6 18 19 27 28 31 29
  19799266.920   -21883406.286 8 -16942147.134 9
  20492789.248   -17620287.731 8 -13616729.938 9
  21831307.889   -11487397.138 6  -8859859.656 8
  22866217.365    -5579967.888 6  -1102255.775 7
  22031699.115    -8894170.048 7  -6829531.506 8
  21225840.646   -10065957.282 7  -7765545.728 9
 94  2 14 21 23 59.9980000  0  6 18 19 27 28 31 29
  19801944.084   -21869336.945 8 -16931184.010 9
  20489013.521   -17640129.066 8 -13632190.725 9
  21819853.826   -11547587.190 6  -8906760.971 8
  22867136.803    -5575135.662 6  -1098490.385 7
  22021886.912    -8945731.457 7  -6869709.065 8
  21238634.686    -9998726.517 7  -7713158.158 9
 94  2 14 21 24 29.9980000  0  6 18 19 27 28 31 29
  19804712.701   -21854786.572 8 -16919846.057 9
  20485270.287   -17659798.006 8 -13647517.168 9
  21808421.881   -11607662.654 6  -8953573.000 8
  22868160.107    -5569757.776 6  -1094299.810 7
  22012159.131    -8996849.073 7  -6909540.900 8
  21251491.865    -9931162.375 7  -7660510.805 9
 94  2 14 21 24 59.9980000  0  6 18 19 27 28 31 29
  19807579.920   -21839719.752 8 -16908105.678 9
  20481561.053   -17679290.469 8 -13662706.098 9
  21797017.897   -11667592.059 6  -9000271.216 8
  22869290.803    -5563817.694 6  -1089671.162 7
  22002519.256    -9047509.506 7  -6949016.431 8
  21264417.232    -9863237.140 7  -7607582.084 9
 94  2 14 21 25 29.9980000  0  6 18 19 27 28 31 29
  19810545.756   -21824135.197 8 -16895961.877 9
  20477885.889   -17698605.134 8 -13677756.482 9
  21785642.779   -11727371.627 6  -9046852.678 8
  22870524.615    -5557335.563 6  -1084620.148 7
  21992963.287    -9097720.391 7  -6988141.690 8
  21277412.045    -9794947.405 7  -7554369.345 9
 94  2 14 21 25 59.9980000  0  6 18 19 27 28 31 29
  19813607.521   -21808045.258 8 -16883424.270 9
  20474245.209   -17717736.690 8 -13692664.182 9
  21774298.053   -11786986.138 6  -9093305.526 8
  22871856.311    -5550333.948 6  -1079164.339 7
  21983499.178    -9147455.350 7  -7026896.093 8
  21290479.451    -9726279.015 7  -7500861.556 9
 94  2 14 21 26 29.9980000  0  6 18 19 27 28 31 29
  19816764.146   -21791457.283 8 -16870498.585 9
  20470643.240   -17736665.091 8 -13707413.570 9
  21762987.490   -11846425.011 6  -9139621.507 8
  22873291.100    -5542793.815 6  -1073288.906 6
  21974126.678    -9196708.428 7  -7065274.989 8
  21303623.287    -9657208.641 7  -7447040.520 9
 94  2 14 21 26 59.9980000  0  6 18 19 27 28 31 29
  19820013.271   -21774383.190 8 -16857194.106 9
  20467080.873   -17755384.721 8 -13722000.272 9
  21751707.904   -11905698.171 6  -9185808.368 8
  22874834.842    -5534685.735 6  -1066970.911 7
  21964844.670    -9245482.605 7  -7103280.738 8
  21316842.975    -9587739.245 7  -7392908.573 9
 94  2 14 21 27 29.9980000  0  6 18 19 27 28 31 29
  19823351.193   -21756840.757 8 -16843524.688 9
  20463559.264   -17773892.613 8 -13736421.989 9
  21740454.654   -11964835.860 6  -9231889.664 8
  22876484.037    -5526018.397 6  -1060217.124 7
  21955650.154    -9293802.609 7  -7140932.597 8
  21330136.170    -9517882.436 7  -7338474.740 9
 94  2 14 21 27 59.9980000  0  6 18 19 27 28 31 29
  19826779.709   -21738823.816 8 -16829485.522 9
  20460075.936   -17792197.158 8 -13750685.257 9
  21729224.053   -12023851.076 6  -9277875.528 8
  22878240.475    -5516785.091 6  -1053022.314 6
  21946541.678    -9341669.426 7  -7178231.302 8
  21343504.920    -9447629.817 7  -7283732.473 9
 94  2 14 21 28 29.9980000  0  6 18 19 27 28 31 29
  19830298.857   -21720331.612 8 -16815076.020 9
  20456631.756   -17810296.382 8 -13764788.528 9
  21718013.889   -12082761.734 6  -9323779.913 8
  22880108.467    -5506967.855 6  -1045372.505 7
  21937519.076    -9389079.812 7  -7215174.380 8
  21356949.053    -9376979.943 7  -7228680.668 9
 94  2 14 21 28 59.9980000  0  6 18 19 27 28 31 29
  19833910.396   -21701352.086 8 -16800286.791 9
  20453224.490   -17828200.792 8 -13778739.993 9
  21706820.482   -12141583.816 7  -9369615.280 8
  22882082.756    -5496589.906 6  -1037285.774 7
  21928584.061    -9436029.718 6  -7251758.628 8
  21370467.779    -9305939.660 7  -7173324.647 9
 94  2 14 21 29 29.9980000  0  6 18 19 27 28 31 29
  19837621.318   -21681852.211 8 -16785092.093 9
  20449856.607   -17845898.991 8 -13792530.774 9
  21695645.498   -12200307.715 6  -9415374.140 9
  22884162.311    -5485664.998 6  -1028772.842 7
  21919740.764    -9482501.402 6  -7287970.255 8
  21384060.912    -9234507.043 7  -7117662.915 9
 94  2 14 21 29 59.9980000  0  7 18  2 19 27 28 31 29
  19841427.818   -21661848.649 8 -16769504.909 9
  23935121.381      -88363.287 5
  20446525.826   -17863403.153 8 -13806170.360 9
  21684489.365   -12258934.294 7  -9461057.152 9
  22886342.725    -5474205.530 6  -1019843.362 7
  21910990.256    -9528485.070 6  -7323801.618 8
  21397722.342    -9162716.523 7  -7061722.296 9
 94  2 14 21 30 29.9980000  0  7 18  2 19 27 28 31 29
  19845332.990   -21641327.612 8 -16753514.502 9
  23917754.771     -179625.186 5    -23688.49615
  20443234.756   -17880696.333 8 -13819645.547 9
  21673354.537   -12317448.149 7  -9506652.334 9
  22888628.475    -5462197.077 6  -1010486.113 7
  21902336.092    -9573964.061 6  -7359239.713 8
  21411451.693    -9090567.381 7  -7005502.232 9
 94  2 14 21 30 59.9980000  0  7 18  2 19 27 28 31 29
  19849337.178   -21620284.030 8 -16737116.916 9
  23900417.584     -270735.052 5    -94682.967 6
  20439984.990   -17897774.224 8 -13832952.977 9
  21662244.678   -12375830.999 7  -9552145.439 9
  22891016.100    -5449647.338 6  -1000707.077 7
  21893775.623    -9618949.893 6  -7394293.544 8
  21425248.326    -9018068.477 7  -6949009.617 9
 94  2 14 21 31 29.9980000  0  7 18  2 19 27 28 31 29
  19853438.881   -21598729.109 8 -16720320.881 9
  23883114.342     -361664.051 5   -165536.490 6
  20436778.646   -17914623.269 8 -13846082.090 9
  21651165.045   -12434054.468 7  -9597514.337 9
  22893510.553    -5436541.421 6   -990494.645 7
  21885310.420    -9663435.281 7  -7428957.428 8
  21439111.365    -8945215.970 7  -6892241.479 9
 94  2 14 21 31 59.9980000  0  7 18  2 19 27 28 31 29
  19857633.490   -21576684.712 8 -16703143.430 9
  23865845.084     -452409.251 5   -236246.759 5
  20433614.576   -17931251.172 8 -13859038.889 9
  21640117.287   -12492110.451 7  -9642752.716 9
  22896110.881    -5422875.425 6   -979845.801 7
  21876937.725    -9707432.568 6  -7463240.974 8
  21453043.154    -8872003.403 7  -6835192.756 9
 94  2 14 21 32 29.9980000  0  7 18  2 19 27 28 31 29
  19861923.686   -21554141.052 8 -16685576.949 9
  23848613.693     -542962.782 5   -306807.713 5
  20430490.818   -17947666.847 8 -13871830.312 9
  21629102.037   -12549994.548 7  -9687857.152 9
  22898819.115    -5408647.316 6   -968758.929 7
  21868655.904    -9750955.044 7  -7497154.552 8
  21467049.154    -8798405.193 7  -6777843.551 9
 94  2 14 21 32 59.9980000  0  7 18  2 19 27 28 31 29
  19866307.311   -21531105.474 8 -16667627.148 9
  23831420.811     -633310.354 5   -377208.193 6
  20427405.693   -17963880.119 8 -13884464.023 9
  21618120.811   -12607702.013 7  -9732823.952 9
  22901632.576    -5393858.866 6   -957235.421 7
  21860464.389    -9794002.078 7  -7530697.641 8
  21481126.436    -8724424.136 7  -6720196.010 9
 94  2 14 21 33 29.9980000  0  7 18  2 19 27 28 31 29
  19870787.553   -21507562.297 8 -16649281.817 9
  23814270.123     -723442.445 5   -447440.756 5
  20424358.045   -17979893.756 8 -13896942.176 9
  21607170.186   -12665248.716 7  -9777665.484 9
  22904554.646    -5378498.931 6   -945266.612 7
  21852367.467    -9836551.425 7  -7563852.931 8
  21495278.561    -8650054.828 7  -6662245.941 9
 94  2 14 21 33 59.9980000  0  7 18  2 19 27 28 31 29
  19875365.826   -21483503.047 8 -16630534.353 9
  23797154.154     -813385.114 5   -517525.730 5
  20421348.123   -17995711.130 8 -13909267.405 9
  21596246.725   -12722651.129 7  -9822394.590 9
  22907586.936    -5362566.352 6   -932851.578 7
  21844366.092    -9878597.668 7  -7596616.189 8
  21509503.670    -8575299.485 7  -6603995.061 9
 94  2 14 21 34 29.9980000  0  7 18  2 19 27 28 31 29
  19880044.920   -21458913.782 8 -16611373.889 9
  23780070.467     -903158.509 5   -587478.857 5
  20418376.490   -18011329.257 8 -13921437.381 9
  21585348.350   -12779921.985 7  -9867021.178 9
  22910726.982    -5346068.752 6   -919996.272 7
  21836463.193    -9920127.378 7  -7628976.943 8
  21523800.592    -8500168.412 7  -6545451.410 9
 94  2 14 21 34 59.9980000  0  7 18  2 19 27 28 31 29
  19884824.561   -21433796.472 8 -16591801.961 9
  23763016.998     -992772.945 5   -657308.115 5
  20415442.170   -18026747.597 8 -13933451.676 9
  21574473.576   -12837067.750 7  -9911550.295 9
  22913973.521    -5329006.294 6   -906700.821 7
  21828661.396    -9961127.345 7  -7660924.912 8
  21538165.662    -8424680.867 7  -6486629.989 9
 94  2 14 21 35 29.9980000  0  7 18  2 19 27 28 31 29
  19889704.748   -21408149.938 8 -16571817.648 9
  23745993.936    -1082229.289 5   -727014.178 5
  20412548.740   -18041954.022 8 -13945300.838 9
  21563624.217   -12894083.470 7  -9955978.081 9
  22917328.686    -5311372.752 6   -892960.384 7
  21820959.693   -10001598.694 7  -7692460.970 8
  21552599.553    -8348827.687 7  -6427523.666 9
 94  2 14 21 35 59.9980000  0  7 18  2 19 27 28 31 29
  19894684.592   -21381982.126 8 -16551427.149 9
  23729003.232    -1171517.872 5   -796589.592 5
  20409695.303   -18056948.221 8 -13956984.633 9
  21552803.709   -12950943.554 7 -10000284.603 9
  22920794.326    -5293161.939 6   -878770.111 7
  21813357.053   -10041550.566 7  -7723592.234 8
  21567105.506    -8272603.698 7  -6368128.383 9
 94  2 14 21 36 29.9980000  0  7 18  2 19 27 28 31 29
  19899762.459   -21355297.886 8 -16530634.236 9
  23712049.873    -1260607.169 5   -866009.708 5
  20406881.576   -18071733.757 8 -13968505.834 9
  21542013.561   -13007645.818 7 -10044468.147 9
  22924371.115    -5274367.024 6   -864124.698 7
  21805854.803   -10080976.242 7  -7754313.469 8
  21581683.873    -8195994.432 7  -6308432.905 9
 94  2 14 21 36 59.9980000  0  7 18  2 19 27 28 31 29
  19904933.248   -21328126.793 8 -16509461.963 9
  23695138.740    -1349474.424 5   -935256.784 5
  20404106.521   -18086317.304 8 -13979869.648 9
  21531253.662   -13064189.611 7 -10088528.214 9
  22928060.990    -5254976.592 6   -849015.264 7
  21798452.787   -10119874.880 7  -7784624.027 9
  21596337.131    -8118991.426 7  -6248430.610 9
 94  2 14 21 37 29.9980000  0  7 18  2 19 27 28 31 29
  19910194.568   -21300478.183 8 -16487917.603 9
  23678273.295    -1438104.535 5  -1004319.130 5
  20401369.404   -18100699.804 8 -13991076.796 9
  21520523.857   -13120575.781 7 -10132465.453 9
  22931860.467    -5235007.066 6   -833454.584 7
  21791149.287   -10158252.651 7  -7814528.711 8
  21611064.389    -8041598.702 7  -6188124.642 9
 94  2 14 21 37 59.9980000  0  7 18  2 19 27 28 31 29
  19915546.029   -21272354.764 8 -16466003.262 9
  23661451.014    -1526503.997 5  -1073201.702 5
  20398668.943   -18114889.720 8 -14002133.880 9
  21509820.631   -13176820.744 7 -10176292.679 9
  22935766.350    -5214480.889 6   -817460.183 7
  21783944.217   -10196112.680 6  -7844029.960 8
  21625864.412    -7963824.849 7  -6127521.702 9
 94  2 14 21 38 29.9980000  0  7 18  2 19 27 28 31 29
  19920993.256   -21243728.893 8 -16443697.402 9
  23644675.842    -1614658.308 5  -1141893.231 6
  20396011.420   -18128857.670 8 -14013018.004 9
  21499147.467   -13232908.925 7 -10219997.732 9
  22939779.186    -5193395.463 6   -801029.994 7
  21776842.615   -10233429.740 6  -7873108.108 8
  21640740.904    -7885648.176 7  -6066604.860 9
 94  2 14 21 38 59.9980000  0  7 18  2 19 27 28 31 29
  19926538.061   -21214591.253 8 -16420992.762 9
  23627941.240    -1702595.090 5  -1210415.297 5
  20393394.670   -18142608.094 8 -14023732.624 9
  21488504.545   -13288837.942 7 -10263578.764 9
  22943893.936    -5171775.061 6   -784182.937 7
  21769842.068   -10270220.947 7  -7901776.498 8
  21655687.451    -7807104.433 7  -6005401.999 9
 94  2 14 21 39 29.9980000  0  7 18  2 19 27 28 31 29
  19932184.186   -21184920.542 8 -16397872.744 9
  23611243.459    -1790341.107 5  -1278788.676 5
  20390819.740   -18156138.739 8 -14034275.980 9
  21477888.709   -13344623.000 7 -10307047.615 9
  22948106.412    -5149636.196 6   -766931.889 7
  21762937.787   -10306504.307 7  -7930049.166 8
  21670698.123    -7728221.803 7  -5943935.051 9
 94  2 14 21 39 59.9980000  0  7 18  2 19 27 28 31 29
  19937932.436   -21154714.170 8 -16374335.331 9
  23594578.826    -1877916.523 5  -1347029.125 6
  20388287.326   -18169448.398 8 -14044647.137 9
  21467298.256   -13400276.644 7 -10350414.067 9
  22952420.209    -5126965.197 6   -749266.193 7
  21756128.092   -10342286.269 7  -7957931.150 9
  21685773.178    -7649000.378 7  -5882204.134 8
 94  2 14 21 40 29.9980000  0  7 18  2 19 27 28 31 29
  19943779.334   -21123987.647 8 -16350392.603 9
  23577944.834    -1965328.729 6  -1415142.375 6
  20385795.576   -18182541.088 8 -14054849.233 9
  21456731.443   -13455805.117 7 -10393682.987 9
  22956836.873    -5103755.867 6   -731181.023 7
  21749414.045   -10377570.309 7  -7985425.143 9
  21700907.959    -7569463.724 7  -5820227.552 8
 94  2 14 21 40 59.9980000  0  7 18  2 19 27 28 31 29
  19949723.061   -21092755.389 8 -16326055.800 9
  23561341.709    -2052577.645 5  -1483128.375 6
  20383345.639   -18195416.375 8 -14064881.920 9
  21446185.318   -13511224.281 7 -10436866.727 9
  22961358.936    -5079993.579 6   -712664.980 7
  21742795.459   -10412353.277 7  -8012528.691 9
  21716099.615    -7489630.323 6  -5758019.769 8
 94  2 14 21 41 29.9980000  0  7 18  2 19 27 28 31 29
  19955758.373   -21061040.010 8 -16301342.536 9
  23544769.412    -2139665.567 6  -1550988.931 6
  20380934.951   -18208086.109 8 -14074754.430 9
  21435658.420   -13566545.171 7 -10479973.885 9
  22965985.272    -5055683.549 6   -693722.122 7
  21736271.818   -10446636.477 7  -8039242.828 9
  21731350.732    -7409487.884 7  -5695571.168 8
 94  2 14 21 41 59.9980000  0  7 18  2 19 27 28 31 29
  19961883.756   -21028850.147 8 -16276259.546 9
  23528230.482    -2226573.742 5  -1618709.424 6
  20378559.647   -18220567.108 8 -14084479.871 9
  21425155.045   -13621740.393 7 -10522983.119 9
  22970714.615    -5030825.697 6   -674352.382 7
  21729845.217   -10480406.728 7  -8065557.274 9
  21746663.350    -7329017.679 6  -5632867.165 8
 94  2 14 21 42 29.9980000  0  7 18  2 19 27 28 31 29
  19968097.342   -20996197.562 8 -16250815.995 9
  23511727.076    -2313302.113 6  -1686289.759 6
  20376214.154   -18232892.599 8 -14094084.132 9
  21414676.146   -13676807.610 7 -10565892.607 9
  22975547.264    -5005432.849 6   -654565.756 7
  21723516.811   -10513660.909 7  -8091469.596 9
  21762036.795    -7248232.232 7  -5569917.501 9
 94  2 14 21 42 59.9980000  0  7 18  2 19 27 28 31 29
  19974397.217   -20963090.535 8 -16225018.327 9
  23495252.990    -2399875.440 5  -1753749.333 6
  20373890.576   -18245102.933 8 -14103598.667 9
  21404216.264   -13731773.227 7 -10608722.929 9
  22980476.186    -4979530.578 6   -634382.177 7
  21717283.193   -10546421.357 7  -8116997.195 9
  21777469.186    -7167139.558 7  -5506728.484 9
 94  2 14 21 43 29.9980000  0  7 18  2 19 27 28 31 29
  19980783.982   -20929527.882 8 -16198865.626 9
  23478807.568    -2486296.804 5  -1821090.501 6
  20371585.428   -18257216.724 8 -14113037.973 9
  21393776.272   -13786635.641 7 -10651472.823 9
  22985500.592    -4953129.559 6   -613809.947 7
  21711141.381   -10578692.865 7  -8142143.809 9
  21792959.592    -7085733.280 7  -5443295.058 8
 94  2 14 21 43 59.9980000  0  7 18  2 19 27 28 31 29
  19987256.881   -20895513.917 8 -16172361.254 9
  23462390.475    -2572568.053 5  -1888314.704 6
  20369297.170   -18269240.114 8 -14122406.838 9
  21383352.803   -13841413.474 7 -10694156.819 9
  22990619.818    -4926226.125 6   -592846.242 7
  21705092.186   -10610482.799 7  -8166915.177 9
  21808506.373    -7004038.139 7  -5379636.573 8
 94  2 14 21 44 29.9980000  0  7 18  2 19 27 28 31 29
  19993815.061   -20861049.551 8 -16145505.919 9
  23445999.365    -2658701.858 5  -1955431.812 6
  20367033.123   -18281137.880 8 -14131677.802 9
  21372941.217   -13896125.782 7 -10736789.752 9
  22995834.209    -4898824.834 6   -571494.606 7
  21699135.912   -10641784.913 7  -8191306.420 9
  21824106.654    -6922054.529 7  -5315753.301 8
 94  2 14 21 44 59.9980000  0  7 18  2 19 27 28 31 29
  20000456.904   -20826147.836 8 -16118309.798 9
  23429635.014    -2744697.488 5  -2022441.310 6
  20364799.076   -18292878.356 8 -14140826.209 9
  21362541.889   -13950775.181 7 -10779373.663 9
  23001141.201    -4870935.879 6   -549762.965 7
  21693271.350   -10672602.608 7  -8215320.192 9
  21839760.826    -6839791.022 7  -5251651.905 8
 94  2 14 21 45 29.9980000  0  7 18  2 19 27 28 31 29
  20007180.576   -20790813.422 8 -16090776.502 9
  23413300.459    -2830531.688 5  -2089324.990 6
  20362600.248   -18304433.006 8 -14149829.828 9
  21352160.186   -14005330.218 7 -10821884.051 9
  23006543.865    -4842546.781 6   -527641.612 7
  21687502.209   -10702918.503 7  -8238942.955 9
  21855470.998    -6757235.206 7  -5187322.762 8
 94  2 14 21 45 59.9980000  0  7 18  2 19 27 28 31 29
  20013989.865   -20755031.533 8 -16062894.533 9
  23397002.256    -2916182.242 5  -2156065.578 5
  20360442.326   -18315773.543 8 -14158666.614 9
  21341803.365   -14059755.720 7 -10864293.501 9
  23012044.928    -4813638.863 6   -505115.980 7
  21681833.350   -10732708.164 7  -8262155.659 9
  21871239.482    -6674367.469 6  -5122750.546 8
 94  2 14 21 46 29.9980000  0  7 18  2 19 27 28 31 29
  20020883.240   -20718806.179 8 -16034667.004 9
  23380738.428    -3001648.528 5  -2222662.643 5
  20358325.826   -18326896.177 8 -14167333.596 9
  21331473.256   -14114042.245 7 -10906594.659 9
  23017644.256    -4784213.650 6   -482187.260 7
  21676266.420   -10761962.784 7  -8284951.427 9
  21887069.389    -6591186.021 7  -5057933.888 8
 94  2 14 21 46 59.9980000  0  7 18  2 19 27 28 31 29
  20027859.889   -20682144.236 8 -16006099.278 9
  23364508.326    -3086934.316 5  -2289119.030 5
  20356242.693   -18337843.087 8 -14175863.644 9
  21321166.006   -14168204.674 7 -10948799.124 9
  23023340.756    -4754274.488 6   -458858.084 7
  21670799.209   -10790693.810 7  -8307339.200 9
  21902953.225    -6507712.295 6  -4992889.471 8
 94  2 14 21 47 29.9980000  0  7 18  2 19 27 28 31 29
  20034923.170   -20645025.453 8 -15977175.576 9
  23348313.779    -3172039.357 5  -2355434.550 5
  20354188.373   -18348638.460 8 -14184275.617 9
  21310880.045   -14222256.729 7 -10990917.581 9
  23029135.686    -4723823.317 6   -435129.940 6
  21665430.443   -10818903.904 7  -8329321.043 9
  21918894.779    -6423941.547 6  -4927613.624 8
 94  2 14 21 47 59.9980000  0  7 18  2 19 27 28 31 29
  20042075.412   -20607441.571 8 -15947889.456 9
  23332150.951    -3256975.734 5  -2421618.732 6
  20352163.693   -18359278.932 8 -14192566.898 9
  21300611.357   -14276222.126 7 -11032968.518 9
  23035027.998    -4692860.452 6   -411003.078 7
  21660160.436   -10846599.554 7  -8350902.010 9
  21934888.990    -6339889.911 6  -4862118.886 8
 94  2 14 21 48 29.9980000  0  7 18  2 19 27 28 31 29
  20049314.951   -20569396.478 8 -15918243.949 9
  23316018.428    -3341751.041 6  -2487677.371 6
  20350166.139   -18369776.311 8 -14200746.681 9
  21290354.475   -14330120.733 7 -11074967.404 9
  23041015.264    -4661397.709 6   -386486.688 7
  21654988.568   -10873779.709 7  -8372081.283 9
  21950936.943    -6255556.731 6  -4796404.790 8
 94  2 14 21 48 59.9980000  0  7 18  2 19 27 28 31 29
  20056640.748   -20530899.196 8 -15888246.086 9
  23299916.701    -3426369.340 6  -2553613.625 6
  20348192.561   -18380148.396 8 -14208828.830 9
  21280108.709   -14383962.529 7 -11116922.027 9
  23047095.295    -4629449.069 6   -361591.659 6
  21649911.287   -10900457.925 7  -8392869.442 9
  21967039.381    -6170940.063 6  -4730469.775 7
 94  2 14 21 49 29.9980000  0  7 18  2 19 27 28 31 29
  20064049.881   -20491963.226 8 -15857906.387 9
  23283843.912    -3510830.922 6  -2619427.793 6
  20346244.334   -18390383.976 8 -14216804.603 9
  21269877.162   -14437728.827 7 -11158817.819 9
  23053265.139    -4597020.945 6   -336323.025 6
  21644926.732   -10926648.624 7  -8413277.722 9
  21983195.232    -6086040.234 6  -4664314.120 8
 94  2 14 21 49 59.9980000  0  7 18  2 19 27 28 31 29
  20071538.389   -20452611.009 8 -15827242.343 9
  23267799.279    -3595145.242 6  -2685127.179 6
  20344323.482   -18400479.448 8 -14224671.208 9
  21259663.014   -14491404.006 7 -11200642.598 9
  23059528.178    -4564111.394 6   -310679.246 6
  21640036.443   -10952351.221 7  -8433305.657 9
  21999404.545    -6000859.317 6  -4597939.453 7
 94  2 14 21 50 29.9980000  0  7 18  2 19 27 28 31 29
  20079106.529   -20412839.892 8 -15796251.883 9
  23251784.732    -3679300.954 6  -2750702.949 6
  20342425.459   -18410453.044 8 -14232442.846 9
  21249468.990   -14544975.129 7 -11242386.303 9
  23065881.357    -4530728.899 6   -284666.925 6
  21635238.404   -10977561.866 7  -8452950.260 9
  22015666.904    -5915399.704 6  -4531347.599 8
 94  2 14 21 50 59.9980000  0  7 18  2 19 27 28 31 29
  20086759.904   -20372622.509 8 -15764913.688 9
  23235803.881    -3763281.649 6  -2816142.345 6
  20340556.326   -18420275.467 8 -14240096.684 9
  21239296.717   -14598429.604 7 -11284039.112 9
  23072327.396    -4496855.565 6   -258272.130 6
  21630534.975   -11002279.660 7  -8472210.827 9
  22031981.287    -5829670.204 6  -4464545.475 8
 94  2 14 21 51 29.9980000  0  7 18  2 19 27 28 31 29
  20094502.615   -20331933.224 8 -15733207.772 9
  23219856.287    -3847086.749 6  -2881444.927 6
  20338718.857   -18429930.379 8 -14247619.988 9
  21229149.678   -14651754.160 7 -11325590.681 9
  23078867.654    -4462481.490 6   -231487.155 6
  21625927.154   -11026494.381 7  -8491079.397 9
  22048346.482    -5743670.090 6  -4397532.457 7
 94  2 14 21 51 59.9980000  0  7 18  2 19 27 28 31 29
  20102337.732   -20290759.917 8 -15701124.703 9
  23203941.334    -3930722.563 6  -2946615.611 6
  20336911.053   -18439432.156 8 -14255023.974 9
  21219020.904   -14704980.005 7 -11367065.334 9
  23085502.068    -4427613.518 6   -204317.348 6
  21621415.303   -11050202.802 7  -8509553.454 9
  22064761.201    -5657412.427 6  -4330318.769 7
 94  2 14 21 52 29.9980000  0  7 18  2 19 27 28 31 29
  20110268.311   -20249084.549 8 -15668650.414 9
  23188060.732    -4014171.833 6  -3011640.897 6
  20335135.014   -18448764.891 8 -14262296.240 9
  21208909.576   -14758114.811 7 -11408469.050 9
  23092233.412    -4392246.868 6   -176758.989 6
  21617002.951   -11073390.455 7  -8527621.725 9
  22081225.771    -5570890.234 6  -4262898.923 7
 94  2 14 21 52 59.9980000  0  7 18  2 19 27 28 31 29
  20118293.271   -20206911.574 8 -15635788.384 9
  23172215.639    -4097436.796 5  -3076522.596 6
  20333394.646   -18457909.412 8 -14269421.835 9
  21198816.225   -14811155.671 7 -11449799.558 9
  23099060.647    -4356370.939 6   -148803.768 6
  21612690.732   -11096051.517 7  -8545279.669 9
  22097743.561    -5484086.503 6  -4195259.715 7
 94  2 14 21 53 29.9980000  0  7 18  2 19 27 28 31 29
  20126412.576   -20164246.210 8 -15602542.672 9
  23156411.678    -4180489.746 5  -3141239.055 6
  20331691.170   -18466862.709 8 -14276398.424 9
  21188746.646   -14864071.885 7 -11491032.939 9
  23105988.670    -4319957.698 6   -120429.883 6
  21608484.920   -11118152.609 7  -8562501.293 9
  22114321.748    -5396970.536 6  -4127377.244 7
 94  2 14 21 53 59.9980000  0  7 18  2 19 27 28 31 29
  20134621.514   -20121108.930 8 -15568929.237 9
  23140649.826    -4263322.671 5  -3205784.101 6
  20330024.646   -18475619.809 8 -14283222.137 9
  21178701.147   -14916861.362 7 -11532167.566 9
  23113020.186    -4283005.585 6    -91636.115 6
  21604388.896   -11139677.265 7  -8579273.750 9
  22130957.217    -5309546.049 6  -4059254.306 7
 94  2 14 21 54 29.9980000  0  7 18  2 19 27 28 31 29
  20142922.522   -20077484.519 8 -15534936.218 9
  23124932.818    -4345910.183 5  -3270137.901 6
  20328401.357   -18484149.386 8 -14289868.559 9
  21168688.826   -14969476.364 7 -11573166.232 9
  23120160.217    -4245487.167 6    -62401.080 6
  21600407.600   -11160599.136 7  -8595576.507 9
  22147658.404    -5221789.534 7  -3990872.733 7
 94  2 14 21 54 59.9980000  0  7 18  2 19 27 28 31 29
  20151316.022   -20033376.517 8 -15500566.381 9
  23109263.943    -4428252.827 6  -3334300.895 6
  20326820.857   -18492454.662 8 -14296340.193 9
  21158713.092   -15021898.829 7 -11614014.868 9
  23127411.193    -4207388.726 6    -32714.068 6
  21596542.818   -11180909.200 7  -8611402.529 9
  22164419.498    -5133700.427 6  -3922231.890 7
 94  2 14 21 55 29.9980000  0  7 18  2 19 27 28 31 29
  20159802.021   -19988782.269 8 -15465817.646 9
  23093640.631    -4510351.334 6  -3398273.657 6
  20325282.654   -18500539.219 8 -14302639.845 9
  21148775.006   -15074123.318 7 -11654709.244 9
  23134769.342    -4168718.943 6     -2581.862 6
  21592795.350   -11200603.758 7  -8626748.941 9
  22181246.896    -5045279.731 7  -3853332.767 8
 94  2 14 21 55 59.9980000  0  7 18  2 19 27 28 31 29
  20168383.357   -19943687.250 8 -15430678.703 9
  23078062.857    -4592213.030 6  -3462061.891 6
  20323788.506   -18508390.892 8 -14308758.028 9
  21138872.459   -15126163.083 7 -11695259.680 9
  23142232.756    -4129496.399 6     27981.072 6
  21589163.514   -11219689.187 7  -8641620.707 9
  22198133.920    -4956532.149 6  -3784178.884 7
 94  2 14 21 56 29.9980000  0  7 18  2 19 27 28 31 29
  20177063.131   -19898075.771 8 -15395137.321 9
  23062533.717    -4673818.348 6  -3525650.347 6
  20322338.475   -18516009.871 8 -14314694.886 9
  21129005.537   -15178011.959 7 -11735661.381 9
  23149802.045    -4089719.092 6     58976.280 6
  21585647.732   -11238164.434 7  -8656017.002 9
  22215086.631    -4867451.121 6  -3714765.170 8
 94  2 14 21 56 59.9980000  0  7 18  2 19 27 28 31 29
  20185841.631   -19851943.701 8 -15359190.281 9
  23047054.490    -4755162.945 6  -3589035.671 6
  20320932.928   -18523396.087 8 -14320450.372 9
  21119173.443   -15229681.214 7 -11775923.106 9
  23157475.389    -4049399.133 6     90394.349 6
  21582247.615   -11256030.920 7  -8669938.936 9
  22232100.795    -4778035.063 6  -3645090.448 7
 94  2 14 21 57 29.9980000  0  7 18  2 19 27 28 31 29
  20194721.076   -19805280.107 8 -15322829.069 9
  23031626.881    -4836234.524 6  -3652208.219 6
  20319572.920   -18530543.065 8 -14326019.443 9
  21109374.576   -15281175.305 7 -11816048.350 9
  23165247.475    -4008556.792 6    122219.500 6
  21578963.279   -11273289.676 7  -8683387.310 9
  22249179.482    -4688295.395 7  -3575163.500 8
 94  2 14 21 57 59.9980000  0  7 18  2 19 27 28 31 29
  20203702.021   -19758085.472 8 -15286054.055 9
  23016252.303    -4917027.158 6  -3715163.392 6
  20318256.795   -18537459.457 8 -14331408.828 9
  21099608.217   -15332496.057 7 -11856038.525 9
  23173119.592    -3967189.915 6    154453.389 6
  21575793.850   -11289946.472 7  -8696366.616 9
  22266313.647    -4598247.837 6  -3504996.685 7
 94  2 14 21 58 29.9980000  0  7 18  2 19 27 28 31 29
  20212782.271   -19710367.878 7 -15248871.538 9
  23000929.545    -4997549.161 6  -3777907.708 6
  20316983.389   -18544152.199 8 -14336623.944 9
  21089879.053   -15383625.195 7 -11895879.398 9
  23181092.201    -3925290.744 6    187102.073 6
  21572739.897   -11305994.332 7  -8708871.429 9
  22283509.037    -4507889.291 6  -3434587.510 7
 94  2 14 21 58 59.9980000  0  7 18  2 19 27 28 31 29
  20221959.334   -19662142.411 8 -15211293.285 9
  22985653.373    -5077825.375 6  -3840460.501 6
  20315750.342   -18550632.092 8 -14341673.208 9
  21080182.678   -15434578.392 7 -11935583.183 9
  23189165.357    -3882867.476 6    220159.158 6
  21569799.303   -11321445.468 7  -8720911.267 9
  22300763.443    -4417211.238 6  -3363929.396 7
 94  2 14 21 59 29.9980000  0  7 18  2 19 27 28 31 29
  20231229.521   -19613426.795 8 -15173333.092 9
  22970421.193    -5157869.319 6  -3902832.349 6
  20314555.279   -18556911.521 8 -14346566.260 9
  21070516.764   -15485373.788 7 -11975163.997 9
  23197340.201    -3839910.230 6    253632.336 6
  21566972.764   -11336300.312 7  -8732486.450 9
  22318080.092    -4326215.903 6  -3293024.037 7
 94  2 14 21 59 59.9980000  0  7 18  2 19 27 28 31 29
  20240590.779   -19564234.727 8 -15135001.638 9
  22955231.725    -5237689.400 6  -3965029.755 6
  20313397.014   -18562999.925 8 -14351310.465 9
  21060879.506   -15536016.137 7 -12014625.554 9
  23205618.475    -3796407.969 6    287530.195 6
  21564259.022   -11350562.261 7  -8743599.639 9
  22335457.693    -4234892.934 6  -3221863.378 7
 94  2 14 22  0 29.9980000  0  7 18  2 19 27 28 31 29
  20250042.787   -19514565.379 8 -15096298.290 9
  22940086.326    -5317284.164 6  -4027051.572 6
  20312276.670   -18568884.883 8 -14355896.149 9
  21051270.170   -15586514.079 7 -12053974.597 9
  23213999.248    -3752366.615 6    321848.118 6
  21561658.498   -11364227.696 7  -8754248.019 9
  22352899.803    -4143235.723 6  -3150442.264 7
 94  2 14 22  0 59.9980000  0  7 18  2 19 27 28 31 29
  20259588.920   -19464400.208 8 -15057208.579 9
  22924985.404    -5396637.033 6  -4088884.913 6
  20311197.334   -18574556.822 8 -14360315.834 9
  21041684.607   -15636886.569 7 -12093225.883 9
  23222483.123    -3707784.302 6    356587.560 6
  21559171.826   -11377293.579 7  -8764429.224 9
  22370403.607    -4051252.040 6  -3078766.766 7
 94  2 14 22  1 29.9980000  0  7 18  2 19 27 28 31 29
  20269227.506   -19413749.541 8 -15017740.565 9
  22909930.248    -5475754.907 6  -4150535.141 6
  20310158.490   -18580015.881 8 -14364569.641 9
  21032123.779   -15687129.297 7 -12132376.070 9
  23231067.139    -3662674.148 6    391738.281 6
  21556797.154   -11389774.405 7  -8774154.543 9
  22387962.990    -3958979.128 6  -3006865.885 7
 94  2 14 22  1 59.9980000  0  7 18  2 19 27 28 31 29
  20278959.311   -19362608.152 8 -14977890.167 9
  22894922.584    -5554615.945 6  -4211985.252 6
  20309162.443   -18585250.362 8 -14368648.461 9
  21022592.451   -15737214.676 7 -12171403.637 9
  23239748.256    -3617053.074 6    427287.120 6
  21554534.857   -11401663.754 7  -8783418.981 9
  22405575.201    -3866426.300 6  -2934746.914 7
 94  2 14 22  2 29.9980000  0  7 18  2 19 27 28 31 29
  20288785.795   -19310968.865 8 -14937651.796 9
  22879963.186    -5633228.516 6  -4273241.797 6
  20308209.107   -18590260.276 8 -14372552.300 9
  21013091.318   -15787144.783 7 -12210310.214 9
  23248525.654    -3570927.526 6    463229.035 6
  21552384.959   -11412961.396 7  -8792222.353 9
  22423237.412    -3773609.360 6  -2862422.116 7
 94  2 14 22  2 59.9980000  0  7 18  2 19 27 28 31 29
  20298701.959   -19258859.245 8 -14897046.935 9
  22865047.756    -5711611.504 6  -4334319.450 6
  20307294.256   -18595066.788 8 -14376297.633 9
  21003619.678   -15836920.236 7 -12249096.288 9
  23257398.701    -3524302.139 6    499560.429 6
  21550344.943   -11423681.164 7  -8800575.438 9
  22440947.061    -3680546.486 6  -2789905.710 7
 94  2 14 22  3 29.9980000  0  7 18  2 19 27 28 31 29
  20308700.654   -19206316.087 8 -14856104.255 9
  22850173.647    -5789774.088 6  -4395225.325 6
  20306414.701   -18599690.217 8 -14379900.308 9
  20994176.334   -15886544.355 7 -12287764.430 9
  23266363.467    -3477189.807 6    536271.256 6
  21548413.326   -11433830.628 7  -8808484.140 9
  22458701.576    -3587249.275 6  -2717206.647 7
 94  2 14 22  3 59.9980000  0  7 18  2 19 27 28 31 29
  20318781.865   -19153340.161 8 -14814824.355 9
  22835340.561    -5867725.255 6  -4455966.489 7
  20305565.428   -18604152.782 8 -14383377.642 9
  20984756.576   -15936044.709 7 -12326336.129 9
  23275417.373    -3429610.493 6    573345.962 6
  21546588.264   -11443422.936 7  -8815958.691 9
  22476499.607    -3493720.842 6  -2644327.478 7
 94  2 14 22  4 29.9980000  0  7 18  2 19 27 28 31 29
  20328946.873   -19099924.183 8 -14773201.550 9
  22820544.311    -5945477.639 6  -4516552.737 6
  20304748.412   -18608446.016 8 -14386723.029 9
  20975359.842   -15985425.611 7 -12364814.754 9
  23284563.803    -3381546.863 6    610798.062 6
  21544867.654   -11452464.485 7  -8823004.077 9
  22494344.748    -3399945.339 6  -2571255.769 6
 94  2 14 22  4 59.9980000  0  7 18  2 19 27 28 31 29
  20339193.053   -19046080.645 8 -14731245.599 9
  22805788.107    -6023021.262 6  -4576976.333 6
  20303963.857   -18612569.769 8 -14389936.352 9
  20965986.826   -16034681.513 7 -12403195.976 9
  23293802.303    -3332999.971 6    648626.727 6
  21543253.139   -11460947.756 7  -8829614.447 9
  22512238.912    -3305907.991 6  -2497980.027 6
 94  2 14 22  5 29.9980000  0  7 18  2 19 27 28 31 29
  20349525.287   -18991783.959 8 -14688936.533 9
  22791074.451    -6100341.721 6  -4637226.015 7
  20303212.623   -18616516.737 8 -14393011.919 9
  20956637.318   -16083811.127 7 -12441478.787 9
  23303131.873    -3283971.753 6    686830.465 6
  21541746.795   -11468865.264 7  -8835783.951 9
  22530185.951    -3211599.734 6  -2424493.173 7
 94  2 14 22  5 59.9980000  0  7 18  2 19 27 28 31 29
  20359948.146   -18937011.338 8 -14646256.616 9
  22776402.834    -6177442.292 6  -4697304.374 7
  20302498.998   -18620268.673 8 -14395935.513 9
  20947315.865   -16132796.865 7 -12479649.480 9
  23312555.256    -3234453.121 6    725416.338 6
  21540350.357   -11476203.975 7  -8841502.444 9
  22548184.225    -3117016.483 6  -2350792.064 6
 94  2 14 22  6 29.9980000  0  7 18  2 19 27 28 31 29
  20370457.912   -18881782.913 8 -14603221.528 9
  22761770.381    -6254336.353 6  -4757221.801 7
  20301820.639   -18623832.034 8 -14398712.169 9
  20938023.436   -16181628.834 7 -12517700.357 9
  23322072.568    -3184437.323 6    764389.616 6
  21539065.193   -11482956.537 7  -8846764.188 9
  22566232.654    -3022172.577 6  -2276887.786 6
 94  2 14 22  6 59.9980000  0  7 18  2 19 27 28 31 29
  20381054.326   -18826098.232 8 -14559830.909 9
  22747178.225    -6331020.061 6  -4816975.302 7
  20301175.115   -18627224.146 8 -14401355.387 9
  20928758.209   -16230319.118 7 -12555640.832 9
  23331682.850    -3133933.802 5    803742.933 6
  21537891.646   -11489125.077 7  -8851570.843 9
  22584323.936    -2927096.108 6  -2202802.380 6
 94  2 14 22  7 29.9980000  0  8 18  2 19 27 28 16 31 29
  20391739.123   -18769948.762 8 -14516078.118 9
  22732624.670    -6407495.928 6  -4876566.862 7
  20300562.342   -18630444.766 8 -14403864.970 9
  20919517.811   -16278877.698 7 -12593478.678 9
  23341384.982    -3082951.359 5    843469.451 6
  23875100.357      -23175.16314
  21536826.084   -11494724.423 7  -8855933.968 9
  22602458.725    -2831800.878 6  -2128546.462 6
 94  2 14 22  7 59.9980000  0  8 18  2 19 27 28 16 31 29
  20402508.693   -18713355.647 8 -14471979.629 9
  22718111.006    -6483766.853 6  -4935998.726 7
  20299981.756   -18633495.239 8 -14406241.977 9
  20910300.365   -16327315.968 7 -12631222.772 9
  23351178.107    -3031489.173 5    883569.758 6
  23867389.100      -63691.011 3
  21535866.693   -11499765.980 7  -8859862.444 9
  22620632.123    -2736298.280 6  -2054128.961 6
 94  2 14 22  8 29.9980000  0  8 18  2 19 27 28 16 31 29
  20413359.771   -18656332.046 8 -14427545.696 9
  22703639.365    -6559816.107 6  -4995257.870 7
  20299432.154   -18636382.673 8 -14408491.935 9
  20901102.459   -16375650.859 7 -12668886.307 9
  23361059.920    -2979555.997 5    924037.048 6
  23859771.170     -103726.289 3    -29104.06514
  21535010.748   -11504263.524 7  -8863367.017 9
  22638845.670    -2640589.159 6  -1979550.558 6
 94  2 14 22  8 59.9980000  0  8 18  2 19 27 28 16 31 29
  20424294.029   -18598870.290 8 -14382770.348 9
  22689213.232    -6635624.048 6  -5054328.949 7
  20298916.404   -18639094.545 8 -14410605.095 9
  20891921.373   -16423897.320 7 -12706480.926 9
  23371029.795    -2927159.388 5    964865.466 6
  23852238.834     -143298.093 3    -59939.202 2
  21534257.482   -11508221.879 7  -8866451.428 9
  22657099.889    -2544660.063 6  -1904800.688 6
 94  2 14 22  9 29.9980000  0  8 18  2 19 27 28 16 31 29
  20435308.943   -18540988.492 8 -14337667.694 9
  22674835.037    -6711183.407 6  -5113206.336 7
  20298434.178   -18641628.665 8 -14412579.752 9
  20882759.092   -16472044.489 7 -12743998.179 9
  23381088.787    -2874305.717 5   1006050.025 6
  23844796.287     -182414.961 3    -90419.894 2
  21533609.482   -11511626.531 7  -8869104.392 9
  22675399.967    -2448491.998 6  -1829864.652 6
 94  2 14 22  9 59.9980000  0  8 18  2 19 27 28 16 31 29
  20446405.506   -18482675.810 8 -14292229.291 9
  22660506.912    -6786478.399 6  -5171877.703 7
  20297988.357   -18643970.092 7 -14414404.252 9
  20873622.193   -16520059.663 7 -12781412.580 9
  23391236.350    -2820979.010 5   1047603.176 6
  23837444.639     -221050.311 3   -120525.343 3
  21533072.889   -11514445.988 7  -8871301.350 9
  22693748.295    -2352073.675 6  -1754733.612 6
 94  2 14 22 10 29.9980000  0  8 18  2 19 27 28 16 31 29
  20457587.279   -18423913.640 8 -14246440.626 9
  22646228.147    -6861516.834 6  -5230349.163 7
  20297579.139   -18646121.143 8 -14416080.409 9
  20864514.381   -16567921.358 7 -12818707.391 9
  23401471.998    -2767191.736 5   1089515.235 6
  23830184.279     -259206.389 3   -150257.364 3
  21532649.818   -11516669.691 7  -8873034.074 9
  22712146.959    -2255390.239 6  -1679395.985 6
 94  2 14 22 10 59.9980000  0  8 18  2 19 27 28 16 31 29
  20468856.725   -18364693.532 8 -14200295.137 9
  22631994.162    -6936316.517 6  -5288634.604 7
  20297206.092   -18648083.135 8 -14417609.258 9
  20855438.717   -16615613.044 7 -12855869.735 9
  23411793.967    -2712947.597 5   1131783.277 6
  23823015.420     -296877.008 3   -179611.067 2
  21532342.084   -11518286.681 7  -8874294.074 9
  22730597.350    -2158435.972 6  -1603847.325 6
 94  2 14 22 11 29.9980000  0  8 18  2 19 27 28 16 31 29
  20480212.701   -18305017.872 8 -14153794.664 9
  22617803.295    -7010886.145 6  -5346740.772 7
  20296868.412   -18649856.008 8 -14418990.738 9
  20846400.396   -16663109.982 7 -12892880.337 9
  23422202.521    -2658252.047 5   1174403.080 6
  23815942.779     -334047.317 3   -208574.984 4
  21532148.482   -11519301.418 7  -8875084.779 9
  22749097.732    -2061214.306 6  -1528090.305 6
 94  2 14 22 11 59.9980000  0  8 18  2 19 27 28 16 31 29
  20491654.311   -18244891.464 8 -14106942.958 9
  22603652.975    -7085248.958 6  -5404685.797 7
  20296567.373   -18651438.045 8 -14420223.506 9
  20837397.443   -16710421.474 7 -12929746.434 9
  23432696.881    -2603109.219 6   1217371.420 6
  23808964.232     -370719.543 3   -237150.748 4
  21532066.436   -11519735.219 7  -8875422.807 9
  22767645.217    -1963747.848 6  -1452142.528 6
 94  2 14 22 12 29.9980000  0  8 18  2 19 27 28 16 31 29
  20503179.154   -18184327.763 8 -14059750.505 9
  22589542.045    -7159400.161 6  -5462465.918 7
  20296303.295   -18652826.744 8 -14421305.621 9
  20828427.022   -16757560.890 7 -12966478.451 9
  23443276.678    -2547509.689 6   1260695.648 6
  23802080.022     -406889.835 3   -265335.386 2
  21532094.014   -11519589.604 7  -8875309.356 9
  22786239.561    -1866035.494 6  -1376003.146 6
 94  2 14 22 12 59.9980000  0  8 18  2 19 27 28 16 31 29
  20514781.646   -18123357.640 8 -14012241.359 9
  22575471.670    -7233340.651 6  -5520081.831 7
  20296074.920   -18654026.903 8 -14422240.831 9
  20819484.951   -16804550.929 7 -13003094.074 9
  23453944.592    -2491452.581 6   1304376.431 6
  23795291.631     -442567.152 3   -293135.858 4
  21532228.381   -11518883.074 7  -8874758.830 9
  22804873.475    -1768112.280 6  -1299699.464 6
 94  2 14 22 13 29.9980000  0  8 18  2 19 27 28 16 31 29
  20526458.459   -18061994.885 8 -13964426.260 9
  22561441.811    -7307067.257 6  -5577531.082 7
  20295880.232   -18655049.159 8 -14423037.414 9
  20810568.107   -16851409.334 7 -13039607.125 9
  23464700.506    -2434929.419 6   1348420.369 6
  23788594.607     -477758.216 3   -320557.484 1
  21532468.232   -11517624.890 7  -8873778.458 9
  22823543.100    -1670003.738 6  -1223251.380 6
 94  2 14 22 13 59.9980000  0  8 18  2 19 27 28 16 31 29
  20538209.787   -18000242.681 8 -13916307.696 9
  22547450.787    -7380587.945 6  -5634819.894 7
  20295717.084   -18655907.070 8 -14423705.936 9
  20801670.764   -16898166.423 7 -13076041.231 9
  23475544.889    -2377941.397 6   1392826.526 6
  23781991.053     -512464.812 3   -347601.663 2
  21532814.490   -11515805.612 7  -8872360.863 9
  22842243.896    -1571729.881 6  -1146674.447 6
 94  2 14 22 14 29.9980000  0  8 18  2 19 27 28 16 31 29
  20550036.498   -17938092.037 8 -13867878.655 9
  22533500.529    -7453899.146 6  -5691945.460 7
  20295583.803   -18656608.538 8 -14424252.552 9
  20792789.717   -16944835.793 7 -13112406.986 9
  23486474.857    -2320507.758 6   1437579.912 6
  23775476.232     -546691.178 3   -374271.559 2
  21533266.553   -11513428.994 7  -8870508.992 9
  22860975.881    -1473291.037 6  -1069968.990 6
 94  2 14 22 14 59.9980000  0  8 18  2 19 27 28 16 31 29
  20561938.311   -17875545.458 8 -13819141.094 9
  22519583.998    -7527029.363 6  -5748929.995 7
  20295476.498   -18657171.906 8 -14424691.562 9
  20783922.959   -16991431.800 7 -13148715.573 9
  23497482.334    -2262662.568 6   1482654.003 6
  23769052.092     -580458.126 3   -400583.482 2
  21533820.998   -11510515.453 7  -8868238.740 9
  22879734.420    -1374713.504 6   -993155.448 6
 94  2 14 22 15 29.9980000  0  8 18  2 19 27 28 16 31 29
  20573914.287   -17812612.539 8 -13770102.491 9
  22505699.006    -7599997.909 6  -5805788.572 8
  20295392.811   -18657609.714 7 -14425032.732 9
  20775067.303   -17037969.333 7 -13184978.598 9
  23508561.311    -2204440.294 6   1528021.882 6
  23762709.951     -613775.827 3   -426545.320 3
  21534476.951   -11507069.197 7  -8865553.384 9
  22898517.943    -1276003.759 5   -916238.878 6
 94  2 14 22 15 59.9980000  0  8 18  2 19 27 28 16 31 29
  20585964.092   -17749290.912 8 -13720760.998 9
  22491844.404    -7672801.668 6  -5862518.718 7
  20295339.287   -18657892.899 8 -14425253.413 9
  20766224.779   -17084436.428 7 -13221186.733 9
  23519710.209    -2145852.893 6   1573674.290 6
  23756457.115     -646638.721 3   -452152.774 2
  21535237.873   -11503070.897 7  -8862437.866 9
  22917331.365    -1177141.454 6   -839203.439 6
 94  2 14 22 16 29.9980000  0  8 18  2 19 27 28 16 31 29
  20598084.756   -17685597.419 8 -13671129.736 9
  22478021.725    -7745442.353 6  -5919121.785 7
  20295313.850   -18658026.391 8 -14425357.459 9
  20757400.428   -17130809.484 7 -13257321.592 9
  23530928.451    -2086900.906 5   1619610.765 6
  23750287.412     -679062.159 3   -477417.794 3
  21536100.201   -11498537.095 7  -8858905.067 9
  22936173.037    -1078122.952 5   -762046.260 6
 94  2 14 22 16 59.9980000  0  8 18  2 19 27 28 16 31 29
  20610271.811   -17621554.444 8 -13621226.163 9
  22464230.717    -7817912.616 6  -5975592.060 7
  20295315.576   -18658016.452 7 -14425349.727 9
  20748597.014   -17177070.319 7 -13293369.004 9
  23542218.061    -2027573.828 5   1665839.517 6
  23744200.568     -711053.826 3   -502346.427 1
  21537066.318   -11493459.819 7  -8854948.783 9
  22955044.568     -978953.228 5   -684771.268 6
 94  2 14 22 17 29.9980000  0  8 18  2 19 27 28 16 31 29
  20622523.521   -17557171.301 8 -13571057.513 9
  22450473.764    -7890206.206 6  -6031924.653 7
  20295343.076   -18657873.309 8 -14425238.202 9
  20739815.264   -17223218.665 7 -13329328.766 9
  23553581.061    -1967863.570 5   1712366.865 6
  23738194.107     -742619.939 3   -526943.361 4
  21538135.826   -11487841.687 7  -8850571.036 9
  22973946.686     -879618.729 5   -607367.882 6
 94  2 14 22 17 59.9980000  0  8 18  2 19 27 28 16 31 29
  20634844.490   -17492423.987 8 -13520605.097 9
  22436755.287    -7962297.392 6  -6088099.533 7
  20295395.818   -18657597.266 8 -14425023.129 9
  20731059.334   -17269230.451 7 -13365182.103 9
  23565023.826    -1907731.324 5   1759223.029 6
  23732269.592     -773749.831 3   -551200.491 2
  21539308.076   -11481680.913 7  -8845770.447 9
  22992883.529     -780104.212 5   -529824.209 6
 94  2 14 22 18 29.9980000  0  8 18  2 19 27 28 16 31 29
  20647238.311   -17427294.435 8 -13469854.835 9
  22423078.459    -8034168.285 6  -6144102.754 8
  20295469.670   -18657206.268 7 -14424718.477 9
  20722330.936   -17315099.089 7 -13400923.905 9
  23576549.053    -1847164.100 5   1806418.135 6
  23726429.357     -804444.872 3   -575118.747 2
  21540583.865   -11474977.574 7  -8840547.077 9
  23011854.826     -680413.164 5   -452143.014 6
 94  2 14 22 18 59.9980000  0  8 18  2 19 27 28 16 31 29
  20659705.787   -17361776.246 8 -13418801.741 9
  22409442.170    -8105827.816 6  -6199941.265 8
  20295565.295   -18656704.791 8 -14424327.724 9
  20713621.920   -17360866.052 7 -13436586.480 9
  23588154.061    -1786182.283 5   1853936.306 6
  23720670.443     -834710.924 3   -598702.623 2
  21541961.709   -11467736.950 7  -8834905.037 9
  23030856.342     -580560.763 5   -374336.037 6
 94  2 14 22 19 29.9980000  0  8 18  2 19 27 28 16 31 29
  20672252.100   -17295845.970 8 -13367427.539 9
  22395846.889    -8177272.803 6  -6255612.606 7
  20295685.272   -18656075.487 8 -14423837.378 9
  20704929.678   -17406542.412 7 -13472178.442 9
  23599839.373    -1724778.376 5   1901783.382 5
  23714994.045     -864537.743 4   -621944.376 3
  21543442.912   -11459953.223 7  -8828839.788 9
  23049889.553     -480540.099 5   -296398.000 6
 94  2 14 22 19 59.9980000  0  8 18  2 19 27 28 16 31 29
  20684879.428   -17229489.246 8 -13315721.046 9
  22382293.975    -8248491.060 6  -6311107.262 7
  20295835.998   -18655282.545 7 -14423219.522 9
  20696258.623   -17452110.021 7 -13507685.668 9
  23611603.248    -1662953.885 5   1949958.180 6
  23709403.771     -893911.936 4   -644833.364 4
  21545032.365   -11451601.089 7  -8822331.633 9
  23068955.498     -380346.591 5   -218325.256 6
 94  2 14 22 20 29.9980000  0  8 18  2 19 27 28 16 31 29
  20697582.662   -17162732.268 8 -13263702.673 9
  22368780.342    -8319505.864 6  -6366443.366 7
  20296018.928   -18654319.529 7 -14422469.130 9
  20687605.357   -17497582.108 7 -13543118.463 9
  23623442.967    -1600736.148 5   1998439.423 6
  23703900.881     -922833.250 4   -667369.457 5
  21546728.725   -11442684.593 7  -8815383.705 9
  23088053.928     -279991.665 5   -140126.725 6
 94  2 14 22 20 59.9980000  0  8 18  2 19 27 28 16 31 29
  20710360.842   -17095584.208 8 -13211379.553 9
  22355302.482    -8390330.919 6  -6421631.631 7
  20296237.850   -18653172.687 8 -14421575.501 9
  20678972.428   -17542948.650 7 -13578469.020 9
  23635357.787    -1538127.607 5   2047225.173 6
  23698486.803     -951280.592 4   -689536.244 5
  21548531.740   -11433209.107 7  -8808000.206 9
  23107184.428     -179463.039 5    -61792.851 6
 94  2 14 22 21 29.9980000  0  8 18  2 19 27 28 16 31 29
  20723211.061   -17028056.777 8 -13158760.830 9
  22341863.303    -8460955.768 6  -6476663.894 7
  20296491.350   -18651839.188 8 -14420536.429 9
  20670366.850   -17588172.907 7 -13613708.701 9
  23647346.857    -1475124.780 5   2096318.178 6
  23693165.373     -979244.081 3   -711325.993 5
  21550440.693   -11423177.318 7  -8800183.233 9
  23126350.115      -78749.529 6     16685.082 6
 94  2 14 22 21 59.9980000  0  8 18  2 19 27 28 16 31 29
  20736127.139   -16960179.528 7 -13105869.518 9
  22328458.154    -8531396.556 6  -6531552.739 8
  20296774.787   -18650349.407 7 -14419375.573 9
  20661786.881   -17633260.227 7 -13648841.679 9
  23659403.904    -1411764.218 5   2145689.927 6
  23687933.568    -1006732.465 3   -732745.511 2
  21552450.639   -11412613.403 7  -8791951.619 9
  23145546.123       22123.972 6     95287.701 6
 94  2 14 22 22 29.9980000  0  8 18  2 19 27 28 16 31 29
  20749111.693   -16891944.490 7 -13052699.401 9
  22315089.990    -8601647.961 6  -6586294.008 7
  20297085.592   -18648715.222 8 -14418102.191 9
  20653232.053   -17678216.565 7 -13683872.587 9
  23671532.170    -1348028.361 5   2195354.121 6
  23682795.990    -1033732.115 3   -753784.244 4
  21554559.545   -11401531.832 7  -8783316.641 9
  23164772.076      123161.676 5    174018.242 6
 94  2 14 22 22 59.9980000  0  8 18  2 19 27 28 16 31 29
  20762164.529   -16823352.600 7 -12999251.226 9
  22301759.982    -8671698.325 6  -6640878.641 8
  20297422.834   -18646944.113 8 -14416722.117 9
  20644699.584   -17723054.912 7 -13718811.554 9
  23683729.600    -1283930.662 5   2245300.222 5
  23677746.904    -1060266.948 3   -774460.731 2
  21556765.842   -11389936.899 7  -8774281.648 9
  23184028.053      224346.052 6    252863.092 6
 94  2 14 22 23 29.9980000  0  8 18  2 19 27 28 16 31 29
  20775283.709   -16754411.765 7 -12945531.149 9
  22288468.428    -8741542.830 6  -6695302.861 8
  20297784.068   -18645044.930 8 -14415242.244 9
  20636183.451   -17767807.351 7 -13753683.593 9
  23695993.303    -1219488.993 5   2295514.360 5
  23672782.834    -1086358.217 5   -794791.591 4
  21559069.576   -11377833.399 7  -8764850.373 9
  23203303.139      325640.071 6    331793.389 6
 94  2 14 22 23 59.9980000  0  8 18  2 19 27 28 16 31 29
  20788469.357   -16685119.865 7 -12891537.505 9
  22275213.014    -8811201.739 6  -6749582.481 8
  20298170.318   -18643015.283 8 -14413660.704 9
  20627678.756   -17812500.149 7 -13788509.160 9
  23708320.764    -1154705.180 5   2345995.125 5
  23667903.318    -1111999.265 5   -814771.614 3
  21561468.826   -11365227.261 7  -8755027.423 9
  23222596.771      427025.951 5    410795.238 5
 94  2 14 22 24 29.9980000  0  8 18  2 19 27 28 16 31 29
  20801724.029   -16615467.542 8 -12837263.027 9
  22261993.186    -8880673.707 6  -6803716.439 7
  20298585.100   -18640837.561 8 -14411963.786 9
  20619187.834   -17857120.223 7 -13823278.060 9
  23720718.771    -1089550.965 5   2396764.528 5
  23663111.568    -1137178.325 5   -834391.659 5
  21563966.123   -11352103.345 7  -8744801.025 9
  23241907.756      528512.053 5    489875.219 5
 94  2 14 22 24 59.9980000  0  8 18  2 19 27 28 16 31 29
  20815042.506   -16545480.053 8 -12782727.377 9
  22248807.756    -8949962.581 6  -6857707.715 8
  20299027.076   -18638513.457 8 -14410152.811 9
  20610712.217   -17901659.070 7 -13857983.663 9
  23733184.248    -1024047.004 5   2447806.463 5
  23658405.943    -1161905.850 4   -853659.858 5
  21566560.522   -11338470.616 7  -8734178.148 9
  23261236.896      630086.376 5    569023.965 5
 94  2 14 22 25 29.9980000  0  8 18  2 19 27 28 16 31 29
  20828424.529   -16475156.479 8 -12727929.841 9
  22235656.092    -9019074.521 6  -6911561.126 8
  20299496.389   -18636046.347 7 -14408230.396 9
  20602255.201   -17946101.888 7 -13892614.436 9
  23745718.803     -958176.308 5   2499134.133 6
  23653788.951    -1186170.617 4   -872567.469 5
  21569250.467   -11324333.755 7  -8723162.441 9
  23280585.459      731761.909 5    648251.519 5
 94  2 14 22 25 59.9980000  0  8 18  2 19 27 28 16 31 29
  20841869.404   -16404504.058 8 -12672876.063 9
  22222536.818    -9088017.360 6  -6965282.784 8
  20299992.881   -18633438.478 8 -14406198.298 9
  20593822.623   -17990416.377 7 -13927145.216 9
  23758325.928     -891929.671 5   2550754.752 5
  23649257.904    -1209981.517 3   -891121.448 5
  21572036.584   -11309690.595 7  -8711752.217 9
  23299955.928      833556.214 5    727571.636 5
 94  2 14 22 26 29.9980000  0  8 18  2 19 27 28 16 31 29
  20855374.725   -16333531.671 8 -12617572.957 9
  22209454.701    -9156765.188 7  -7018852.486 8
  20300516.076   -18630689.367 8 -14404056.156 9
  20585415.287   -18034595.382 7 -13961570.435 9
  23771002.334     -825313.500 5   2602663.327 5
  23644808.232    -1233363.966 4   -909341.601 5
  21574921.326   -11294531.207 7  -8699939.738 9
  23319349.967      935473.486 5    806987.594 5
 94  2 14 22 26 59.9980000  0  8 18  2 19 27 28 16 31 29
  20868941.482   -16262237.767 7 -12562019.315 9
  22196411.896    -9225305.200 6  -7072260.261 8
  20301066.568   -18627794.971 7 -14401800.799 9
  20577031.607   -18078653.242 7 -13995901.247 9
  23783744.951     -758346.482 5   2654845.297 5
  23640436.045    -1256337.726 5   -927243.234 5
  21577904.545   -11278853.016 7  -8687722.994 9
  23338767.396     1037512.537 5    886498.438 5
 94  2 14 22 27 29.9980000  0  8 18  2 19 27 28 16 31 29
  20882575.021   -16190594.524 8 -12506193.464 9
  22183410.326    -9293629.441 6  -7125499.893 8
  20301650.092   -18624730.230 8 -14399412.707 9
  20568672.022   -18122582.231 7 -14030131.636 9
  23796558.248     -691014.721 5   2707311.491 5
  23636146.865    -1278881.075 5   -944809.503 5
  21580992.303   -11262627.391 7  -8675079.679 9
  23358210.404     1139685.894 5    966113.923 5
 94  2 14 22 27 59.9980000  0  7 18  2 19 27 16 31 29
  20896274.772   -16118601.126 7 -12450094.763 9
  22170450.506    -9361734.137 6  -7178568.452 8
  20302268.006   -18621483.505 8 -14396882.814 9
  20560337.615   -18166379.889 7 -14064259.682 9
  23631941.646    -1300980.462 5   -962029.783 4
  21584189.014   -11245830.597 7  -8661991.294 9
  23377680.068     1242000.192 5   1045839.228 5
 94  2 14 22 28 29.9980000  0  7 18  2 19 27 16 31 29
  20910040.662   -16046259.466 7 -12393724.681 9
  22157531.436    -9429623.133 6  -7231468.927 8
  20302918.662   -18618063.691 7 -14394218.045 9
  20552024.225   -18210067.206 7 -14098301.748 9
  23627823.170    -1322621.467 5   -978892.880 4
  21587492.990   -11228469.241 7  -8648462.990 9
  23397174.029     1344437.692 5   1125660.560 5
 94  2 14 22 28 59.9980000  0  7 18  2 19 27 16 31 29
  20923873.436   -15973565.844 7 -12337080.341 9
  22144650.396    -9497315.150 6  -7284215.923 8
  20303604.506   -18614459.385 8 -14391409.517 9
  20543736.896   -18253619.005 7 -14132238.216 9
  23623798.756    -1343766.605 5   -995369.562 5
  21590905.896   -11210534.466 7  -8634487.860 9
  23416692.982     1447010.842 5   1205587.553 5
 94  2 14 22 29 29.9980000  0  7 18  2 19 27 16 31 29
  20937774.607   -15900515.997 7 -12280158.428 9
  22131805.436    -9564813.098 7  -7336811.683 8
  20304323.537   -18610681.302 8 -14388465.580 9
  20535479.521   -18297010.389 7 -14166049.685 9
  23619874.123    -1364388.224 4  -1011438.353 5
  21594428.100   -11192025.514 7  -8620065.318 9
  23436239.607     1549728.285 5   1285627.057 5
 94  2 14 22 29 59.9980000  0  7 18  2 19 27 16 31 29
  20951744.725   -15827105.392 7 -12222955.412 9
  22119000.756    -9632102.433 7  -7389244.897 8
  20305073.404   -18606741.660 8 -14385395.753 9
  20527253.951   -18340235.499 7 -14199731.586 9
  23616050.389    -1384487.686 5  -1027100.290 5
  21598060.592   -11172935.645 7  -8605190.121 9
  23455814.881     1652596.884 5   1365784.291 5
 94  2 14 22 30 29.9980000  0  7 18  2 19 27 16 31 29
  20965784.420   -15753328.114 7 -12165466.680 9
  22106235.803    -9699183.324 7  -7441515.673 9
  20305853.303   -18602643.355 8 -14382202.295 9
  20519058.123   -18383304.809 7 -14233292.077 9
  23612323.389    -1404071.691 5  -1042360.588 5
  21601800.436   -11153281.229 7  -8589875.012 9
  23475416.842     1755607.133 5   1446051.861 5
 94  2 14 22 30 59.9980000  0  7 18  2 19 27 16 31 29
  20979894.553   -15679180.546 7 -12107689.416 9
  22093512.326    -9766045.166 7  -7493615.761 8
  20306662.389   -18598390.152 8 -14378888.132 9
  20510889.920   -18426229.979 7 -14266740.250 9
  23608691.889    -1423160.329 5  -1057234.879 5
  21605647.404   -11133064.831 7  -8574122.011 9
  23495048.772     1858766.975 5   1526436.038 5
 94  2 14 22 31 29.9980000  0  7 18  2 19 27 16 31 29
  20994076.701   -15604651.391 7 -12049614.803 9
  22080834.186    -9832668.085 7  -7545529.689 8
  20307495.967   -18594010.169 8 -14375475.175 9
  20502743.959   -18469037.442 7 -14300096.706 9
  23605146.998    -1441786.719 5  -1071748.956 6
  21609600.021   -11112292.066 7  -8557935.484 9
  23514704.506     1962057.994 5   1606922.438 5
 94  2 14 22 31 59.9980000  0  7 18  2 19 27 16 31 29
  21008330.576   -15529747.135 7 -11991247.912 9
  22068203.381    -9899045.080 7  -7597251.989 8
  20308358.920   -18589476.893 8 -14371942.777 9
  20494618.271   -18511737.790 7 -14333369.708 9
  23601687.279    -1459966.681 5  -1085915.168 5
  21613658.881   -11090964.990 7  -8541317.024 9
  23534382.951     2065472.266 5   1687504.844 5
 94  2 14 22 32 29.9980000  0  7 18  2 19 27 16 31 29
  21022655.396   -15454469.686 7 -11932590.216 9
  22055620.139    -9965170.676 7  -7648778.407 8
  20309255.264   -18584765.204 8 -14368271.350 9
  20486516.936   -18554310.330 7 -14366543.108 9
  23598314.545    -1477690.148 5  -1099725.663 5
  21617821.646   -11069089.882 7  -8524271.535 9
  23554086.045     2169009.784 5   1768183.316 5
 94  2 14 22 32 59.9980000  0  7 18  2 19 27 16 31 29
  21037048.053   -15378835.821 7 -11873654.789 9
  22043083.811   -10031047.663 6  -7700111.108 9
  20310185.928   -18579875.333 8 -14364461.071 9
  20478442.881   -18596740.454 7 -14399605.536 9
  23595027.639    -1494961.773 5  -1113184.048 5
  21622088.920   -11046666.949 7  -8506799.165 9
  23573809.818     2272655.816 5   1848946.330 5
 94  2 14 22 33 29.9980000  0  7 18  2 19 27 16 31 29
  21051509.107   -15302843.517 7 -11814440.064 9
  22030594.873   -10096678.634 7  -7751252.113 9
  20311157.365   -18574769.634 8 -14360482.626 9
  20470401.459   -18638997.933 7 -14432533.437 9
  23591832.248    -1511749.250 5  -1126265.175 5
  21626460.646   -11023694.817 7  -8488898.846 9
  23593553.193     2376408.289 5   1929792.319 5
 94  2 14 22 33 59.9980000  0  7 18  2 19 27 16 31 29
  21066034.779   -15226510.378 7 -11754959.755 9
  22018148.045   -10162082.869 7  -7802216.439 9
  20312175.264   -18569421.930 8 -14356315.601 9
  20462394.623   -18681073.120 7 -14465319.300 9
  23588733.990    -1528032.550 5  -1138953.466 5
  21630934.592   -11000183.674 7  -8470578.518 9
  23613316.779     2480266.899 5   2010720.968 5
 94  2 14 22 34 29.9980000  0  7 18  2 19 27 16 31 29
  21080625.436   -15149834.926 7 -11695212.714 9
  22005743.842   -10227269.490 7  -7853011.189 9
  20313233.779   -18563857.462 8 -14351979.666 9
  20454423.615   -18722962.972 8 -14497960.754 9
  23585732.178    -1543808.945 5  -1151246.771 5
  21635511.818   -10976131.033 7  -8451836.236 9
  23633100.404     2584230.642 5   2091731.518 6
 94  2 14 22 34 59.9980000  0  7 18  2 19 27 16 31 29
  21095284.553   -15072800.690 7 -11635186.099 9
  21993383.186   -10292229.205 7  -7903629.133 9
  20314332.678   -18558083.359 8 -14347480.384 9
  20446485.217   -18764679.669 8 -14530467.283 9
  23582826.951    -1559075.114 5  -1163142.473 5
  21640195.014   -10951517.757 7  -8432657.089 9
  23652905.764     2688306.826 5   2172829.710 5
 94  2 14 22 35 29.9980000  0  7 18  2 19 27 16 31 29
  21110013.982   -14995398.166 7 -11574872.511 9
  21981064.506   -10356963.008 7  -7954071.040 9
  20315470.826   -18552103.872 8 -14342821.063 9
  20438578.318   -18806228.974 7 -14562843.378 9
  23580018.029    -1573834.691 5  -1174643.469 5
  21644986.498   -10926336.667 7  -8413035.500 9
  23672735.326     2792514.765 5   2254030.582 5
 94  2 14 22 35 59.9980000  0  7 18  2 19 27 16 31 29
  21124812.303   -14917630.105 7 -11514274.083 9
  21968789.865   -10421464.010 7  -8004331.550 9
  20316642.959   -18545943.777 8 -14338021.015 9
  20430703.100   -18847614.196 7 -14595091.613 9
  23577303.670    -1588103.381 5  -1185761.924 6
  21649888.326   -10900577.601 7  -8392963.539 9
  23692592.092     2896860.365 5   2335338.778 5
 94  2 14 22 36 29.9980000  0  7 18  2 19 27 16 31 29
  21139682.748   -14839486.948 7 -11453383.370 9
  21956564.061   -10485711.145 7  -8054394.243 9
  20317848.951   -18539605.467 8 -14333082.101 9
  20422860.264   -18888829.196 8 -14627207.210 9
  23574680.865    -1601886.052 5  -1196501.680 6
  21654903.451   -10874224.459 7  -8372428.666 9
  23712475.818     3001350.798 5   2416759.768 5
 94  2 14 22 36 59.9980000  0  7 18  2 19 27 16 31 29
  21154622.264   -14760979.004 7 -11392208.410 9
  21944386.357   -10549704.143 7  -8104258.889 8
  20319091.912   -18533074.068 8 -14327992.719 9
  20415049.154   -18929876.466 8 -14659192.120 9
  23572149.928    -1615183.858 5  -1206863.594 6
  21660029.295   -10847289.062 7  -8351440.082 9
  23732385.803     3105984.199 5   2498292.142 5
 94  2 14 22 37 29.9980000  0  6 18  2 19 27 16 31
  21169626.123   -14682133.479 7 -11330770.405 9
  21932255.811   -10613452.191 7  -8153932.674 9
  20320372.115   -18526347.359 8 -14322751.156 9
  20407271.787   -18970746.815 7 -14691039.163 9
  23569712.990    -1627993.192 5  -1216844.910 5
  21665259.748   -10819802.723 7  -8330022.196 9
 94  2 14 22 37 59.9980000  0  6 18  2 19 27 16 31
  21184695.100   -14602943.744 7 -11269064.182 9
  21920176.115   -10676933.947 7  -8203398.944 9
  20321692.084   -18519410.804 8 -14317346.079 9
  20399530.592   -19011428.950 7 -14722739.535 9
  23567371.146    -1640294.169 5  -1226430.065 5
  21670595.818   -10791763.428 7  -8308173.440 9
 94  2 14 22 38 29.9980000  0  6 18  2 19 27 16 31
  21199830.920   -14523407.326 7 -11207087.826 9
  21908146.436   -10740151.484 7  -8252659.337 9
  20323051.732   -18512264.753 8 -14311777.757 9
  20391823.053   -19051930.687 7 -14754299.328 9
  23565127.342    -1652090.421 5  -1235621.943 5
  21676035.272   -10763179.513 7  -8285900.306 9
 94  2 14 22 38 59.9980000  0  6 18  2 19 27 16 31
  21215032.498   -14443523.897 7 -11144841.061 9
  21896162.982   -10803118.616 7  -8301724.613 9
  20324448.889   -18504922.858 7 -14306056.828 9
  20384149.022   -19092257.941 8 -14785723.167 9
  23562978.037    -1663381.904 5  -1244420.542 5
  21681575.725   -10734064.596 7  -8263213.400 9
 94  2 14 22 39 29.9980000  0  6 18  2 19 27 16 31
  21230303.748   -14363272.912 7 -11082307.901 9
  21884230.420   -10865825.377 7  -8350586.995 9
  20325882.334   -18497389.749 8 -14300186.903 9
  20376510.826   -19132397.735 8 -14817000.935 9
  23560928.045    -1674159.159 5  -1252818.396 5
  21687222.873   -10704387.405 7  -8240088.360 9
 94  2 14 22 39 59.9980000  0  6 18  2 19 27 16 31
  21245646.318   -14282645.884 7 -11019481.706 9
  21872346.318   -10928278.051 7  -8399251.383 9
  20327352.334   -18489667.005 8 -14294169.210 9
  20368906.857   -19172356.356 7 -14848137.524 9
  23558971.404    -1684437.847 5  -1260827.783 5
  21692981.514   -10674126.439 7  -8216508.428 9
 94  2 14 22 40 29.9980000  0  6 18  2 19 27 16 31
  21261058.818   -14201653.565 7 -10956370.876 9
  21860507.725   -10990489.817 7  -8447728.054 9
  20328858.061   -18481753.151 7 -14288002.594 9
  20361339.225   -19212123.357 8 -14879124.788 9
  23557111.811    -1694212.516 5  -1268444.406 5
  21698852.592   -10643272.723 7  -8192466.612 9
 94  2 14 22 40 59.9980000  0  6 18  2 19 27 16 31
  21276538.600   -14120307.362 7 -10892984.299 9
  21848714.865   -11052462.150 7  -8496018.163 9
  20330402.951   -18473634.120 8 -14281676.098 9
  20353809.811   -19251691.461 8 -14909957.063 9
  23555348.826    -1703476.666 5  -1275663.206 6
  21704837.225   -10611821.402 7  -8167959.125 9
 94  2 14 22 41 29.9980000  0  6 18  2 19 27 16 31
  21292082.053   -14038624.636 7 -10829335.486 9
  21836970.834   -11114176.027 7  -8544106.874 9
  20331992.514   -18465282.330 8 -14275168.238 9
  20346319.686   -19291051.713 7 -14940627.373 9
  23553685.123    -1712221.561 5  -1282477.420 6
  21710936.256   -10579772.464 7  -8142985.960 9
 94  2 14 22 41 59.9980000  0  6 18  2 19 27 16 31
  21307688.248   -13956617.241 7 -10765433.688 9
  21825277.678   -11175625.823 7  -8591989.806 9
  20333628.451   -18456684.594 7 -14268468.721 9
  20338868.959   -19330206.240 8 -14971137.381 9
  23552120.842    -1720438.826 5  -1288880.483 6
  21717144.506   -10547147.749 7  -8117564.133 9
 94  2 14 22 42 29.9980000  0  6 18  2 19 27 16 31
  21323359.154   -13874264.506 7 -10701262.798 9
  21813640.225   -11236779.264 7  -8639641.821 9
  20335313.248   -18447832.357 8 -14261570.884 9
  20331460.561   -19369137.638 8 -15001473.532 9
  23550660.826    -1728112.970 5  -1294860.342 6
  21723462.412   -10513948.073 7  -8091694.285 9
 94  2 14 22 42 59.9980000  0  6 18  2 19 27 16 31
  21339097.967   -13791558.765 7 -10636816.825 9
  21802060.545   -11297632.498 7  -8687059.903 9
  20337045.975   -18438727.444 8 -14254476.168 9
  20324092.764   -19407855.388 8 -15031643.200 9
  23549301.896    -1735252.318 5  -1300423.467 6
  21729885.334   -10480194.907 7  -8065393.144 9
 94  2 14 22 43 29.9980000  0  6 18  2 19 27 16 31
  21354906.147   -13708485.420 7 -10572084.431 9
  21790537.045   -11358189.526 7  -8734247.177 9
  20338823.467   -18429383.517 7 -14247195.195 9
  20316768.295   -19446345.977 8 -15061635.854 9
  23548044.670    -1741857.649 5  -1305570.492 6
  21736413.576   -10445889.333 7  -8038661.565 9
 94  2 14 22 43 59.9980000  0  6 18  2 19 27 16 31
  21370790.670   -13625010.314 7 -10507038.950 9
  21779069.451   -11418449.948 7  -8781203.335 9
  20340645.639   -18419810.402 8 -14239735.633 9
  20309489.443   -19484596.847 8 -15091441.716 9
  23546888.592    -1747936.174 5  -1310307.037 5
  21743051.365   -10411007.139 7  -8011480.675 9
 94  2 14 22 44 29.9980000  0  6 18  2 19 27 16 31
  21386753.889   -13541126.560 7 -10441675.067 9
  21767658.701   -11478413.042 7  -8827927.800 9
  20342511.693   -18410004.544 8 -14232094.724 9
  20302256.857   -19522603.240 8 -15121057.085 9
  23545830.982    -1753490.002 4  -1314634.714 5
  21749799.490   -10375547.073 7  -7983849.489 9
 94  2 14 22 44 59.9980000  0  6 18  2 19 27 16 31
  21402790.881   -13456850.642 7 -10376005.601 9
  21756302.318   -11538093.219 7  -8874431.823 9
  20344424.756   -18399950.356 8 -14224260.295 9
  20295070.912   -19560367.265 8 -15150483.605 9
  23544875.881    -1758508.420 4  -1318545.195 4
  21756658.936   -10339500.214 7  -7955761.074 9
 94  2 14 22 45 29.9980000  0  6 18  2 19 27 16 31
  21418903.193   -13372180.572 7 -10310028.986 9
  21745004.693   -11597461.673 7  -8920692.935 9
  20346389.889   -18389623.711 8 -14216213.562 9
  20287933.420   -19597873.975 8 -15179709.611 9
  23544024.021    -1762988.461 4  -1322036.134 5
  21763636.920   -10302830.753 7  -7927187.517 9
 94  2 14 22 45 59.9980000  0  6 18  2 19 27 16 31
  21435090.193   -13287116.828 7 -10243745.653 9
  21733770.998   -11656495.473 7  -8966693.291 9
  20348414.475   -18378983.153 8 -14207922.233 9
  20280846.373   -19635118.151 8 -15208731.054 9
  23543278.162    -1766908.190 4  -1325090.502 5
  21770734.467   -10265532.345 7  -7898123.881 9
 94  2 14 22 46 29.9980000  0  6 18  2 19 27 16 31
  21451348.764   -13201676.201 7 -10177168.600 9
  21722602.100   -11715188.090 7  -9012427.794 9
  20350505.264   -18367997.281 8 -14199361.823 9
  20273812.521   -19672080.694 8 -15237533.044 9
  23542645.936    -1770234.143 5  -1327682.148 5
  21777952.881   -10227599.199 7  -7868565.640 9
 94  2 14 22 46 59.9980000  0  6 18  2 19 27 16 31
  21467681.201   -13115851.626 7 -10110292.409 9
  21711498.076   -11773539.149 7  -9057896.138 9
  20352662.107   -18356663.628 8 -14190530.419 9
  20266834.459   -19708749.498 8 -15266106.145 9
  23542124.787    -1772969.822 5  -1329813.851 5
  21785295.248   -10189015.633 7  -7838500.581 9
 94  2 14 22 47 29.9980000  0  6 18  2 19 27 16 31
  21484087.217   -13029636.059 7 -10043111.522 9
  21700458.818   -11831552.326 7  -9103101.205 9
  20354880.404   -18345006.234 8 -14181446.756 9
  20259912.725   -19745125.425 8 -15294451.029 9
  23541713.584    -1775133.266 5  -1331499.647 5
  21792759.412   -10149790.835 7  -7807935.848 9
 94  2 14 22 47 59.9980000  0  6 18  2 19 27 16 31
  21500568.037   -12943032.454 7  -9975628.271 9
  21689477.936   -11889256.715 7  -9148065.659 9
  20357155.545   -18333049.128 8 -14172129.556 9
  20253044.076   -19781218.966 8 -15322575.874 9
  23541411.811    -1776717.327 5  -1332733.989 5
  21800342.420   -10109942.550 7  -7776885.287 9
 94  2 14 22 48 29.9980000  0  6 18  2 19 27 16 31
  21517119.740   -12856053.301 7  -9907852.414 9
  21678551.795   -11946674.204 7  -9192806.554 9
  20359477.811   -18320846.098 8 -14162620.723 9
  20246224.006   -19817059.150 8 -15350503.298 9
  23541214.834    -1777752.701 5  -1333540.784 5
  21808040.193   -10069493.219 7  -7745366.365 9
 94  2 14 22 48 59.9980000  0  6 18  2 19 27 16 31
  21533740.975   -12768702.656 7  -9839787.035 9
  21667678.303   -12003813.124 7  -9237330.381 9
  20361838.232   -18308442.428 8 -14152955.550 9
  20239445.623   -19852680.924 8 -15378260.527 9
  23541115.092    -1778274.322 5  -1333947.250 5
  21815847.061   -10028467.643 7  -7713398.411 9
 94  2 14 22 49 29.9980000  0  6 18  2 19 27 16 31
  21550429.506   -12681010.155 7  -9771455.307 9
  21656858.373   -12060673.955 7  -9281637.497 9
  20364235.482   -18295845.092 8 -14143139.470 9
  20232705.529   -19888099.379 8 -15405859.339 9
  23541114.459    -1778279.592 5  -1333951.360 5
  21823759.662    -9986885.556 7  -7680996.821 9
 94  2 14 22 49 59.9980000  0  6 18  2 19 27 16 31
  21567174.021   -12593011.390 7  -9702884.927 9
  21646088.607   -12117269.575 7  -9325737.955 9
  20366669.396   -18283054.591 7 -14133172.883 9
  20226000.271   -19923334.800 8 -15433315.508 9
  23541210.772    -1777776.780 5  -1333559.597 5
  21831773.443    -9944773.463 7  -7648182.224 9
 94  2 14 22 50 29.9980000  0  6 18  2 19 27 16 31
  21583975.264   -12504723.127 7  -9634088.960 9
  21635369.990   -12173595.466 7  -9369628.238 9
  20369140.006   -18270068.331 7 -14123053.743 9
  20219329.561   -19958390.019 8 -15460631.264 9
  23541397.834    -1776792.597 5  -1332792.705 5
  21839884.693    -9902145.953 7  -7614965.999 9
 94  2 14 22 50 59.9980000  0  6 18  2 19 27 16 31
  21600826.779   -12416166.393 7  -9565083.799 9
  21624699.936   -12229665.608 7  -9413319.230 9
  20371651.850   -18256871.028 7 -14112770.150 9
  20212694.482   -19993257.915 8 -15487801.059 9
  23541674.732    -1775339.928 5  -1331660.816 5
  21848094.100    -9859004.779 7  -7581349.527 9
 94  2 14 22 51 29.9980000  0  6 18  2 19 27 16 31
  21617726.350   -12327358.099 7  -9495882.594 9
  21614074.568   -12285502.480 7  -9456828.455 9
  20374205.842   -18243447.753 7 -14102310.488 9
  20206095.998   -20027933.720 8 -15514821.178 9
  23542038.217    -1773424.508 4  -1330168.302 5
  21856400.357    -9815356.243 7  -7547337.710 9
 94  2 14 22 51 59.9980000  0  6 18  2 19 27 16 31
  21634674.217   -12238299.606 7  -9426486.464 9
  21603490.811   -12341121.004 7  -9500167.535 9
  20376800.225   -18229815.506 7 -14091687.973 9
  20199534.193   -20062414.495 8 -15541689.316 9
  23542487.436    -1771064.768 4  -1328329.595 5
  21864800.178    -9771214.578 7  -7512941.637 9
 94  2 14 22 52 29.9980000  0  6 18  2 19 27 16 31
  21651673.545   -12148965.284 7  -9356875.370 9
  21592949.186   -12396518.839 7  -9543334.652 9
  20379434.982   -18215972.592 7 -14080901.307 9
  20193012.998   -20096682.802 7 -15568391.887 9
  23543023.014    -1768251.237 4  -1326137.246 5
  21873297.365    -9726564.230 7  -7478149.191 9
 94  2 14 22 52 59.9980000  0  6 18  2 19 27 16 31
  21668728.701   -12059344.854 7  -9287041.349 9
  21582447.709   -12451703.247 7  -9586335.460 9
  20382108.545   -18201920.774 7 -14069951.865 9
  20186534.100   -20130732.198 8 -15594923.883 9
  23543647.389    -1764967.338 4  -1323578.431 5
  21881891.467    -9681401.591 7  -7442957.563 9
 94  2 14 22 53 29.9980000  0  6 18  2 19 27 16 31
  21685838.779   -11969427.787 7  -9216976.178 9
  21571990.928   -12506653.823 7  -9629154.067 9
  20384822.756   -18187655.906 7 -14058836.398 9
  20180097.396   -20164557.341 8 -15621281.153 9
  23544363.818    -1761203.101 5  -1320645.283 5
  21890583.623    -9635724.701 7  -7407365.216 9
 94  2 14 22 53 59.9980000  0  6 18  2 19 27 16 31
  21703004.334   -11879224.721 7  -9146688.168 9
  21561579.100   -12561366.792 7  -9671787.523 9
  20387575.162   -18173195.077 7 -14047568.236 9
  20173699.709   -20198175.829 8 -15647477.384 9
  23545170.381    -1756965.711 5  -1317343.481 5
  21899370.576    -9589547.055 7  -7371382.676 9
 94  2 14 22 54 29.9980000  0  6 18  2 19 27 16 31
  21720222.904   -11788738.647 7  -9076179.613 9
  21551212.803   -12615842.807 7  -9714236.346 9
  20390366.998   -18158523.123 7 -14036135.560 9
  20167338.154   -20231607.045 8 -15673527.683 9
  23546067.803    -1752252.725 5  -1313671.060 5
  21908254.615    -9542860.682 7  -7335003.730 9
 94  2 14 22 54 59.9980000  0  6 18  2 19 27 16 31
  21737493.842   -11697979.353 7  -9005458.162 9
  21540895.154   -12670062.875 7  -9756485.738 9
  20393202.100   -18143623.800 7 -14024525.715 9
  20161012.131   -20264850.150 8 -15699431.394 9
  23547055.404    -1747062.440 5  -1309626.716 5
  21917235.045    -9495666.671 7  -7298229.213 9
 94  2 14 22 55 29.9980000  0  6 18  2 19 27 16 31
  21754812.342   -11606970.525 7  -8934542.276 9
  21530625.311   -12724032.006 7  -9798539.596 9
  20396078.436   -18128509.362 7 -14012748.250 9
  20154718.045   -20297926.171 8 -15725204.923 9
  23548129.100    -1741418.853 5  -1305229.156 5
  21926308.561    -9447984.625 7  -7261074.425 8
 94  2 14 22 55 59.9980000  0  6 18  2 19 27 16 31
  21772180.654   -11515699.357 7  -8863421.960 9
  21520402.826   -12777752.831 7  -9840399.964 9
  20398994.318   -18113184.744 7 -14000807.005 9
  20148457.459   -20330825.377 8 -15750840.681 9
  23549291.006    -1735311.247 5  -1300470.006 5
  21935476.834    -9399807.101 7  -7223533.549 9
 94  2 14 22 56 29.9980000  0  6 18  2 19 27 16 31
  21789602.639   -11424147.761 7  -8792083.137 8
  21510229.428   -12831211.633 7  -9882056.157 9
  20401953.053   -18097637.015 7 -13988691.914 9
  20142236.545   -20363516.154 7 -15776314.021 9
  23550543.576    -1728732.683 5  -1295343.886 5
  21944743.045    -9351112.314 7  -7185589.600 8
 94  2 14 22 56 59.9980000  0  6 18  2 19 27 16 31
  21807087.967   -11332261.176 7  -8720483.301 8
  21500116.701   -12884354.691 7  -9923466.305 9
  20404958.795   -18081841.190 7 -13976383.501 9
  20136068.459   -20395929.735 8 -15801571.361 9
  23551890.803    -1721647.888 5  -1289823.276 5
  21954116.795    -9301855.236 7  -7147207.508 9
 94  2 14 22 57 29.9980000  0  6 18  2 19 27 16 31
  21824637.295   -11240040.998 7  -8648623.518 8
  21490061.240   -12937197.203 7  -9964642.262 9
  20408009.764   -18065808.970 7 -13963890.879 9
  20129955.561   -20428054.403 8 -15826603.577 9
  23553335.326    -1714058.157 5  -1283909.241 5
  21963598.943    -9252028.606 7  -7108381.601 9
 94  2 14 22 57 59.9980000  0  6 18  2 19 27 16 31
  21842242.545   -11147526.439 7  -8576534.332 8
  21480053.365   -12989786.505 7 -10005620.910 9
  20411100.592   -18049567.786 7 -13951235.434 9
  20123892.334   -20459917.217 8 -15851431.761 9
  23554869.217    -1705998.385 5  -1277628.922 5
  21973184.029    -9201656.570 7  -7069130.700 9
 94  2 14 22 58 29.9980000  0  6 18  2 19 27 16 31
  21859901.732   -11054723.438 7  -8504220.410 8
  21470094.982   -13042118.673 7 -10046399.195 9
  20414235.545   -18033092.475 7 -13938397.559 9
  20117877.568   -20491522.459 7 -15876059.232 9
  23556491.912    -1697471.910 5  -1270984.994 5
  21982872.709    -9150741.808 7  -7029456.896 8
 94  2 14 22 58 59.9980000  0  6 18  2 19 27 16 31
  21877614.592   -10961643.096 7  -8431690.356 8
  21460181.553   -13094213.218 7 -10086992.314 9
  20417417.084   -18016372.077 7 -13925368.700 9
  20111910.264   -20522881.953 7 -15900495.204 9
  23558205.506    -1688465.076 5  -1263966.713 5
  21992661.334    -9099302.968 7  -6989374.729 9
 94  2 14 22 59 29.9980000  0  6 18  2 19 27 16 31
  21895375.670   -10868306.140 7  -8358960.355 8
  21450310.443   -13146086.198 7 -10127412.786 9
  20420648.779   -17999392.877 7 -13912138.178 9
  20105985.654   -20554017.099 8 -15924756.368 9
  23560013.732    -1678969.230 5  -1256567.410 5
  22002546.459    -9047357.102 7  -6948897.475 8
